GFSNW_sfc_wetblb_039.txt.gz
Wetbulb
47.56 48.56 49.88 50.37 51.55 52.14 51.57 49.45 41.67 52.12 55.59 43.23 42.94 41.06 44.72 47.10 48.58 51.14 49.54 48.09 47.09 43.80 44.30 43.48 41.65 42.04 47.51 47.95 48.43 44.35 46.55 42.17 37.07 40.60 46.83 47.22 44.99 43.66 42.92 31.24 32.63 33.54 29.46 32.25
47.28 47.92 48.72 50.17 50.57 51.63 49.39 45.62 46.43 52.95 52.78 36.34 38.43 42.83 44.85 47.71 47.79 47.91 48.12 47.21 48.15 48.14 43.51 42.82 43.70 45.73 50.42 50.55 48.01 45.27 46.43 40.10 31.95 35.76 42.06 45.36 42.28 43.58 43.59 42.89 37.75 33.65 25.92 31.18
46.92 47.06 47.13 49.49 49.98 51.39 50.33 46.57 40.76 48.12 49.51 44.13 41.65 39.92 41.78 43.54 49.94 48.93 49.66 48.08 48.60 46.24 43.98 45.98 43.71 44.52 49.00 49.94 48.18 45.70 47.87 43.03 37.74 31.40 37.19 42.10 39.54 42.48 42.83 40.22 29.90 32.06 32.91 37.04
46.63 46.86 46.77 48.33 49.65 50.64 49.75 46.69 42.75 47.34 41.60 42.39 42.09 43.18 43.18 43.90 44.38 49.41 49.54 47.17 46.52 44.77 41.30 42.70 42.56 45.78 46.23 48.81 46.37 46.59 45.26 37.99 39.62 40.82 42.95 44.39 43.19 42.19 42.33 39.26 39.67 33.45 36.95 38.95
45.66 46.60 46.97 47.01 49.13 49.91 46.75 44.13 43.84 47.68 46.63 46.41 43.77 42.43 42.57 43.83 46.24 47.27 45.82 45.46 46.61 45.62 43.53 44.24 42.06 45.90 44.94 43.95 45.47 44.35 45.64 37.93 39.12 37.21 43.29 41.93 39.02 41.62 41.57 41.02 41.68 39.88 39.93 39.39
46.21 46.73 47.02 46.75 48.60 49.17 44.95 45.87 47.84 47.69 44.15 44.26 42.35 41.49 44.61 45.42 48.03 48.49 49.36 47.71 46.33 45.41 48.00 49.51 48.97 49.27 48.53 48.12 44.84 42.46 42.65 39.80 34.40 31.43 37.00 36.61 29.12 37.22 39.88 41.24 42.21 40.68 35.60 39.39
46.20 46.45 46.70 46.58 48.28 48.93 48.33 46.24 48.05 45.86 40.29 44.28 43.10 44.72 45.66 47.26 47.48 46.58 49.18 49.29 46.67 50.26 52.52 51.05 49.64 48.03 47.92 49.59 48.47 48.14 42.26 40.22 33.82 28.94 29.52 20.94 37.36 43.31 42.71 40.74 41.02 40.94 41.02 40.81
45.96 46.16 46.42 46.63 48.23 49.35 47.82 48.78 47.59 48.12 35.40 45.01 44.62 44.56 46.56 48.60 49.70 48.07 49.87 51.52 52.03 52.78 50.21 42.65 39.02 36.34 35.80 40.72 45.80 44.71 46.59 38.37 32.17 26.96 27.16 34.35 38.56 41.25 40.58 38.30 37.49 42.11 40.94 42.04
45.75 46.15 46.70 47.23 48.54 49.69 48.90 47.77 49.49 49.79 44.96 43.18 47.77 44.46 47.54 45.40 45.25 45.23 49.02 52.14 52.33 52.04 46.80 36.51 33.08 30.88 37.01 36.70 39.52 44.57 43.65 41.76 30.78 29.40 25.29 20.43 35.86 41.74 45.02 43.26 31.74 43.31 43.50 42.43
46.22 46.78 47.18 48.01 48.00 48.57 46.97 46.32 49.36 48.83 46.96 49.48 48.42 44.46 45.57 49.65 47.05 44.37 47.76 48.50 46.99 49.77 34.68 34.78 30.86 30.92 42.15 33.76 33.01 31.36 31.09 31.75 27.65 25.14 23.56 31.34 43.05 44.15 45.19 30.47 33.05 43.53 44.07 43.45
46.58 46.92 47.38 47.70 47.76 48.09 46.43 44.73 48.61 49.87 47.80 49.22 51.45 51.58 49.65 49.64 47.96 42.78 47.47 47.28 44.69 42.24 36.18 35.27 32.78 31.37 35.25 36.16 41.33 36.29 33.15 31.33 26.33 31.74 27.97 26.38 44.41 43.21 36.51 41.41 43.20 44.01 43.87 44.04
46.70 47.17 47.39 47.57 47.65 47.76 47.57 43.95 50.00 52.63 47.94 49.56 55.70 54.79 54.80 53.53 52.69 49.72 48.37 48.71 46.73 47.07 42.11 40.00 36.86 36.22 33.85 34.56 29.96 42.99 33.89 39.04 34.43 36.00 34.16 43.05 43.68 43.36 45.50 45.73 44.23 44.39 44.88 46.38
46.81 46.91 46.86 47.18 47.64 47.99 48.13 46.65 51.34 51.02 46.97 50.13 52.49 49.71 53.87 57.49 55.29 54.77 46.49 49.12 51.99 49.23 50.99 44.77 40.72 35.24 36.82 30.11 33.10 36.43 42.08 45.30 38.68 38.04 42.32 42.97 45.41 46.88 47.35 47.31 45.90 43.69 42.95 43.83
46.91 46.95 46.86 46.74 47.28 47.95 48.82 47.34 51.69 51.25 49.66 39.97 48.81 56.55 51.82 56.83 57.78 56.95 56.62 54.19 54.55 53.31 50.44 40.46 36.61 36.18 44.37 34.38 39.21 38.44 41.34 42.41 40.95 39.31 43.32 44.67 44.47 45.34 45.41 45.01 43.80 41.23 41.05 40.53
46.77 46.97 47.38 47.61 48.19 49.06 49.33 50.41 51.71 52.05 49.48 41.80 46.80 52.45 54.69 56.00 55.21 55.10 56.06 53.91 51.71 48.47 40.18 34.81 37.93 42.56 40.84 39.16 39.02 34.67 42.90 41.34 34.81 34.26 43.18 42.22 41.01 43.05 43.58 41.57 40.80 40.15 38.51 37.25
46.40 46.88 47.64 47.98 48.77 49.54 50.85 44.57 50.93 52.39 51.69 47.87 38.85 50.08 51.14 52.65 53.10 53.10 52.95 52.15 50.49 50.32 44.86 39.05 43.94 46.21 40.34 33.68 30.51 42.49 44.24 44.75 45.17 43.13 44.14 41.74 41.03 40.79 41.23 39.51 39.32 39.31 37.95 37.17
46.43 47.18 48.02 48.75 49.08 50.83 45.93 44.28 51.66 50.61 50.67 47.25 38.47 40.88 49.37 51.56 51.04 48.78 50.12 51.55 49.46 48.59 44.83 40.34 41.51 41.75 43.39 35.01 33.10 42.22 44.27 44.24 44.34 45.45 42.75 39.26 40.49 37.17 38.93 38.25 37.75 37.57 36.06 35.64
47.56 47.74 48.25 48.64 49.42 49.95 48.42 52.71 49.46 49.30 52.66 48.33 37.86 37.38 43.43 50.60 44.02 40.92 47.95 45.91 45.35 43.97 42.38 40.49 37.05 39.95 34.57 32.59 40.65 42.62 43.56 42.90 42.17 41.72 42.69 39.97 38.89 38.29 37.38 36.89 35.94 34.51 33.74 33.74
48.14 48.52 49.02 49.73 50.22 48.79 49.66 48.58 47.60 52.12 49.32 38.58 35.06 36.49 35.60 47.93 43.24 42.34 43.81 44.97 35.90 44.19 36.69 38.56 38.73 34.82 34.25 39.20 40.03 40.57 41.85 40.33 39.45 40.49 39.46 38.24 36.97 37.22 36.16 35.62 34.78 33.14 31.94 33.35
48.91 51.07 49.57 42.12 48.90 48.05 48.11 49.20 42.77 42.96 43.61 41.28 35.96 42.52 37.74 44.55 37.94 36.69 36.62 35.96 36.81 34.66 36.40 39.99 34.83 33.09 37.70 37.91 39.18 40.03 40.72 40.73 38.77 35.21 33.33 34.56 34.93 35.29 36.21 34.96 35.20 34.84 34.09 33.23
50.79 46.60 42.14 48.67 50.00 47.39 43.00 35.23 35.05 37.97 33.94 36.53 38.87 40.88 39.32 43.98 36.84 35.14 36.10 34.93 32.78 29.02 32.58 32.29 32.44 32.20 35.65 38.53 38.89 39.42 42.03 40.28 38.95 37.99 37.88 38.05 37.43 35.44 34.33 34.12 34.27 32.89 30.82 29.32
49.75 48.68 50.07 48.19 45.68 40.01 35.23 33.36 34.34 34.19 33.79 35.91 36.29 37.85 41.23 38.45 44.06 36.01 36.94 33.24 31.52 29.56 37.29 33.53 31.10 32.31 35.67 37.43 37.92 39.70 40.56 39.51 39.32 39.81 38.60 38.33 38.17 36.60 34.84 33.62 31.97 30.40 29.43 27.72
48.68 43.64 37.47 41.58 35.73 33.17 28.20 25.64 32.52 32.22 33.76 35.40 34.99 34.50 35.78 37.12 38.14 34.84 35.71 33.29 31.02 31.77 32.51 29.89 30.97 34.41 36.03 37.36 38.47 38.41 39.17 38.97 38.22 36.92 35.88 35.32 33.99 33.81 32.93 31.55 31.55 29.87 27.68 27.79
38.90 35.04 32.10 32.84 31.72 30.38 30.27 31.34 32.17 32.34 32.50 34.33 35.77 34.13 34.13 34.15 33.33 33.23 31.97 32.13 33.68 30.85 25.93 24.90 31.10 33.86 35.44 36.33 37.17 37.05 35.79 33.58 33.84 33.84 32.66 31.16 31.01 29.93 29.59 28.03 27.10 26.95 26.37 26.34
33.50 33.18 28.43 28.92 31.01 32.10 32.13 32.50 32.84 32.96 35.36 35.22 35.24 34.50 36.05 32.87 33.02 32.84 32.16 30.60 25.63 27.48 25.76 31.40 33.09 34.88 35.61 35.55 34.44 33.41 32.04 32.02 32.57 33.25 31.14 30.34 30.07 29.14 28.14 27.80 27.28 26.05 22.52 21.01
33.35 31.66 30.88 32.07 31.95 31.51 31.89 32.11 31.98 34.56 33.40 34.69 33.88 32.87 32.15 31.90 32.38 31.23 30.24 27.85 25.20 30.13 31.22 32.94 34.78 34.77 35.32 33.82 33.83 34.75 35.25 33.31 32.43 31.87 31.63 30.66 29.18 27.58 26.70 27.00 25.29 20.90 19.58 15.08
31.99 30.21 31.76 31.76 31.33 30.10 31.03 31.76 32.10 34.72 33.41 32.34 33.03 30.11 29.77 32.54 30.34 28.96 30.95 28.66 30.69 31.90 32.35 34.10 35.05 34.88 33.32 33.27 33.81 33.36 33.54 32.97 32.15 31.73 31.12 29.80 29.25 27.03 25.83 24.32 25.19 25.31 23.70 15.97

GFSNW_sfc_wetblb_042.txt.gz
Wetbulb
47.66 47.84 48.12 47.92 49.27 50.12 49.39 46.60 40.26 51.45 54.04 42.20 40.87 39.76 42.83 45.09 46.62 49.48 47.71 47.46 45.02 41.82 41.79 40.25 39.60 40.19 42.97 47.05 47.14 42.80 44.73 40.11 34.29 40.48 44.93 46.38 42.20 40.64 39.95 29.40 30.99 31.75 27.94 30.98
46.73 47.13 47.69 47.72 48.79 49.82 45.73 42.74 44.62 51.52 50.93 37.01 35.53 41.16 43.58 44.71 45.26 46.42 46.43 45.65 46.79 45.84 41.67 38.93 42.12 43.59 47.86 48.90 45.60 43.21 44.33 38.01 31.21 34.79 40.06 43.54 41.32 41.57 42.14 40.67 35.11 31.71 25.94 30.61
46.72 46.74 47.16 47.47 48.73 49.68 46.64 43.89 38.99 45.96 47.33 42.95 38.35 37.62 39.75 40.90 46.47 45.32 46.93 46.67 47.48 44.47 42.14 44.05 41.83 43.64 47.09 48.51 47.04 45.47 46.14 40.08 35.84 30.54 35.33 39.49 37.56 40.77 41.49 38.45 29.57 31.12 31.69 35.45
46.59 46.70 46.92 47.45 48.22 49.56 46.78 44.12 40.21 42.59 38.62 40.56 40.16 39.95 40.67 39.51 40.01 46.56 47.98 45.24 45.39 43.95 39.78 40.84 40.38 44.35 44.86 46.85 45.34 45.43 43.36 37.26 38.50 39.35 40.88 41.67 40.34 40.38 40.59 37.91 37.29 32.34 35.91 36.39
45.95 46.03 47.26 47.79 48.23 49.51 44.01 40.87 40.83 43.89 41.85 43.52 40.19 39.88 38.63 38.81 40.83 43.12 43.15 43.95 45.79 44.70 41.72 41.74 40.52 43.72 42.54 41.87 43.79 42.41 43.36 36.10 36.12 34.35 39.50 38.85 36.85 39.05 38.62 39.37 39.20 38.51 38.41 36.54
45.79 45.29 46.48 47.01 47.40 48.85 42.49 45.22 45.88 44.79 41.60 41.67 39.37 39.14 39.48 40.27 42.27 45.06 46.09 46.50 45.34 42.94 44.81 46.51 45.82 47.15 46.78 46.01 42.78 41.05 40.76 37.93 32.26 30.74 34.60 34.55 28.93 35.55 38.42 39.25 39.91 39.95 33.90 38.26
44.45 45.32 46.57 46.67 46.88 47.52 47.02 45.64 44.96 43.33 38.27 41.94 40.95 41.79 42.34 41.55 42.94 41.39 47.41 47.85 45.66 47.61 50.36 48.60 47.09 45.30 47.13 47.14 45.54 45.74 39.20 36.99 30.93 27.46 27.82 21.37 36.89 41.35 41.14 38.07 38.28 38.95 39.01 39.37
44.79 45.78 45.79 46.30 46.46 46.96 45.63 47.67 45.38 44.90 35.32 42.65 43.95 43.63 42.60 43.49 44.97 45.47 45.75 48.77 49.83 51.67 47.72 41.05 37.40 35.32 36.42 39.74 43.37 43.57 45.15 35.96 30.86 26.12 26.36 32.57 37.30 39.22 37.80 36.58 35.47 39.85 39.03 40.55
45.03 45.05 45.55 46.07 46.39 46.82 46.25 45.47 48.66 46.29 42.14 40.04 45.97 44.14 43.99 40.68 41.76 43.36 46.31 50.65 50.83 51.45 43.41 35.41 31.87 30.40 35.35 35.58 37.88 42.27 40.77 38.67 32.68 27.92 23.70 20.78 34.06 39.83 42.79 41.52 30.68 41.49 41.36 40.92
45.17 45.26 45.55 46.03 46.42 46.53 46.32 45.18 48.21 44.90 43.66 46.82 47.27 43.63 42.42 45.27 43.55 42.45 46.08 46.94 46.01 47.01 33.89 32.68 30.13 31.19 39.39 32.11 31.58 30.03 30.25 30.51 27.17 22.87 22.72 28.45 38.83 42.20 42.88 30.02 31.21 41.80 42.23 41.59
45.05 45.15 45.48 46.00 46.52 46.85 46.27 45.70 49.11 44.84 42.97 46.52 49.53 48.27 43.73 45.44 46.72 41.69 44.78 44.53 43.84 40.72 35.62 34.08 31.85 28.28 34.41 33.85 37.66 34.20 32.35 29.14 24.89 28.70 23.11 25.12 42.85 41.34 36.15 38.02 41.28 42.32 42.57 42.58
45.43 45.52 45.50 45.92 46.58 47.00 47.78 43.50 48.41 49.20 43.85 46.55 49.15 50.02 51.23 50.48 50.82 47.55 45.76 45.27 45.25 45.78 41.42 36.76 35.53 32.03 29.94 32.43 30.49 40.64 32.55 35.20 32.00 33.78 32.40 40.71 42.21 42.04 43.14 43.99 42.90 43.01 43.92 44.43
45.45 45.58 45.81 46.14 46.84 48.21 47.35 46.22 47.46 46.87 43.62 44.47 46.67 48.14 52.82 54.95 54.67 54.82 45.70 45.66 49.96 49.39 47.65 42.13 38.66 32.90 33.65 29.63 30.66 35.05 39.51 43.61 37.62 36.98 40.83 42.23 43.61 44.70 44.72 43.33 40.62 40.78 41.99 40.81
46.39 46.36 46.55 47.31 47.59 47.90 47.00 45.63 49.89 47.00 46.49 39.00 45.28 54.74 51.60 55.31 54.59 53.57 51.95 50.55 51.41 52.15 48.30 39.02 35.49 34.43 40.58 31.03 37.26 35.94 39.48 41.14 38.44 38.37 40.80 42.38 42.09 42.14 40.23 39.73 39.56 38.77 38.86 38.28
46.76 47.14 47.26 47.42 47.69 47.79 47.05 47.86 49.66 51.65 47.07 39.36 44.26 50.35 53.23 55.29 55.47 52.94 53.57 52.11 50.14 45.50 39.42 34.70 36.65 40.65 39.55 35.58 36.41 33.31 40.77 39.12 34.47 33.47 42.37 40.05 39.28 40.24 41.40 38.96 37.98 37.96 36.78 35.67
46.73 46.85 46.87 47.21 47.10 47.45 46.33 41.10 47.41 50.54 51.63 43.99 38.03 48.07 50.45 53.31 54.69 52.98 52.76 51.35 49.98 47.59 42.91 39.08 42.42 44.78 37.90 30.81 28.59 40.84 42.25 43.32 43.77 41.08 42.00 40.24 39.06 39.05 39.42 37.69 37.12 36.98 35.73 35.33
46.48 46.87 47.01 47.17 47.23 47.03 44.02 41.90 47.93 49.13 50.84 43.82 38.04 40.08 49.09 51.97 50.90 49.44 49.58 49.29 46.69 47.98 43.79 37.07 39.26 40.73 39.87 31.08 31.35 41.05 41.99 42.05 41.43 41.01 40.29 37.34 38.60 35.69 37.47 36.62 35.83 36.10 35.07 34.84
46.20 46.64 47.05 47.64 47.71 47.86 46.37 48.89 49.71 50.76 47.86 47.25 36.43 38.69 41.94 50.03 42.76 43.05 47.79 44.92 43.39 43.19 40.54 37.82 35.03 39.33 31.32 31.87 39.22 40.95 40.75 41.22 40.89 40.03 40.53 38.62 37.49 35.92 34.78 35.27 35.15 33.73 32.60 32.21
46.50 47.03 47.75 47.88 47.34 45.00 46.55 48.99 49.02 50.94 48.04 39.10 34.27 35.52 35.36 45.84 40.64 39.20 40.54 40.33 36.58 42.87 35.16 34.93 37.84 30.12 31.40 36.93 39.07 38.94 40.01 38.65 36.53 37.35 37.03 36.62 34.59 33.91 34.00 34.06 32.75 31.19 30.13 30.58
47.18 46.92 45.15 40.07 45.98 49.39 49.20 48.04 44.33 42.99 42.59 40.31 35.71 40.32 37.34 42.49 35.54 36.08 33.15 36.25 34.42 34.31 35.61 39.68 33.27 32.04 35.71 36.67 38.60 38.93 39.14 38.44 37.35 33.92 32.37 33.43 32.82 33.76 34.06 33.29 33.49 32.43 30.57 29.47
46.13 45.02 41.70 48.70 49.32 48.02 43.77 36.20 34.68 37.55 33.42 35.21 37.92 38.66 38.18 42.37 34.64 34.26 34.00 33.89 32.58 31.24 34.14 33.33 32.43 31.66 35.57 36.96 38.17 38.95 39.38 39.13 37.17 36.65 36.69 36.16 35.79 34.48 33.38 32.81 31.99 30.88 29.47 28.77
47.81 48.00 48.95 47.12 44.15 37.16 34.15 32.04 33.36 33.95 32.72 34.43 36.05 37.68 40.62 38.15 42.41 36.23 35.46 32.09 31.14 30.45 36.05 33.48 30.38 30.23 34.47 39.10 39.36 40.18 40.00 38.88 37.50 37.61 37.19 37.07 36.31 35.39 33.46 31.43 29.64 28.84 29.22 28.41
47.41 42.80 36.65 39.03 34.01 30.57 25.46 25.70 31.19 31.06 32.79 34.75 34.60 34.24 35.66 37.24 38.77 34.23 34.17 27.48 29.07 30.11 32.43 26.06 28.45 34.79 36.49 37.90 38.58 37.90 38.86 38.60 37.50 36.54 36.69 35.59 34.36 33.31 31.11 28.73 28.06 28.39 27.63 25.99
36.76 32.66 30.22 31.00 29.32 29.07 29.50 31.09 31.67 32.26 32.44 33.55 33.53 33.53 34.97 33.00 33.68 32.43 31.50 32.20 32.78 27.80 23.73 24.16 31.06 34.47 35.32 37.09 37.20 35.81 33.97 33.33 33.49 33.11 32.46 31.20 30.83 30.31 30.38 28.32 26.97 26.03 25.01 23.07
32.57 32.10 27.29 28.12 30.96 32.01 31.87 32.23 32.40 32.56 34.19 33.89 33.52 33.70 34.35 32.62 32.52 31.78 31.62 29.71 27.75 26.76 23.82 30.53 32.75 34.52 34.77 34.39 33.99 32.72 31.63 31.53 31.48 31.70 30.13 29.20 28.99 28.32 27.32 27.61 26.89 25.78 23.17 20.69
30.12 30.88 30.80 32.22 31.87 31.06 31.24 31.64 31.89 34.31 32.79 32.81 31.46 32.19 31.90 31.12 31.71 30.08 29.15 24.93 23.81 29.28 30.77 32.43 34.62 33.89 32.74 32.57 32.73 33.20 33.16 32.05 31.16 30.89 30.09 28.89 27.62 26.27 26.23 25.77 24.07 21.39 20.57 17.50
30.13 29.23 31.87 31.31 31.25 30.20 30.75 31.48 31.80 34.27 33.52 32.28 31.38 29.18 29.32 31.42 29.58 27.79 30.08 26.94 29.31 31.12 31.87 33.47 34.42 32.52 32.83 33.71 33.05 32.49 32.64 32.05 31.48 31.10 30.28 28.77 27.76 26.63 25.28 23.40 23.46 24.07 22.47 18.09

GFSNW_sfc_wetblb_045.txt.gz
Wetbulb
47.86 48.78 48.76 48.72 49.51 49.45 48.16 40.67 36.19 50.04 52.17 42.54 41.33 35.46 40.71 43.90 44.90 47.73 46.23 45.72 44.37 42.13 40.33 38.39 38.37 38.56 41.58 43.77 44.94 40.66 42.69 37.77 32.75 37.96 42.61 43.88 41.49 39.50 37.71 29.39 29.80 29.93 27.21 30.31
48.03 48.39 48.21 48.37 48.34 49.12 45.80 38.43 40.52 50.94 49.68 37.45 37.50 39.87 39.94 43.77 43.88 43.79 43.83 43.87 45.39 44.69 40.15 36.92 39.28 40.05 45.49 47.08 43.95 41.72 42.99 36.06 29.99 33.99 38.28 41.08 39.45 40.23 40.74 37.81 33.19 30.46 25.23 30.03
48.32 47.97 47.93 47.97 47.81 48.97 46.44 40.76 35.64 43.84 45.99 43.64 39.06 37.71 38.31 39.46 45.71 43.68 44.56 44.50 46.10 43.20 41.05 41.82 39.60 41.43 45.47 46.47 45.74 45.53 44.22 38.17 35.01 31.27 34.56 39.05 35.74 39.17 39.21 37.63 28.90 30.82 30.64 34.05
48.10 47.38 47.41 47.63 47.31 47.73 45.98 40.78 37.14 41.21 37.92 38.99 40.14 39.60 38.75 38.46 39.47 43.79 44.59 41.16 43.17 42.55 38.57 39.01 39.32 42.46 43.03 44.73 43.83 43.54 42.77 36.21 36.70 37.22 38.18 39.20 38.59 38.77 38.84 36.36 35.93 31.85 34.99 34.71
47.62 47.11 46.94 47.06 47.31 47.35 43.04 37.30 39.91 41.29 39.41 41.67 39.77 39.70 36.95 37.91 40.63 41.82 40.56 40.54 44.33 43.02 40.90 41.48 39.57 42.00 40.85 41.35 42.03 41.41 41.81 34.75 35.79 33.92 37.79 37.84 36.26 38.57 38.02 37.90 37.49 36.76 36.19 35.83
47.02 46.82 46.69 46.85 46.97 46.28 41.64 41.91 44.60 42.03 40.36 38.83 38.10 37.23 37.96 38.52 41.73 42.80 44.04 43.99 43.82 41.95 44.03 45.60 45.30 45.51 44.84 44.29 42.18 39.19 38.82 35.92 31.14 29.51 33.14 32.99 28.64 34.42 37.33 37.70 38.54 38.63 33.57 37.45
46.60 46.44 46.19 46.35 46.62 45.61 44.37 42.87 44.88 41.78 34.70 39.12 37.64 39.13 40.09 39.34 40.92 39.37 43.30 43.81 41.25 46.24 48.67 46.75 45.52 44.65 44.92 44.65 43.36 43.17 37.41 34.59 30.17 26.80 28.00 21.43 35.87 39.50 39.20 37.12 36.22 36.81 37.63 38.27
46.22 45.85 45.83 46.11 46.54 46.53 42.28 44.46 44.51 42.61 33.04 39.47 40.98 39.70 39.64 41.17 42.37 40.95 41.69 44.41 46.50 49.08 46.13 40.07 36.84 34.27 36.23 37.63 41.47 42.38 41.76 34.07 29.14 26.85 26.64 31.29 35.46 36.81 36.96 35.32 33.40 38.11 37.12 38.62
45.34 45.61 45.48 45.93 46.78 46.75 44.18 44.14 47.21 44.92 39.92 39.13 43.70 40.64 41.53 38.63 38.47 38.76 41.46 46.28 49.68 47.82 42.20 34.34 32.16 31.77 35.13 34.08 36.13 40.54 37.97 36.71 32.40 26.21 24.19 22.21 34.29 38.53 40.82 40.02 29.49 39.81 39.55 39.17
44.82 45.15 45.30 45.42 46.49 46.60 44.42 44.78 47.98 45.64 39.33 43.20 45.04 41.86 40.76 43.37 39.90 38.34 40.95 45.15 44.94 47.18 35.57 30.95 30.77 30.39 38.46 31.69 31.59 30.00 29.96 29.66 28.90 23.00 22.84 29.14 36.91 40.55 41.12 30.29 31.33 40.33 40.85 40.30
44.15 44.49 45.44 45.96 46.30 46.81 44.41 44.05 47.84 44.75 40.19 42.92 46.17 46.30 43.01 43.51 42.69 38.58 42.63 44.22 43.38 37.75 35.10 34.34 32.84 29.38 34.50 32.57 35.66 33.23 33.26 29.48 24.69 25.14 20.95 25.68 40.10 39.26 34.49 36.78 38.95 40.88 40.57 40.92
44.44 45.11 45.44 45.77 46.10 46.56 45.89 41.96 47.97 49.30 42.83 43.16 46.51 46.00 46.37 46.03 46.91 44.40 44.45 43.81 43.91 43.97 39.46 36.70 35.52 31.52 28.84 32.45 29.35 38.02 32.59 35.51 32.51 33.41 31.98 38.81 40.70 39.70 40.74 41.56 41.53 41.29 42.12 41.12
44.99 45.15 45.51 45.86 46.12 46.19 45.51 44.63 47.35 46.53 42.01 41.34 42.61 43.86 48.31 50.25 49.75 51.43 44.02 44.22 48.24 46.68 47.20 41.38 37.56 33.42 33.66 29.58 30.38 33.82 37.69 40.54 35.36 36.21 38.88 40.33 41.58 40.97 41.38 42.31 41.63 42.49 43.00 39.48
44.94 45.06 45.35 45.46 46.19 46.50 46.26 43.62 47.46 45.87 43.86 35.65 41.26 52.80 50.39 53.81 53.52 52.28 50.59 49.74 50.72 49.00 46.29 39.97 35.86 32.45 39.82 30.51 36.79 35.44 38.17 40.27 37.18 36.16 39.05 40.47 40.37 38.33 38.35 38.24 38.58 38.06 38.26 38.25
45.20 45.48 45.48 45.60 46.23 46.73 45.72 46.35 47.34 47.95 41.82 38.12 40.99 47.64 51.69 54.03 52.88 51.40 51.57 50.74 48.92 44.35 40.27 33.97 35.02 39.07 40.12 35.46 35.99 32.87 40.01 38.08 34.85 33.09 40.83 39.60 39.31 38.45 39.26 37.95 36.72 36.82 35.89 34.99
45.28 45.60 45.76 45.93 46.24 46.46 44.42 39.24 44.47 48.48 49.95 40.86 35.27 46.18 49.06 50.99 51.50 50.16 50.01 50.88 48.47 47.11 42.63 37.68 42.32 45.30 40.50 32.76 30.84 39.75 41.64 42.25 41.32 40.35 43.51 39.45 38.63 37.82 38.03 36.53 36.05 35.86 34.90 34.39
45.84 45.68 45.63 46.07 46.53 45.26 41.34 37.93 42.15 47.04 49.59 42.81 35.09 36.95 46.62 51.72 49.51 47.01 48.45 48.34 46.29 47.37 43.30 36.45 39.90 41.15 40.48 31.19 32.17 39.96 40.94 40.57 39.76 39.64 38.87 35.74 36.66 34.85 36.15 35.60 35.33 35.53 34.19 34.25
46.48 46.53 46.48 46.58 46.67 46.00 40.76 47.55 48.15 48.21 45.17 44.46 34.79 35.71 40.49 49.43 43.19 41.28 46.92 42.73 44.35 43.47 40.69 36.65 35.80 38.16 30.95 32.47 38.28 39.22 39.38 39.26 39.15 38.30 39.26 37.92 35.80 34.98 34.15 34.54 34.07 32.73 31.80 31.70
46.35 46.60 46.92 45.77 44.30 40.39 43.19 49.05 50.12 51.31 46.14 37.68 33.89 34.43 34.56 46.18 41.58 40.36 41.03 43.06 36.95 42.34 35.49 36.77 39.16 32.56 33.80 36.01 37.96 38.41 39.05 38.20 35.30 35.98 35.14 34.89 33.59 32.97 33.13 32.82 31.94 30.15 29.24 29.97
46.72 45.73 42.87 37.46 42.93 48.06 48.37 46.23 42.59 42.05 42.53 42.30 35.17 40.10 37.31 42.80 36.39 35.15 36.66 36.01 34.96 34.60 36.43 39.75 33.88 33.22 35.48 35.65 38.45 37.97 37.39 36.84 36.02 32.86 31.13 31.68 31.37 32.02 32.02 31.50 32.40 31.94 31.04 30.42
44.50 40.41 39.09 46.92 48.47 46.19 41.47 36.01 34.73 36.12 33.15 36.01 37.99 38.70 38.30 41.86 36.41 34.22 34.90 33.86 33.25 32.92 35.46 35.11 32.60 33.01 34.59 36.67 37.02 37.87 37.91 37.61 36.73 36.80 36.10 35.65 34.44 32.78 32.82 32.31 31.41 29.78 29.35 28.66
43.36 47.08 47.48 45.98 42.80 37.65 32.99 31.49 32.59 32.04 32.33 34.55 35.14 36.75 39.90 36.56 40.98 35.10 34.82 32.71 32.02 30.51 36.19 33.72 31.40 31.40 34.31 36.73 36.80 37.66 38.23 38.07 38.07 37.95 36.52 36.18 35.46 35.00 33.24 31.09 29.38 29.13 28.88 26.14
46.87 41.71 36.47 38.36 32.77 31.12 30.13 28.27 30.56 31.47 32.56 34.61 34.04 33.66 34.40 34.24 36.15 30.78 29.49 23.45 24.61 33.06 32.34 31.30 28.98 34.15 36.99 38.63 38.13 37.60 38.34 38.06 37.40 36.83 36.68 35.55 33.53 32.34 30.80 28.88 29.10 28.38 27.14 26.67
36.19 34.02 28.81 30.28 27.92 28.75 29.09 30.72 31.79 32.18 32.21 32.96 33.51 33.15 33.48 32.42 32.29 30.01 27.05 31.51 32.32 26.24 22.42 21.93 30.66 34.21 35.83 36.84 36.74 35.90 35.19 34.63 34.37 33.53 32.14 30.71 29.46 28.30 28.56 28.59 27.35 25.62 24.11 23.68
32.18 32.92 26.92 28.29 31.26 31.83 31.82 32.21 32.41 32.69 33.99 33.51 33.49 32.77 34.66 32.35 32.21 30.88 31.39 29.88 27.77 22.69 20.82 29.07 32.38 34.14 35.21 34.48 33.92 32.70 31.77 31.60 31.42 31.62 30.23 28.84 28.00 27.19 26.48 26.81 26.42 24.04 21.98 20.63
31.62 30.66 29.44 30.78 30.46 29.73 30.72 31.13 31.82 34.29 32.93 33.13 33.25 29.94 29.66 30.52 31.05 29.56 28.06 27.17 25.27 28.18 30.19 32.01 33.21 32.81 32.89 32.44 32.44 32.56 32.46 31.42 31.02 30.57 30.33 29.72 28.29 26.72 25.95 25.85 23.96 21.59 20.40 18.87
29.75 28.82 31.82 31.09 30.91 30.05 30.90 31.23 31.34 34.23 33.49 31.86 31.10 29.61 28.36 31.84 28.49 26.78 29.24 25.39 28.11 30.51 31.80 32.86 32.27 31.69 31.87 32.32 32.06 31.63 31.75 30.69 30.02 29.77 29.31 28.22 27.59 25.34 23.96 22.45 23.08 23.10 21.27 19.02

GFSNW_sfc_wetblb_048.txt.gz
Wetbulb
48.52 48.04 48.30 49.28 49.37 49.18 47.24 42.98 32.75 46.00 51.93 40.57 41.50 37.43 38.78 42.56 44.54 45.65 43.82 44.31 43.16 41.60 39.56 37.33 37.02 37.82 40.61 42.47 42.57 38.81 40.96 36.31 30.77 36.43 40.46 42.11 39.42 38.18 36.81 29.79 29.24 29.40 27.27 29.88
48.20 47.88 48.34 48.74 49.31 48.88 43.99 38.54 37.30 49.49 48.13 33.51 35.21 39.66 40.30 41.44 42.59 42.54 42.79 42.25 44.09 44.09 39.64 35.05 38.42 38.73 42.89 43.63 42.02 39.99 41.42 34.15 28.66 32.03 36.42 39.22 37.41 39.15 38.58 35.56 31.91 29.35 24.18 29.90
48.13 47.64 48.02 48.56 48.82 48.87 45.08 39.27 31.40 42.10 43.58 41.08 36.82 36.88 38.04 36.77 43.65 42.61 43.45 42.75 44.28 42.37 40.17 40.19 37.17 38.79 42.94 45.26 43.21 45.06 43.91 36.45 33.22 30.38 32.95 36.67 34.58 37.24 38.10 36.33 28.58 30.08 29.66 33.20
47.95 47.47 47.89 48.43 48.21 48.80 45.17 39.75 33.23 39.37 34.38 35.67 37.25 38.36 38.40 36.64 36.45 42.84 43.53 40.46 41.83 40.80 37.63 37.66 36.86 40.99 42.34 42.90 44.39 42.54 41.50 34.81 35.31 35.35 36.43 37.99 37.35 37.27 36.45 35.18 34.97 31.94 34.82 33.46
47.71 47.19 47.35 47.71 47.53 48.21 42.16 36.19 35.81 39.68 38.41 37.53 36.41 37.91 36.58 36.66 37.97 40.44 39.22 39.09 41.08 42.29 39.35 40.55 37.94 41.64 39.85 40.02 40.63 40.33 40.05 34.68 33.35 33.08 35.92 35.81 34.85 36.41 36.95 35.94 35.17 34.81 34.42 34.45
47.66 47.24 47.16 47.49 47.02 47.10 40.73 42.08 40.56 39.50 38.83 37.03 34.42 34.75 36.63 37.31 40.12 41.33 43.54 42.12 41.03 39.87 42.05 44.87 45.41 44.92 43.80 42.14 39.70 38.60 38.09 34.69 30.79 29.97 32.27 32.71 28.36 34.50 36.30 36.22 36.86 37.32 32.62 37.33
47.39 47.37 47.18 46.89 46.93 46.75 43.88 43.04 40.30 37.87 32.81 37.00 35.76 36.50 38.67 37.92 39.74 38.34 42.51 43.83 41.08 43.91 48.53 46.44 45.44 43.45 43.00 42.62 41.93 41.86 35.74 33.41 30.01 26.14 27.38 21.49 34.86 37.75 37.84 36.80 36.70 36.57 35.87 36.18
46.93 47.13 47.00 46.11 46.22 46.65 42.36 44.91 41.64 40.48 32.00 37.68 38.37 38.34 37.55 39.54 40.78 39.99 41.03 43.76 45.82 46.45 45.72 40.39 36.85 34.39 35.02 36.42 40.33 40.11 39.08 33.29 28.92 27.04 26.31 30.90 33.88 35.95 35.84 34.94 34.31 37.21 35.65 36.91
46.65 46.72 46.18 45.75 46.49 46.61 42.58 42.33 43.55 42.82 38.63 36.08 40.80 38.67 39.57 36.35 36.93 36.59 39.96 44.69 46.08 46.34 40.60 35.95 32.34 30.37 34.88 33.90 35.62 38.90 37.36 35.10 31.86 25.40 23.50 21.66 33.16 37.93 39.29 38.48 29.66 38.06 38.35 38.05
46.46 46.46 46.07 45.94 46.48 46.90 42.54 42.08 45.62 42.97 38.71 43.19 41.96 38.96 38.23 40.50 38.31 35.75 37.75 41.15 42.95 44.39 31.03 29.53 32.22 32.99 37.31 31.11 32.24 31.09 30.54 29.24 26.86 21.49 22.72 29.41 37.28 38.78 39.48 29.67 31.37 38.53 40.25 39.64
46.12 46.02 45.62 45.69 46.08 46.77 43.32 40.75 44.20 43.02 39.94 41.82 45.30 43.67 40.80 41.21 40.82 34.46 37.97 38.44 40.63 37.07 34.27 34.18 33.91 28.12 33.82 32.77 35.37 34.49 33.86 29.61 25.35 24.72 21.98 27.33 38.80 37.89 34.24 36.84 37.41 39.11 39.42 39.42
45.60 45.58 45.48 45.60 45.79 46.15 44.96 39.75 43.79 44.40 42.70 42.31 45.30 44.72 45.13 43.64 44.43 41.86 40.71 39.82 40.78 41.62 38.71 34.49 31.75 29.35 26.87 32.32 30.54 36.64 32.97 36.08 32.90 33.99 33.58 39.01 39.10 37.82 39.12 39.59 39.38 39.47 40.31 39.27
45.10 45.18 45.13 45.39 45.79 46.24 44.53 41.53 42.20 42.84 41.86 40.18 42.35 39.92 46.07 47.05 46.26 47.99 40.77 42.24 46.28 43.46 44.01 38.85 37.04 32.53 33.75 30.46 31.92 33.97 36.36 38.58 34.92 35.23 38.13 38.98 40.73 40.74 40.64 41.13 40.58 41.58 40.30 38.92
44.41 44.61 44.91 45.43 45.64 45.98 45.01 41.63 44.88 44.06 40.42 34.99 36.89 48.09 46.37 50.72 48.66 47.89 48.00 46.08 48.37 46.66 44.82 38.56 34.93 33.83 39.19 32.61 36.69 35.72 37.16 38.63 36.25 35.12 38.37 38.69 40.14 38.60 38.71 38.40 39.19 38.26 37.89 37.46
44.83 44.85 45.37 45.96 46.25 46.37 45.07 43.98 46.12 47.23 41.66 35.91 37.72 41.87 46.13 49.95 51.49 49.96 50.09 49.11 46.12 42.52 38.85 32.68 35.56 39.24 37.97 35.74 36.83 32.20 39.13 37.54 35.32 35.34 39.73 39.04 39.18 37.94 38.44 38.17 36.66 37.07 35.64 34.47
44.94 45.06 45.30 45.69 45.85 45.71 43.30 38.09 44.92 47.41 45.21 39.39 32.50 43.61 44.22 50.78 51.21 49.80 48.55 49.13 45.67 43.72 40.18 37.03 41.56 43.94 40.77 35.59 33.44 39.89 40.93 41.00 41.25 41.00 42.20 38.20 37.67 36.85 37.16 35.80 35.43 35.83 34.86 34.46
44.83 45.25 45.57 45.83 45.64 43.07 38.69 37.46 40.52 46.07 46.73 39.90 33.68 32.90 42.84 50.45 49.66 45.96 46.00 45.85 44.10 43.83 40.73 36.17 40.90 41.97 41.39 31.72 33.03 40.16 41.30 41.09 40.84 39.71 38.90 35.57 36.69 34.80 35.44 34.82 34.58 34.90 33.53 33.57
45.11 45.32 45.42 45.58 45.76 44.24 40.85 42.51 46.60 45.58 42.11 39.81 33.80 34.82 38.78 48.52 43.68 42.28 46.65 40.32 41.20 41.04 39.14 35.30 36.03 38.57 33.75 33.27 37.46 39.31 38.90 39.24 39.07 37.80 38.18 38.22 35.81 34.75 33.49 33.58 33.46 31.89 30.89 30.98
45.23 45.25 45.30 44.19 42.64 38.81 37.98 47.03 46.42 47.10 41.79 35.46 33.44 33.26 34.10 44.88 41.53 41.53 40.31 39.99 33.79 40.47 33.79 35.99 39.80 33.44 35.42 36.91 37.38 37.82 38.23 38.54 35.96 34.95 35.06 35.07 33.60 32.29 32.40 32.41 31.68 30.48 30.10 30.15
45.32 43.63 40.39 35.07 39.94 46.67 47.82 45.35 41.24 40.53 41.20 40.94 35.88 39.21 35.78 41.09 34.54 35.45 36.16 35.99 34.89 34.16 35.52 39.91 34.16 34.91 34.92 35.50 36.98 38.11 36.38 36.07 35.44 32.55 31.03 31.91 31.79 31.72 31.38 31.30 31.57 31.30 31.44 31.21
43.46 38.84 34.73 41.69 46.96 43.71 38.85 32.35 34.50 35.32 33.24 36.23 36.20 37.45 36.26 41.98 34.69 33.24 34.87 33.24 32.90 32.44 33.66 35.56 33.57 34.63 34.24 36.78 37.05 37.52 37.37 37.07 36.61 36.14 35.43 35.07 33.48 31.63 30.63 30.72 31.85 31.42 31.36 30.38
43.22 43.22 46.45 45.45 42.03 36.92 33.24 31.57 31.58 32.43 32.38 34.28 34.68 36.46 39.58 37.06 41.39 35.25 33.83 31.78 32.29 31.87 35.97 33.38 31.60 33.23 35.43 36.73 36.69 37.15 37.88 37.28 36.25 36.51 35.07 34.50 34.03 33.40 32.64 30.82 30.32 29.88 28.91 27.07
44.94 41.10 34.77 37.27 32.31 31.12 29.70 27.99 30.08 30.86 32.14 33.95 34.00 33.44 34.66 35.73 37.63 32.35 31.97 30.95 30.26 33.62 32.14 31.33 30.47 33.95 36.56 37.00 36.89 36.26 37.22 36.63 36.15 35.82 35.81 35.17 33.24 32.23 30.66 29.10 28.99 28.17 27.05 26.24
35.56 32.80 28.15 29.48 27.68 28.21 28.77 30.15 31.40 31.81 31.79 32.53 33.44 32.90 33.39 32.53 32.41 31.18 31.13 31.60 32.20 27.25 25.48 23.87 30.68 34.04 35.32 36.39 36.63 35.87 35.26 34.85 34.34 32.90 31.91 30.92 30.18 29.21 29.28 28.61 27.98 26.65 25.29 24.11
31.91 31.67 27.10 28.20 31.05 31.60 31.60 31.97 32.49 32.43 33.54 32.90 33.60 33.54 34.64 32.08 31.00 31.54 30.60 29.14 25.96 26.06 25.20 29.73 32.11 33.92 34.56 34.04 33.97 33.07 32.10 31.67 30.94 30.90 29.09 28.31 28.38 27.75 26.88 26.82 26.32 25.04 23.65 22.28
31.64 30.25 27.97 30.02 29.41 28.76 29.89 30.16 30.97 33.88 32.41 33.20 32.85 30.51 31.11 30.26 30.45 28.93 26.93 26.51 23.44 26.57 29.50 31.73 32.76 32.43 32.36 32.12 32.36 32.34 31.97 31.13 30.15 29.33 28.64 28.17 27.27 26.28 25.02 23.98 23.00 22.21 21.45 19.68
28.62 27.99 28.54 28.95 29.34 27.29 28.57 29.49 29.77 33.03 32.88 30.84 31.74 26.27 24.32 30.01 26.60 24.30 25.94 23.47 26.90 29.27 31.12 31.75 32.05 31.56 31.18 31.68 31.27 30.87 30.69 30.15 29.98 29.59 28.97 27.24 26.55 25.31 23.65 21.39 21.94 22.60 21.27 20.22

GFSNW_sfc_wetblb_051.txt.gz
Wetbulb
49.16 49.28 49.34 48.76 49.31 49.54 47.59 41.70 32.61 43.96 48.92 37.79 38.96 35.40 39.53 42.41 42.85 46.35 44.86 45.38 43.59 42.68 40.93 38.38 38.61 38.97 42.54 43.66 44.19 41.32 44.53 41.13 35.81 39.83 43.37 45.00 43.94 42.48 41.51 37.07 34.05 34.45 33.63 35.31
48.98 49.03 49.05 48.60 49.03 49.23 44.49 36.99 37.64 45.57 45.79 31.86 33.94 38.50 38.91 41.84 41.98 42.69 43.47 42.94 44.49 45.54 42.23 37.62 39.85 40.53 44.91 43.72 43.71 43.10 43.67 38.33 34.28 36.15 40.02 43.34 41.91 41.80 40.85 38.98 37.34 33.62 33.60 36.71
49.10 49.17 48.84 48.34 48.58 48.87 44.94 38.49 31.80 39.75 41.06 40.28 36.08 35.70 36.23 37.22 42.74 42.20 44.46 43.61 45.05 43.89 41.53 42.63 40.59 40.41 44.22 44.30 44.81 44.49 45.59 39.33 37.89 34.24 37.52 40.77 38.73 40.26 40.75 40.93 35.65 36.50 36.09 39.20
48.84 49.08 48.72 48.31 48.33 48.58 44.34 39.00 34.36 39.09 32.24 33.86 35.28 37.71 37.07 35.89 36.57 41.87 43.77 41.55 42.19 42.10 38.55 40.29 38.83 42.84 44.44 45.24 45.25 44.90 45.45 38.61 38.47 38.54 39.19 40.40 40.83 40.66 39.71 39.31 40.23 37.73 40.08 37.78
48.80 49.11 48.41 47.78 48.11 48.28 41.39 35.73 35.34 38.32 38.13 36.77 34.83 36.29 35.68 35.67 37.64 39.28 38.88 39.84 41.90 42.57 40.24 41.67 40.00 42.42 43.29 42.37 43.16 43.11 42.85 39.12 38.49 36.67 38.82 39.34 38.54 39.96 40.27 39.97 39.59 38.98 39.50 38.70
48.39 49.14 47.88 47.75 47.84 47.66 40.59 42.50 40.78 38.41 37.81 35.64 33.15 33.80 36.07 37.41 40.04 40.59 42.70 42.15 41.56 40.51 42.72 45.47 45.85 46.05 45.98 45.95 43.81 41.10 40.20 38.02 35.92 34.13 35.84 36.93 33.27 37.99 39.75 40.35 41.24 42.17 37.88 43.05
48.56 48.60 47.72 47.46 47.74 47.26 43.75 42.90 40.72 36.94 32.17 34.87 33.69 34.92 37.48 38.08 39.85 37.99 41.88 43.70 40.86 44.32 49.33 49.21 47.53 45.53 44.17 44.15 43.84 44.85 39.15 37.89 35.39 32.37 31.86 28.87 40.25 41.33 42.04 41.17 41.19 41.87 40.89 42.13
48.42 47.72 47.29 47.35 47.35 46.97 44.44 43.72 40.91 38.81 31.93 36.77 36.33 36.15 35.92 39.55 41.61 40.02 40.86 43.94 46.22 46.90 45.71 40.64 38.12 37.81 38.05 39.23 41.27 41.62 42.24 37.09 32.89 32.47 32.40 35.65 38.04 39.56 40.21 39.59 41.05 42.48 42.08 41.65
47.77 47.08 47.12 47.23 47.49 47.21 44.59 44.10 43.79 42.28 35.53 34.78 40.05 37.60 37.56 36.25 37.28 37.99 40.62 46.01 47.77 46.58 40.64 36.43 32.36 33.03 36.34 36.02 37.51 40.25 37.60 38.38 38.48 30.38 30.79 29.47 39.08 41.88 42.40 42.94 35.93 42.52 42.13 41.16
47.16 46.73 46.71 46.94 47.23 47.48 44.37 43.37 46.38 42.43 37.75 41.33 40.89 38.66 37.50 40.54 39.11 36.99 39.59 41.83 42.42 45.36 35.00 33.64 32.77 33.65 40.23 35.35 33.66 34.44 34.17 33.59 33.55 29.87 33.37 35.41 40.27 41.71 43.27 35.99 39.47 42.65 42.78 42.84
46.84 46.63 46.46 46.63 46.83 46.98 44.25 41.66 45.66 43.15 38.79 40.39 42.49 43.00 40.86 40.79 40.39 35.73 38.92 40.29 40.81 39.02 34.17 34.38 34.64 33.67 37.31 37.02 37.65 36.48 36.16 34.01 32.83 31.90 32.43 32.21 42.04 40.10 39.01 44.44 42.53 43.40 43.62 43.78
46.38 46.41 46.46 46.70 46.55 46.60 44.64 39.00 44.49 44.77 39.74 40.94 45.59 45.30 45.84 44.73 45.32 41.73 41.74 40.07 40.43 41.61 39.10 37.29 36.67 34.99 34.15 37.14 34.73 38.92 35.69 39.13 37.63 38.59 39.03 44.56 42.71 45.37 44.54 44.06 44.67 43.16 44.30 43.16
46.26 46.57 46.42 46.32 46.51 46.09 43.45 40.80 41.87 41.37 35.51 38.56 41.30 40.78 47.48 47.79 46.43 49.11 41.28 42.72 46.12 44.00 46.35 40.95 40.19 35.36 37.03 32.70 34.80 37.74 38.88 41.08 39.57 40.44 42.46 42.22 43.04 44.35 44.64 44.75 44.58 44.14 45.40 42.91
46.06 45.97 45.80 46.15 46.35 46.08 43.71 40.52 41.88 40.91 37.77 33.86 38.04 47.14 44.46 49.67 48.81 47.47 48.47 48.04 49.12 48.51 46.86 40.37 37.41 36.90 41.09 36.56 40.02 39.11 40.80 41.17 38.91 39.08 41.22 42.18 43.65 43.99 44.41 42.86 43.30 42.03 42.63 41.67
45.65 45.43 45.73 45.66 45.50 45.57 43.44 43.09 43.60 43.40 39.13 33.47 36.24 44.25 45.46 47.09 49.07 47.22 48.08 48.07 47.61 45.45 41.55 36.79 39.33 40.29 39.66 37.47 39.05 37.10 41.22 40.04 38.54 38.70 44.39 44.85 45.24 45.63 42.49 41.48 41.15 41.24 39.38 37.94
44.87 45.14 45.28 45.40 45.61 44.40 42.32 37.15 43.66 45.56 42.67 34.98 30.75 42.00 42.80 47.99 49.77 48.29 47.36 47.39 47.39 46.84 43.94 40.70 42.58 44.55 41.90 36.85 36.82 41.99 43.28 43.94 45.42 43.44 44.38 39.93 38.81 39.80 41.17 39.81 39.38 39.15 39.17 37.54
45.06 44.92 45.35 45.23 44.62 42.76 38.85 37.22 42.11 44.82 42.78 38.09 34.17 35.40 42.36 46.65 49.29 47.65 48.25 49.04 47.29 46.54 43.74 40.10 42.67 43.57 43.24 35.69 36.16 42.42 43.09 43.87 42.95 40.98 41.32 38.79 38.92 38.44 38.18 37.55 37.11 37.15 36.23 36.03
44.77 44.84 44.98 44.25 44.81 44.14 41.31 44.25 45.48 44.23 41.19 39.23 32.66 33.64 38.72 47.88 43.18 42.81 46.93 44.18 45.05 43.71 42.86 39.64 41.21 39.80 38.24 37.47 41.35 42.79 41.56 40.68 40.15 40.19 39.50 40.61 37.25 36.36 35.22 35.39 35.27 33.90 33.02 32.77
45.20 45.07 45.26 42.98 40.35 37.05 39.30 45.32 45.64 46.16 41.22 33.19 32.55 32.87 33.59 45.03 41.12 41.01 41.09 42.88 37.78 42.52 36.89 38.84 41.60 35.57 36.33 39.97 40.63 40.90 40.13 40.30 39.53 36.97 36.97 36.52 35.79 34.33 34.11 34.31 34.03 32.48 31.80 31.97
44.75 42.01 38.69 34.44 38.30 45.03 45.69 43.77 39.33 38.55 39.67 39.20 32.63 38.82 36.41 41.90 36.31 35.63 38.14 35.97 35.21 34.89 37.11 39.95 36.36 38.19 38.28 37.49 38.76 40.19 39.09 37.83 37.36 34.39 32.83 33.26 33.15 33.39 33.45 33.71 33.84 33.39 32.12 31.78
40.21 37.45 35.31 39.62 46.01 42.25 37.86 33.58 33.41 34.38 32.45 35.94 35.46 34.95 35.36 41.77 36.40 34.15 35.18 33.64 33.62 33.10 36.55 37.45 35.62 35.64 36.30 37.38 37.74 38.28 38.13 37.78 37.30 37.34 36.38 36.75 35.53 33.55 32.50 32.63 33.13 32.78 32.67 30.85
41.66 42.43 43.52 43.56 39.54 34.89 31.79 31.09 32.19 31.92 31.37 35.19 35.04 36.34 38.96 38.14 41.47 35.72 34.12 32.90 32.88 31.92 36.69 34.50 32.72 33.92 36.03 37.20 36.85 37.22 37.96 37.50 36.69 36.97 35.49 35.12 34.47 34.34 33.78 33.05 32.68 32.19 29.73 28.16
43.86 40.36 35.09 37.04 33.07 29.76 29.51 26.57 29.69 30.67 32.33 33.91 34.35 33.26 34.98 36.19 36.79 32.54 32.91 31.80 31.60 32.78 32.17 30.02 29.41 34.30 36.18 36.87 37.16 36.73 37.13 36.40 35.65 34.83 34.86 34.42 33.18 33.33 32.31 30.20 29.61 28.98 28.07 28.20
33.04 32.33 27.91 29.28 26.99 27.91 28.67 29.72 31.24 31.60 31.98 32.33 33.43 32.72 33.58 32.88 32.31 31.99 31.62 31.80 32.13 29.35 25.81 25.44 31.09 32.13 33.94 35.71 36.06 35.52 34.38 33.88 33.46 32.23 31.57 30.66 30.13 29.52 29.45 29.07 29.21 27.69 26.07 26.03
31.41 31.05 26.09 27.38 30.83 30.56 31.36 31.80 31.80 31.78 32.85 32.88 32.87 33.23 34.99 32.17 31.22 32.17 32.18 30.00 26.16 26.58 25.56 28.66 31.38 32.48 33.31 33.13 32.99 32.11 31.34 31.05 30.86 31.05 29.64 28.75 28.49 27.91 27.82 28.42 27.71 26.11 24.95 24.03
30.66 26.54 23.75 27.09 26.31 24.49 26.55 26.76 28.06 32.33 31.45 33.04 33.77 32.24 31.47 30.08 30.57 27.37 24.19 25.82 20.81 23.84 27.62 30.85 32.09 31.71 31.69 31.66 31.42 31.21 30.78 29.76 29.53 29.29 28.83 28.25 27.40 26.07 25.43 25.90 25.27 24.69 24.07 22.65
28.38 24.94 25.50 24.61 24.63 23.19 24.45 26.27 27.21 32.01 32.72 28.97 29.67 22.02 21.91 28.07 23.26 20.00 22.22 18.92 21.46 24.19 27.34 31.42 31.74 30.97 30.73 30.84 30.61 30.28 30.03 29.35 28.90 28.03 27.48 26.48 26.13 25.73 24.79 22.77 23.38 23.64 22.34 21.92

GFSNW_sfc_wetblb_054.txt.gz
Wetbulb
49.82 49.86 49.91 49.62 49.51 49.23 48.38 41.85 33.70 48.48 50.06 35.65 36.97 35.79 41.30 43.12 44.56 48.90 47.11 47.21 46.09 44.61 43.63 42.20 42.36 42.54 45.11 48.71 49.34 45.02 48.28 45.56 40.96 43.27 47.43 48.97 49.26 46.48 46.12 40.35 38.15 41.14 40.19 40.04
48.88 49.59 49.67 49.68 49.31 49.10 46.62 37.80 38.36 47.33 47.70 30.65 31.30 38.57 39.85 43.01 43.13 45.55 45.52 45.15 47.09 47.69 44.47 40.65 43.79 44.71 49.07 48.66 48.18 46.87 48.12 43.79 38.78 40.06 43.75 46.81 45.30 46.80 46.80 46.16 44.26 40.05 38.30 40.39
48.00 48.64 49.48 49.47 49.16 49.29 46.84 37.59 32.67 39.01 41.66 42.21 35.79 35.39 37.74 38.04 44.38 44.12 46.78 46.07 47.75 45.58 43.46 44.96 42.65 43.39 46.21 48.11 48.91 46.95 48.71 45.50 41.99 38.00 40.96 44.76 42.67 44.51 45.99 44.98 40.69 40.52 41.22 42.59
47.62 48.17 48.90 49.54 49.08 48.93 45.16 38.48 36.40 38.39 31.53 35.55 37.91 38.38 38.40 37.15 38.26 44.57 46.29 44.79 45.20 44.45 41.15 41.60 41.72 43.74 45.42 46.63 46.14 47.92 48.77 42.63 44.34 44.32 44.61 44.47 43.71 43.53 44.59 43.28 44.15 41.01 43.15 43.67
47.27 47.79 48.29 48.85 48.85 48.71 42.40 34.85 38.02 41.53 38.53 38.81 37.49 38.04 36.75 37.56 39.76 41.37 41.86 42.31 44.50 45.66 42.99 43.17 41.31 43.83 44.89 45.24 47.19 46.95 48.59 42.89 44.78 42.14 44.62 43.92 42.17 44.10 44.64 44.93 44.97 44.99 45.17 44.76
47.38 47.55 47.73 47.98 48.54 47.61 41.80 43.42 44.79 42.70 38.16 37.19 35.44 36.98 36.97 38.23 41.58 43.07 44.28 44.70 43.55 42.76 44.75 47.07 47.34 47.84 47.75 47.51 46.62 46.10 45.59 44.22 42.10 38.09 42.99 42.56 36.72 42.70 44.35 45.26 46.99 46.53 42.99 47.33
47.41 47.31 47.36 47.42 48.21 47.44 46.45 43.63 43.58 39.22 35.11 36.81 35.61 36.93 38.59 38.62 40.87 40.50 43.70 45.42 43.90 46.30 50.22 49.96 49.01 47.32 47.12 48.03 48.15 49.48 45.22 44.41 43.57 38.72 36.90 32.56 43.92 47.54 48.05 46.36 47.41 48.70 48.31 48.87
47.03 47.15 47.10 47.82 47.75 47.67 46.59 46.12 43.98 40.81 35.94 38.32 37.78 37.50 37.74 40.08 41.83 42.16 42.73 45.70 47.49 50.19 46.20 40.94 37.58 39.64 39.28 43.11 46.68 47.42 48.58 45.47 40.39 38.34 37.24 41.60 41.56 43.70 44.92 44.67 45.23 49.65 48.68 49.51
46.77 46.76 46.81 47.85 47.61 47.73 46.41 47.28 48.35 44.57 38.94 36.92 40.32 37.89 39.44 37.80 39.16 41.28 43.09 48.14 50.87 49.63 44.18 41.50 35.08 32.08 35.99 37.41 41.12 44.05 44.85 45.41 43.86 37.42 35.79 34.39 43.65 48.39 49.95 48.49 41.60 49.85 49.59 48.78
46.56 46.87 47.32 47.52 47.34 47.67 45.93 45.74 50.34 46.16 38.90 41.80 42.75 38.58 38.62 42.04 42.04 41.31 43.28 44.82 45.21 49.11 42.84 38.60 36.60 35.54 41.54 35.37 36.97 37.58 38.77 39.61 39.02 39.35 38.57 42.37 47.35 48.03 48.69 39.84 43.73 50.43 50.61 50.06
46.75 46.54 47.47 46.91 47.16 46.77 45.47 45.73 50.16 47.21 41.52 42.97 43.93 44.96 42.00 42.45 43.20 40.10 43.79 43.07 43.96 43.42 39.93 39.70 39.60 39.04 40.31 41.01 42.89 41.16 39.97 39.25 38.13 40.21 38.01 36.11 47.36 45.68 43.96 49.98 51.55 51.59 50.92 51.13
46.81 47.31 46.93 46.85 47.27 46.56 46.29 41.32 48.10 49.30 44.51 41.69 44.99 45.99 46.62 46.21 47.93 45.69 46.13 43.29 43.14 45.16 42.02 42.76 42.60 40.83 40.80 41.21 36.88 44.81 39.81 43.93 42.79 42.63 43.92 50.60 49.07 50.79 51.54 52.84 52.19 50.41 51.50 51.22
47.04 46.97 46.90 47.06 47.05 46.64 46.32 42.99 44.98 45.46 42.37 41.76 41.83 39.86 46.03 49.20 49.61 52.39 43.92 47.42 47.25 46.41 49.68 46.24 45.49 41.20 44.39 39.88 40.71 42.22 43.70 44.55 42.72 43.32 47.97 48.42 49.83 51.24 50.59 50.80 51.23 50.80 51.79 51.27
46.53 46.41 46.55 47.18 47.03 45.90 45.18 43.54 45.58 45.21 42.25 35.38 37.17 46.75 42.91 47.29 49.03 50.60 51.17 49.71 51.43 51.33 49.92 47.01 43.70 42.36 46.00 43.48 44.56 43.36 46.10 44.73 44.17 45.28 47.99 48.36 48.98 51.00 51.94 49.92 49.72 49.20 50.54 50.06
46.44 46.57 46.76 46.90 45.93 45.68 45.84 46.09 46.29 47.09 41.70 34.12 37.39 42.96 45.48 46.50 47.11 48.21 50.62 50.07 50.43 50.39 46.74 41.18 42.32 47.29 45.77 45.35 44.59 44.60 46.67 45.45 43.12 43.58 48.99 49.02 51.56 52.30 52.67 50.33 48.47 48.89 48.63 47.31
46.28 46.57 46.26 45.65 45.17 45.22 43.66 37.57 44.97 47.54 46.92 39.84 32.88 43.85 42.96 43.63 44.30 46.98 48.80 49.59 49.02 49.42 47.45 47.43 48.02 48.70 46.48 42.35 41.49 46.82 48.48 49.42 50.02 48.71 48.60 49.29 46.83 46.50 50.63 49.88 49.23 48.66 47.96 47.92
45.28 45.55 45.34 44.78 44.46 45.90 40.46 38.40 43.52 46.01 46.13 38.77 33.95 37.28 42.74 44.75 43.49 48.55 48.10 49.71 48.79 48.15 46.87 46.26 47.15 48.35 47.36 44.01 41.13 47.32 49.28 49.77 49.85 48.62 45.68 45.32 44.11 46.12 45.36 46.43 46.72 45.77 46.73 46.17
45.16 45.38 44.96 44.63 44.73 44.38 42.08 47.36 45.56 46.70 42.48 39.42 32.35 35.87 40.16 46.03 42.36 42.83 48.46 45.83 46.69 47.97 46.76 47.86 45.76 47.24 47.27 41.89 46.28 48.63 49.99 47.83 47.47 46.52 46.09 44.96 43.91 42.94 42.37 43.80 42.60 41.51 41.27 41.16
45.13 44.83 44.73 44.42 43.13 39.62 41.98 45.80 45.07 46.46 41.29 35.22 33.09 34.39 34.57 46.15 42.81 43.14 41.54 45.29 38.74 47.39 43.45 44.44 46.20 43.73 40.61 44.08 46.45 48.45 49.30 47.25 48.66 46.38 44.53 42.59 42.62 42.01 40.15 40.92 40.08 39.69 38.28 38.05
44.01 42.51 39.60 36.02 40.02 45.42 44.50 42.22 38.57 37.66 38.93 40.64 35.61 37.02 34.18 42.11 39.27 37.84 41.16 39.73 36.57 34.57 40.04 46.34 41.98 42.39 47.01 44.39 43.83 44.48 45.24 46.08 44.17 41.55 40.38 40.50 39.49 39.69 39.94 40.31 40.86 40.16 38.19 37.78
43.38 40.24 38.36 43.57 46.07 45.42 41.27 35.54 34.53 36.83 34.04 38.42 37.66 36.41 32.55 38.65 38.17 36.82 40.09 38.30 37.23 34.39 36.54 41.03 39.58 39.49 41.79 41.44 43.38 44.42 44.09 44.63 44.78 44.98 43.58 43.50 43.05 40.94 39.43 38.25 38.02 36.52 35.56 35.86
43.52 43.20 45.68 45.11 41.62 37.28 32.96 32.73 33.30 33.74 32.75 38.56 37.62 38.49 38.15 40.91 45.55 41.55 38.51 36.57 35.10 33.67 36.79 34.75 34.03 32.70 36.06 38.13 39.40 41.51 41.70 42.35 41.69 41.92 41.11 40.73 39.99 39.74 38.67 37.79 36.60 36.28 34.74 31.04
44.47 41.77 38.01 37.98 35.58 30.58 28.42 27.12 30.68 32.39 35.50 37.17 37.43 35.57 40.17 40.82 43.70 36.34 35.48 33.85 33.49 35.25 32.56 28.35 31.47 33.78 33.84 35.60 37.61 37.40 39.30 39.08 37.93 36.12 36.41 36.47 37.08 37.46 36.52 32.27 30.96 30.33 30.12 29.97
35.77 33.30 29.58 30.77 29.10 30.15 31.43 30.68 32.85 33.12 32.94 35.30 38.94 35.30 35.28 35.12 36.39 33.49 33.49 33.12 34.75 32.40 28.92 28.03 30.95 31.87 32.28 33.20 33.35 33.69 32.21 31.99 32.53 32.22 31.68 30.90 30.60 29.99 30.09 30.22 30.17 28.79 27.53 28.78
30.71 30.21 25.07 26.88 29.59 28.75 30.40 31.40 33.83 33.29 33.44 33.85 34.57 33.83 35.11 32.58 32.94 34.21 33.67 31.79 27.52 26.91 25.13 29.19 30.52 32.37 32.73 32.73 32.55 31.71 30.81 30.31 29.62 29.94 29.07 29.00 28.95 28.07 27.84 28.95 29.22 28.49 27.77 27.34
28.97 24.45 22.17 24.82 25.50 24.06 25.87 26.53 27.71 31.54 31.36 32.74 33.64 32.76 32.40 30.08 30.38 27.46 24.70 25.27 20.82 23.66 26.39 28.35 31.89 32.55 31.68 31.08 30.58 30.24 30.40 30.34 29.88 29.80 29.47 29.09 28.31 27.24 27.22 27.51 27.07 26.88 26.69 25.52
27.15 24.19 25.09 23.22 23.51 21.97 23.67 25.62 26.65 31.04 33.12 30.47 29.70 23.80 23.23 30.11 24.41 20.59 22.28 19.16 21.94 24.25 27.20 27.14 31.03 31.08 31.12 31.54 31.00 30.52 30.40 29.84 29.44 28.90 28.57 28.47 29.26 28.78 27.10 24.78 25.28 25.59 25.08 24.62

GFSNW_sfc_wetblb_057.txt.gz
Wetbulb
50.29 50.38 50.38 50.35 50.16 49.76 47.92 43.45 34.92 48.35 51.79 35.90 38.37 34.59 40.26 42.51 44.70 46.06 45.48 47.44 47.09 43.74 46.05 44.81 44.52 43.94 46.23 48.95 49.22 46.44 49.04 46.45 42.41 44.05 48.87 50.15 48.82 47.19 46.98 41.20 40.36 43.21 41.74 42.14
50.05 50.01 50.21 50.15 49.84 49.57 45.74 38.59 39.14 49.74 48.17 31.33 35.11 38.78 39.76 42.15 42.85 43.56 43.64 45.53 47.75 49.04 46.64 43.60 45.72 46.30 49.60 49.78 48.60 47.72 49.13 44.45 39.37 41.62 45.73 48.66 46.19 48.66 48.41 47.86 46.67 41.09 37.81 41.30
47.94 49.95 49.97 49.87 49.64 49.70 46.57 38.55 32.42 39.59 42.46 42.60 38.48 36.94 37.04 38.21 43.84 43.73 44.71 45.51 47.63 46.58 45.74 48.21 45.61 45.95 47.86 50.55 49.36 48.52 50.24 46.08 42.70 39.32 42.64 46.02 43.55 45.70 47.38 46.41 42.08 41.89 42.23 43.70
47.54 47.67 49.75 49.63 49.57 49.49 45.64 38.37 37.38 39.28 32.16 35.46 39.15 39.68 38.57 37.50 37.61 43.74 44.74 42.49 45.35 45.19 43.23 45.02 44.67 46.61 47.25 47.41 47.55 48.37 49.44 42.83 44.71 45.07 46.03 46.03 45.14 44.98 45.52 44.51 45.11 41.81 44.02 44.58
47.39 47.46 47.01 48.44 49.20 49.52 42.92 34.52 38.81 42.07 40.14 39.32 38.60 38.49 37.15 37.70 39.25 41.13 41.17 41.48 44.25 45.88 43.62 45.49 43.83 46.15 45.82 44.31 47.67 47.41 49.67 43.57 45.04 42.84 45.63 45.34 43.18 44.79 45.01 45.39 45.49 45.26 45.56 44.84
47.28 47.40 47.38 47.19 47.47 48.91 41.64 41.42 45.63 42.76 38.71 37.70 36.65 37.88 38.33 38.18 41.06 43.02 44.18 44.24 43.09 44.06 45.70 49.63 49.88 48.99 48.30 47.07 45.47 46.83 47.07 45.34 43.07 39.44 44.60 44.24 40.47 43.95 44.83 45.53 46.90 46.54 43.20 47.48
47.31 47.04 46.85 46.95 46.96 47.96 44.11 44.49 45.50 40.42 35.64 37.75 38.29 39.19 40.04 39.10 40.89 40.70 44.07 45.60 44.14 47.47 51.58 50.67 49.76 48.33 47.05 46.77 46.95 48.38 46.51 45.23 44.47 40.46 39.22 33.85 44.10 48.95 48.40 46.39 47.36 48.52 48.28 49.25
47.29 47.05 46.66 46.53 47.41 47.63 45.23 46.49 45.62 41.87 37.78 39.42 38.19 38.64 39.57 41.17 41.77 41.23 43.12 46.14 48.28 51.53 48.60 41.11 39.08 39.11 38.90 41.31 44.34 45.64 48.21 46.46 42.15 38.88 38.24 42.09 44.36 46.63 46.88 45.76 45.43 49.55 49.13 50.15
47.12 46.81 46.46 46.47 47.13 47.29 45.94 47.79 50.02 44.82 40.00 38.42 41.75 39.42 40.41 38.71 39.51 40.46 43.59 48.25 50.66 49.81 43.70 39.69 34.25 32.43 36.40 34.93 38.99 45.58 46.03 47.61 44.23 40.89 36.08 33.35 43.59 48.42 51.30 50.75 43.01 50.76 50.83 50.37
46.85 46.74 46.46 46.69 46.97 47.22 45.84 46.64 52.43 46.78 40.20 42.49 43.07 39.09 39.61 43.17 41.98 40.23 42.85 45.17 46.55 49.20 41.99 38.16 37.15 35.75 40.31 34.50 34.09 38.07 40.14 41.99 40.50 40.45 38.70 42.37 48.06 49.62 51.77 41.45 43.79 51.78 51.52 51.42
46.48 46.42 46.38 46.70 46.61 47.42 46.23 47.76 51.02 46.03 41.73 43.26 44.71 45.93 43.19 42.78 44.10 40.06 43.56 42.83 44.24 44.31 39.12 39.40 38.91 39.76 40.80 39.22 41.64 41.13 39.50 39.00 39.34 41.46 39.06 36.65 50.24 49.24 45.62 50.56 54.03 53.09 53.30 53.05
46.22 46.27 46.40 46.47 47.07 46.97 47.32 45.41 49.14 50.04 44.99 43.18 48.78 48.22 48.46 47.27 47.87 45.52 46.17 44.47 44.98 45.62 42.48 43.71 43.53 42.46 43.77 41.03 37.43 45.15 40.35 44.68 42.72 44.21 44.36 51.08 51.59 51.48 53.38 54.44 53.58 54.26 54.17 54.28
46.27 46.46 46.60 46.79 47.14 47.21 47.75 47.43 49.54 47.80 43.28 42.74 44.23 44.14 48.44 48.99 50.27 52.03 44.47 47.74 49.08 48.01 50.77 46.03 44.21 40.76 43.76 40.60 40.76 43.11 46.48 48.77 45.57 45.92 49.02 50.39 52.02 53.24 53.64 54.07 54.49 55.22 55.30 54.68
46.30 46.37 46.83 46.94 46.46 46.95 47.21 45.88 49.11 47.64 43.66 37.69 40.33 48.09 46.16 48.45 48.80 47.93 50.77 50.72 52.42 50.92 49.93 47.29 45.38 42.77 45.96 43.80 43.75 42.72 46.19 47.27 45.48 45.96 48.01 49.85 51.32 52.19 52.89 54.13 54.26 53.78 53.54 54.25
46.62 46.13 46.37 46.55 46.73 46.90 46.62 47.43 47.54 48.73 43.17 37.43 39.55 44.58 46.66 47.44 44.35 42.83 47.05 50.44 49.45 47.88 46.28 46.41 42.93 45.77 44.63 45.68 45.88 43.73 45.55 44.90 44.30 43.06 47.88 49.67 50.05 53.26 54.01 54.43 53.90 53.26 52.56 52.56
46.61 46.31 46.68 46.02 45.98 45.81 43.77 37.77 44.35 47.86 47.13 41.01 36.40 45.63 44.57 46.35 46.34 44.13 46.02 47.12 49.20 48.71 46.63 46.67 46.85 47.99 46.25 44.00 41.93 45.96 46.43 48.04 49.51 48.65 51.39 51.77 53.44 52.01 52.22 53.40 54.73 54.19 52.54 52.76
45.98 45.56 45.50 45.60 45.42 46.16 41.49 40.23 45.14 47.07 48.31 41.31 35.09 36.33 44.73 46.19 44.71 44.78 44.95 47.18 48.01 48.81 47.57 46.07 46.46 47.07 46.83 46.00 42.16 45.54 48.13 49.62 50.25 52.02 51.16 48.15 50.00 49.88 50.57 50.94 53.67 51.50 52.38 52.11
45.04 45.19 45.14 45.21 45.23 45.32 44.04 46.91 45.99 47.48 42.86 43.42 34.54 34.28 38.25 44.48 39.05 38.28 47.32 45.89 46.86 46.35 45.89 47.21 45.58 47.96 47.56 41.60 45.80 47.52 48.55 49.33 50.40 51.28 52.14 50.57 48.96 47.94 48.27 48.76 48.88 48.41 48.92 49.39
44.76 44.44 44.60 44.09 43.36 41.12 43.78 45.57 45.50 49.38 44.32 36.01 34.37 32.77 33.41 42.86 40.63 42.11 43.61 45.76 41.15 47.33 44.01 44.56 45.88 44.08 40.59 44.72 46.69 47.71 49.21 49.27 49.94 51.61 51.61 50.18 47.77 48.24 46.79 46.05 45.41 46.18 45.51 46.87
44.37 44.07 40.98 37.82 43.10 45.28 44.57 39.90 38.03 41.44 42.53 40.36 35.29 39.35 33.67 35.57 37.96 39.44 39.44 43.18 40.26 36.96 42.27 47.23 43.13 42.17 45.41 39.25 44.17 48.18 48.15 47.96 49.70 46.64 46.44 46.98 45.94 46.86 45.79 44.83 45.23 45.43 44.36 44.34
45.12 41.96 39.51 44.48 45.49 42.30 40.70 36.69 36.09 36.97 34.95 39.01 38.50 38.76 33.67 38.80 35.85 36.36 40.92 37.56 38.82 34.03 37.28 41.00 40.00 38.77 34.38 36.33 40.18 44.55 46.75 47.30 47.51 48.10 47.42 47.16 47.85 47.83 45.45 44.31 44.14 43.91 42.41 41.42
44.14 44.33 45.57 43.44 40.35 38.28 33.83 33.94 35.59 34.11 33.20 38.71 37.67 37.72 40.58 40.97 42.41 39.39 38.62 35.85 36.57 33.67 37.52 34.58 28.45 32.42 34.02 34.74 35.95 39.22 41.02 43.66 44.69 45.09 44.84 43.89 44.11 45.12 44.57 42.99 41.25 39.94 37.06 32.99
47.76 43.15 39.27 39.52 37.47 30.15 28.44 26.73 29.90 32.98 38.45 37.64 38.87 36.66 42.33 41.67 42.68 36.21 38.73 35.48 33.49 37.19 32.48 29.65 30.62 32.66 33.38 34.45 34.30 35.66 35.31 35.79 36.87 36.68 37.77 36.34 35.06 35.67 34.41 31.82 31.94 32.02 31.20 30.45
36.74 33.67 30.41 31.68 30.53 28.63 28.22 28.77 30.70 33.31 33.49 37.48 40.16 37.84 37.22 36.57 36.03 34.03 34.03 33.13 35.30 33.13 30.60 27.62 29.91 31.48 32.33 34.14 33.78 32.11 30.59 30.81 30.44 30.43 30.22 29.70 29.29 29.07 29.78 29.63 29.41 28.64 27.61 27.92
30.70 30.54 23.57 26.83 29.35 30.41 29.62 31.56 33.08 33.10 33.01 33.64 36.13 34.52 34.86 33.85 34.03 33.31 34.03 32.58 27.54 26.75 25.24 27.40 30.46 33.10 33.13 32.18 32.40 31.68 30.86 30.34 29.99 30.39 29.93 29.67 29.23 28.98 28.94 29.76 29.67 28.78 27.39 26.27
28.98 24.74 22.24 24.64 27.04 26.48 27.56 28.17 29.09 32.47 31.06 32.75 34.22 33.31 32.58 30.73 31.68 28.28 25.90 25.79 20.58 22.87 26.82 28.58 30.89 31.61 31.71 31.09 31.11 31.57 31.77 31.31 30.49 29.89 29.07 28.74 27.93 27.41 27.46 27.95 27.94 27.41 26.96 25.91
27.49 24.95 25.36 23.36 23.30 22.39 24.71 26.96 28.41 31.29 31.81 30.34 30.78 26.40 24.88 31.31 24.95 20.89 22.69 20.55 23.06 25.47 25.67 27.31 28.34 28.15 29.65 30.42 30.29 30.82 30.81 30.21 29.82 29.29 29.17 28.70 29.04 28.40 26.60 24.82 25.48 25.61 25.37 25.29

GFSNW_sfc_wetblb_063.txt.gz
Wetbulb
49.80 50.28 50.61 50.83 50.88 50.68 48.67 42.94 33.81 45.52 47.54 35.69 36.28 31.58 34.07 38.55 37.58 40.71 39.00 39.09 37.79 36.60 38.11 37.57 38.35 39.66 43.06 48.02 47.09 42.53 44.38 41.54 36.20 39.88 46.24 47.57 45.21 42.88 41.44 33.85 35.53 37.85 33.20 33.78
49.47 49.74 50.24 50.56 50.48 50.60 46.26 38.68 38.23 46.27 44.44 29.59 31.32 34.49 35.49 36.24 36.30 36.86 36.68 36.77 39.29 40.36 37.46 34.81 40.01 43.82 46.75 48.38 46.89 44.08 44.29 39.92 33.00 35.94 41.44 44.62 41.84 42.66 43.75 43.13 41.19 35.89 31.51 34.40
49.19 49.66 49.74 49.98 50.25 50.55 46.98 37.51 31.59 38.73 41.24 37.96 32.08 31.95 31.96 32.77 38.92 37.28 39.49 37.63 38.59 36.48 36.10 39.99 38.63 41.50 46.24 46.58 47.95 47.81 46.70 40.04 37.46 32.70 36.77 42.66 39.44 42.18 43.52 42.46 35.08 36.26 36.40 39.36
48.91 48.32 48.94 49.88 50.01 50.26 46.31 37.17 33.73 36.77 31.85 33.25 33.81 33.53 34.38 31.79 32.61 37.67 38.70 35.96 36.38 35.66 33.49 36.40 37.67 42.23 43.58 45.73 48.02 46.05 45.47 38.25 40.32 41.00 43.08 44.27 43.25 42.53 42.61 41.54 42.34 38.85 40.89 41.08
47.92 48.21 48.32 48.93 49.46 50.31 44.47 31.98 35.68 37.39 34.06 36.96 34.45 34.30 32.35 32.45 35.16 35.93 35.30 34.17 36.67 37.39 35.01 36.74 36.83 42.20 42.45 42.20 45.06 42.95 46.11 37.47 40.16 37.96 42.29 43.07 41.56 43.91 42.33 42.74 42.52 43.52 43.07 42.33
47.62 47.82 47.66 47.87 48.25 47.97 43.85 41.93 40.02 37.79 35.29 35.20 33.46 32.37 32.65 34.44 36.60 37.99 38.48 38.01 35.75 35.00 37.55 42.05 45.23 46.93 46.27 45.69 43.28 40.76 41.84 38.95 37.43 33.57 40.68 40.82 33.95 39.77 42.15 43.54 44.88 42.91 39.62 44.49
46.83 46.95 46.99 47.14 47.74 47.55 45.83 42.63 40.76 35.98 32.43 33.06 33.34 34.94 35.43 34.95 36.63 35.04 38.35 40.10 36.72 39.93 48.18 48.76 47.53 45.06 44.55 44.57 44.76 45.49 41.01 39.90 37.59 31.19 35.09 28.59 39.53 45.45 45.32 44.11 44.94 45.18 44.63 44.69
46.79 46.79 46.76 46.85 47.07 47.76 44.79 43.15 41.26 37.20 32.77 34.79 34.76 35.32 35.27 36.86 38.13 36.89 38.26 40.72 42.59 43.03 40.18 38.04 36.60 36.28 36.99 39.06 43.12 42.84 42.77 41.33 33.86 31.79 32.63 36.73 40.86 43.48 43.65 42.45 41.64 45.50 43.86 44.61
47.33 47.28 46.93 46.84 46.88 47.60 45.06 43.87 44.50 41.36 34.97 34.57 37.91 36.22 36.93 33.56 33.62 34.96 37.83 42.87 43.55 42.06 37.38 34.62 30.72 28.76 34.65 34.25 37.28 42.81 42.30 41.58 34.76 32.20 28.53 28.00 37.73 45.32 48.81 47.21 36.69 46.42 46.35 45.85
47.13 47.31 47.13 47.19 46.92 47.46 45.40 42.23 44.70 42.47 35.86 39.16 40.38 35.57 35.58 39.75 37.57 35.17 37.44 38.50 38.36 43.18 32.70 29.13 27.57 30.47 37.04 31.60 31.31 32.09 33.53 34.76 32.98 32.90 31.85 34.36 43.92 47.22 48.94 36.51 36.48 47.76 47.38 46.90
47.13 47.18 47.06 47.17 47.15 47.22 45.59 41.90 44.58 42.45 37.60 39.20 42.13 43.19 39.78 39.94 39.54 34.37 36.93 37.03 38.17 35.88 30.25 31.55 29.37 28.28 33.95 33.33 36.66 35.95 34.17 32.13 31.71 34.06 29.91 28.91 46.47 46.40 40.93 43.83 47.21 48.28 47.51 47.08
46.69 46.94 46.95 46.97 47.27 47.13 46.50 40.52 44.16 46.00 41.66 42.23 45.58 44.73 45.96 45.37 45.38 41.64 40.21 37.65 37.58 38.90 34.67 34.11 33.97 28.61 31.10 32.15 28.97 40.14 32.33 36.41 34.33 36.21 35.23 44.99 47.67 46.42 48.66 49.76 49.05 49.21 48.54 49.74
45.97 46.46 46.65 47.08 46.99 47.38 45.60 42.34 42.38 42.28 38.96 40.54 41.12 41.55 46.88 49.97 48.69 47.73 38.47 38.59 43.01 41.66 43.30 39.05 38.23 31.35 35.00 27.01 30.60 35.36 40.20 43.61 39.21 39.24 42.13 44.29 46.37 49.26 49.85 49.21 49.38 50.31 51.25 49.91
45.97 46.59 46.69 46.78 47.03 47.12 45.46 42.47 44.05 41.80 40.23 34.75 37.52 47.95 45.29 48.80 48.83 46.70 45.15 43.21 43.96 45.01 42.85 39.33 37.62 34.06 39.53 32.43 37.30 35.74 39.59 42.96 41.19 39.81 43.70 45.97 46.37 47.73 49.18 48.12 49.42 50.54 50.90 49.76
46.27 46.57 46.41 46.89 47.25 46.30 45.53 45.31 45.23 46.14 40.64 33.88 37.84 44.96 46.51 47.19 46.36 44.57 44.22 42.87 41.18 40.58 37.98 36.22 35.30 39.00 38.14 37.93 38.17 35.05 40.39 37.89 37.04 36.63 44.03 44.32 45.19 47.77 50.28 49.28 49.61 50.38 49.29 49.48
45.83 45.79 46.20 46.53 46.41 45.87 43.64 39.49 44.70 47.93 47.37 39.83 32.48 42.31 42.86 43.46 44.11 42.53 42.51 42.44 41.23 41.72 40.86 38.55 41.64 43.33 39.29 31.41 30.86 39.68 42.23 43.03 42.87 40.84 43.87 44.45 45.81 48.50 49.67 48.72 48.63 48.75 48.47 48.72
45.69 46.08 46.38 46.15 46.25 45.03 40.19 37.30 42.18 47.33 47.24 38.95 31.75 32.52 40.76 43.55 42.14 39.76 39.76 42.06 41.12 41.29 39.55 40.21 39.00 38.98 40.69 32.18 30.03 40.74 43.88 44.56 44.17 46.37 46.54 42.82 43.28 45.12 47.40 47.41 46.86 47.40 48.06 48.00
45.78 45.76 45.87 45.73 46.04 45.74 41.71 44.48 46.57 46.17 41.25 40.06 29.89 30.31 35.08 42.14 36.79 34.64 39.29 37.16 39.56 40.21 38.56 39.91 39.02 39.70 39.40 34.14 37.55 39.13 41.02 43.29 44.95 45.41 47.07 46.37 47.43 46.80 46.28 45.70 45.03 44.02 44.08 45.20
45.93 45.92 45.81 44.56 43.25 39.59 40.55 46.66 47.17 47.12 41.98 32.85 27.72 26.44 29.13 38.14 37.57 36.31 36.35 38.91 29.03 39.27 34.55 36.01 40.64 36.40 31.58 32.64 33.67 35.76 37.67 38.94 40.05 43.83 45.41 45.31 44.57 45.03 45.40 44.05 43.15 41.94 41.50 42.76
46.20 44.66 40.27 33.91 40.77 45.29 45.07 41.96 38.34 37.46 37.94 36.41 28.37 33.98 27.03 34.73 33.99 30.31 30.94 31.93 29.34 27.95 35.20 40.29 34.95 30.99 34.04 33.16 34.45 35.35 37.01 38.35 40.74 39.80 39.37 41.10 41.27 42.67 43.07 42.10 41.77 41.26 39.67 37.14
43.37 38.82 36.38 40.74 44.75 42.41 38.57 30.70 30.28 32.26 28.12 33.31 32.66 33.34 31.62 36.69 31.72 32.18 34.93 31.83 28.52 24.39 30.65 32.76 32.21 25.09 29.18 32.38 33.37 33.89 34.84 36.62 37.57 38.84 37.72 37.35 36.73 37.35 36.42 34.66 34.48 33.69 32.58 30.04
42.26 41.50 43.01 42.30 38.97 36.07 30.25 26.58 30.28 27.68 27.32 31.70 29.91 33.70 36.21 34.52 36.59 31.95 34.59 32.09 30.18 25.73 33.92 32.31 23.93 26.79 30.18 30.84 30.34 30.93 31.80 32.55 32.56 33.95 33.56 33.54 33.66 33.34 32.00 30.61 28.90 28.04 27.35 26.68
44.44 40.78 36.08 35.42 31.48 25.81 20.20 21.14 23.75 28.59 30.47 31.93 33.96 32.31 33.07 34.97 35.18 31.62 32.16 28.34 30.14 34.83 27.75 21.68 22.73 27.86 29.66 30.43 30.14 29.54 30.05 29.79 29.32 29.09 29.52 29.01 28.14 28.21 27.87 26.40 26.37 26.11 25.29 25.49
33.13 31.32 22.72 25.17 23.57 24.58 23.72 24.80 26.55 30.07 30.82 30.13 31.21 33.10 32.87 32.19 30.68 31.81 31.03 31.25 31.00 26.13 20.53 16.95 22.48 26.93 28.38 29.71 29.76 27.96 27.34 27.66 27.27 26.76 26.74 26.04 25.58 24.91 25.27 25.15 25.52 24.63 23.66 23.94
23.65 23.32 19.44 19.31 26.38 24.45 26.52 27.94 29.17 30.07 30.68 29.70 31.29 32.90 33.71 31.60 30.80 30.43 29.68 24.89 17.92 19.11 15.23 20.78 24.17 26.75 27.94 27.33 27.72 26.86 26.30 25.72 25.12 25.31 24.73 24.43 24.52 23.75 23.45 24.58 24.55 24.09 23.58 23.04
23.52 21.61 18.58 18.96 15.83 15.88 18.73 23.43 25.64 29.03 29.16 29.71 31.60 30.91 28.70 25.77 24.82 21.60 19.98 17.82 14.28 16.09 20.02 22.49 24.03 24.41 25.74 26.33 26.65 26.51 26.47 25.88 25.48 25.29 24.87 24.46 23.53 22.94 23.13 23.89 23.68 23.41 23.12 22.06
24.71 22.47 24.49 21.53 17.64 20.24 22.94 26.23 22.87 29.93 28.65 27.31 26.06 19.02 20.60 25.83 17.18 15.50 19.97 15.06 17.13 19.18 20.01 22.73 22.44 22.07 23.40 24.05 23.95 24.21 25.13 25.52 25.86 25.43 24.95 24.35 24.82 24.41 23.16 21.68 23.12 23.80 23.50 22.80

GFSNW_sfc_wetblb_066.txt.gz
Wetbulb
49.16 49.50 50.25 50.41 50.78 50.87 49.14 43.55 34.09 43.78 46.92 33.56 34.06 30.27 33.12 38.04 36.51 39.60 37.31 38.19 36.15 34.32 35.82 34.84 35.99 37.35 40.79 46.52 46.42 40.44 42.88 39.43 34.72 38.22 44.26 45.57 43.54 41.41 39.94 32.88 33.29 34.71 31.54 34.58
48.72 49.04 49.40 49.90 50.32 50.52 46.80 38.64 37.80 45.11 43.30 27.47 28.64 32.43 33.38 35.41 34.81 35.81 35.64 35.17 37.04 37.47 34.74 31.28 36.61 38.57 44.96 47.55 45.45 42.81 42.73 37.21 31.35 34.32 39.36 43.21 39.72 41.45 42.66 40.06 37.77 33.21 29.15 33.91
48.53 48.96 49.34 49.54 50.00 50.47 47.31 35.64 31.48 38.36 39.43 35.36 31.09 30.30 31.16 31.37 38.15 35.50 36.40 35.44 37.64 34.72 32.65 35.81 33.23 36.02 42.71 46.36 45.37 46.20 45.43 40.81 36.26 32.05 35.57 39.45 37.53 40.15 42.50 40.95 31.41 33.23 34.04 38.07
48.00 48.65 48.83 49.38 49.60 50.02 47.00 36.38 33.24 36.77 30.54 32.16 33.04 33.01 32.72 31.28 30.85 36.80 37.52 33.84 33.99 33.44 30.48 32.03 32.37 37.95 42.12 45.82 46.26 45.99 43.94 36.77 39.30 39.63 40.98 41.66 41.23 40.67 40.84 38.90 39.22 35.18 38.06 39.34
47.87 48.36 48.84 48.90 49.41 49.84 44.61 31.67 34.75 37.51 32.31 36.11 33.03 33.07 30.67 30.40 32.82 34.03 33.30 32.52 34.73 35.08 32.03 33.15 31.21 35.61 39.08 41.70 44.83 43.24 44.23 37.01 38.36 37.03 40.47 41.58 39.81 41.42 41.28 40.69 40.30 40.10 41.40 40.54
47.88 48.74 48.35 48.93 48.73 48.47 42.88 41.76 39.79 38.39 35.50 32.97 32.91 30.77 31.00 32.69 33.90 35.64 36.73 36.10 34.81 33.57 35.38 37.56 38.73 42.35 44.08 44.10 42.49 41.68 40.57 38.45 36.26 32.89 38.19 39.25 33.52 38.83 40.28 40.81 41.93 42.10 38.06 42.61
48.03 47.91 47.91 47.87 48.08 48.03 45.34 43.60 41.13 36.25 31.46 31.80 32.02 34.08 34.56 33.45 34.76 32.49 36.61 37.78 35.01 38.41 42.53 42.91 44.22 42.65 42.88 43.52 43.63 45.33 39.23 37.42 37.06 30.71 31.99 27.84 38.75 43.99 42.99 41.67 43.07 44.39 44.05 44.93
47.08 46.94 47.19 47.43 47.72 47.20 43.38 44.47 41.84 37.24 31.87 33.21 33.17 33.99 34.57 35.63 36.10 34.98 35.98 38.63 40.63 40.94 37.50 33.35 33.04 31.47 33.26 36.66 41.36 43.53 42.90 38.07 32.17 30.59 29.81 35.33 38.74 41.49 41.44 40.82 39.22 44.31 44.06 44.13
46.27 46.20 46.40 46.85 46.93 47.50 43.89 43.72 45.24 41.48 34.66 33.33 36.23 34.08 35.36 32.57 32.37 33.25 35.75 40.82 42.39 39.58 33.93 29.99 25.18 23.40 31.11 31.61 36.74 42.81 40.70 39.95 33.77 31.67 28.62 26.87 36.02 42.68 46.39 46.09 34.67 44.47 45.93 45.56
46.11 46.23 46.35 46.46 46.79 47.21 45.19 43.34 44.12 39.68 32.81 37.09 37.87 33.27 33.72 37.08 34.61 31.71 34.45 36.11 36.70 39.36 29.64 25.41 25.13 25.85 35.00 28.90 29.80 30.73 32.17 32.20 31.28 31.72 31.33 33.15 41.17 44.93 47.15 36.07 35.98 45.31 47.26 46.67
46.43 46.43 46.64 46.74 46.94 46.96 45.40 42.38 44.27 39.45 32.99 36.54 40.72 40.44 36.74 37.50 36.79 31.49 34.61 34.54 35.52 33.49 28.79 28.12 26.87 25.07 32.05 32.03 35.23 33.67 31.83 31.02 30.50 32.23 30.35 27.01 45.28 45.52 39.81 41.66 44.79 47.50 47.33 46.92
46.59 46.82 46.68 46.89 47.30 47.09 46.64 40.88 44.44 44.45 39.74 38.40 43.87 43.99 43.56 43.42 42.51 39.01 37.52 36.21 36.45 36.64 32.06 30.74 30.05 26.43 26.54 30.44 27.59 37.66 31.93 36.46 33.83 35.37 34.44 43.45 45.89 46.79 47.49 48.18 46.53 47.46 46.91 47.73
46.59 46.78 47.03 47.23 47.30 47.34 46.36 41.77 42.91 42.26 38.12 37.08 39.45 39.49 44.91 48.03 47.01 45.95 36.81 38.21 42.04 41.13 40.47 36.60 34.64 29.69 32.36 29.25 29.48 33.58 36.64 42.02 37.27 37.67 40.98 42.44 44.55 47.97 48.52 49.08 47.67 48.78 49.72 48.20
46.25 46.39 46.52 46.98 47.22 47.27 46.40 41.66 43.50 41.37 38.71 32.69 37.14 46.52 43.62 47.45 47.33 46.79 45.84 44.37 44.82 44.49 42.56 36.03 32.23 30.01 37.10 29.83 34.51 34.46 37.48 40.26 39.21 38.13 41.59 44.16 45.24 45.71 46.86 48.19 48.94 48.99 49.80 47.87
46.08 46.32 46.22 47.12 47.42 47.06 45.24 43.98 43.21 42.73 39.00 33.26 36.68 43.18 45.73 46.67 46.44 45.60 45.57 44.15 43.03 41.43 38.07 34.90 31.88 36.41 36.20 35.89 37.19 34.15 38.94 38.42 36.21 34.29 42.11 42.73 43.80 45.21 48.22 47.19 46.84 47.84 48.42 48.22
45.64 46.61 46.75 47.12 46.70 46.23 43.18 38.21 43.14 43.83 44.19 36.85 32.44 42.83 42.10 43.65 44.46 43.37 43.16 43.12 41.31 41.23 36.31 34.19 39.43 41.89 38.35 33.09 32.29 38.86 40.20 42.09 41.50 39.87 43.80 45.19 45.50 46.27 47.17 46.94 47.39 47.95 47.64 47.51
46.36 46.54 46.50 46.27 45.95 44.05 39.42 36.15 41.63 46.09 43.96 36.76 33.12 34.84 41.60 42.71 41.60 39.47 39.23 41.36 39.55 39.01 37.48 35.07 37.41 38.63 41.04 33.05 30.82 35.97 38.02 39.55 41.94 42.27 44.28 41.88 43.39 42.15 44.59 45.71 45.48 45.80 46.23 46.18
45.24 45.59 45.55 45.66 46.18 45.60 41.85 43.31 46.69 47.23 42.33 38.91 28.71 32.73 37.04 39.18 34.70 33.50 37.75 35.84 37.57 37.25 36.14 37.14 37.91 39.82 38.67 33.97 32.91 34.84 36.50 38.24 39.66 39.35 43.24 43.19 44.30 44.23 43.61 43.84 43.58 42.83 42.46 42.67
45.52 45.44 45.55 44.45 43.07 39.68 41.74 46.52 47.11 46.96 40.46 29.79 24.45 24.19 27.01 37.78 36.05 34.59 34.50 36.27 30.35 36.63 29.05 34.51 37.64 35.10 27.05 29.10 31.38 32.52 34.67 35.21 36.60 39.46 39.80 41.44 41.21 42.05 41.34 41.40 41.39 39.99 37.09 35.79
44.23 43.69 39.20 34.13 40.40 45.91 45.32 41.39 37.60 35.46 36.52 33.90 26.87 31.80 28.24 33.69 34.00 32.28 29.98 26.70 28.13 30.08 32.51 37.71 30.93 27.48 32.13 30.63 32.74 33.18 32.65 34.42 36.69 36.25 34.93 35.74 36.85 37.84 35.73 34.96 34.96 34.23 31.84 30.04
41.76 37.03 35.78 40.51 44.48 41.34 37.19 30.44 30.53 31.17 28.54 31.80 31.51 32.34 28.95 35.28 26.15 30.28 33.42 32.55 29.41 24.53 29.52 28.85 27.29 23.27 26.89 30.97 31.17 31.20 31.48 33.41 33.93 34.93 35.07 35.24 35.01 34.08 33.03 31.17 29.63 28.41 27.75 25.97
40.63 39.10 41.20 40.31 38.06 33.16 29.40 28.92 30.90 27.80 29.23 32.85 29.46 31.15 32.61 32.91 36.33 31.89 33.26 31.69 31.06 26.20 31.58 24.11 16.27 24.10 27.71 28.95 28.60 28.60 29.31 30.38 30.49 31.41 30.51 30.58 30.62 29.76 28.46 27.29 26.01 25.47 24.98 24.19
42.27 37.93 32.61 31.78 27.14 19.90 17.97 20.07 26.11 27.19 29.61 30.20 31.75 32.22 30.49 33.95 35.88 31.83 31.28 29.47 27.56 33.63 22.83 16.92 19.44 25.61 27.12 27.28 27.59 26.91 27.85 27.51 26.85 26.26 26.48 25.95 25.45 26.10 26.01 24.81 25.37 25.29 24.41 24.71
29.37 26.46 18.01 19.56 18.53 20.57 21.61 22.72 24.95 28.70 28.66 28.67 29.36 31.46 32.59 32.05 30.15 31.66 29.44 28.72 27.36 19.85 15.17 13.03 20.52 24.41 25.85 26.57 26.63 24.84 23.74 24.53 24.39 24.02 24.20 23.85 23.61 23.16 23.53 23.76 23.97 22.91 21.51 21.80
21.86 21.61 13.63 15.55 20.77 19.08 24.24 23.42 26.00 29.16 29.45 28.76 30.17 32.07 33.08 29.39 27.65 26.15 25.32 20.85 13.14 15.11 11.61 17.35 21.13 24.60 24.80 24.62 24.89 24.15 23.82 23.32 22.94 23.35 22.64 22.49 22.64 22.19 22.08 23.02 23.37 23.10 22.19 21.31
20.24 20.16 14.24 15.70 11.25 12.20 12.95 13.58 16.74 22.75 27.50 29.37 30.76 27.09 26.30 23.02 21.45 18.32 16.16 13.98 10.63 13.29 18.09 20.49 22.62 22.07 22.05 22.67 24.32 24.54 24.30 23.73 23.52 23.52 23.35 22.97 22.38 21.84 21.76 22.52 22.70 22.41 21.53 20.53
21.10 15.78 13.68 7.80 7.79 12.32 18.07 15.51 22.13 28.10 27.59 23.22 24.82 18.12 18.50 22.26 16.64 15.10 17.55 12.52 15.37 17.86 19.25 20.30 20.16 19.62 20.76 21.99 22.29 22.10 21.52 21.31 22.98 23.94 24.29 23.78 23.92 23.26 21.45 19.58 21.00 21.49 21.03 20.53

GFSNW_sfc_wetblb_069.txt.gz
Wetbulb
47.87 48.18 48.79 49.40 49.60 50.06 48.62 44.06 33.84 44.70 46.74 33.41 31.00 26.67 30.96 37.31 35.47 38.02 36.45 36.31 35.42 33.51 33.75 32.33 33.87 34.93 38.56 44.39 44.52 39.56 40.81 37.15 33.37 36.83 42.15 43.38 41.95 39.50 38.76 31.29 30.94 32.98 30.14 33.57
47.39 47.81 48.09 48.80 49.14 49.59 46.51 38.62 37.60 44.91 43.14 28.58 26.95 30.07 31.45 33.99 34.54 34.55 34.38 33.85 35.43 35.99 32.87 29.30 34.01 36.88 41.89 45.34 43.57 42.23 43.40 35.91 30.73 33.08 37.28 41.12 38.26 39.49 40.73 38.70 35.67 32.83 29.48 32.11
47.25 47.50 47.93 48.47 48.90 49.66 46.80 33.82 31.27 37.38 39.24 34.44 30.40 28.73 28.55 29.90 35.77 34.30 35.54 34.37 35.07 33.67 31.20 33.87 31.32 33.30 39.63 43.80 45.51 46.07 45.02 38.98 35.01 29.75 33.58 37.67 35.89 39.43 40.54 39.63 31.83 31.81 34.05 35.97
46.87 47.42 47.65 48.51 48.88 49.10 46.16 35.44 33.04 35.71 30.52 32.24 32.09 31.52 31.18 28.67 30.12 34.78 36.68 32.91 32.77 31.49 29.05 30.11 29.51 33.28 35.70 42.93 46.12 45.75 43.70 35.48 38.24 38.46 39.81 40.09 39.49 39.27 39.60 38.23 38.14 33.77 37.04 36.09
46.35 47.14 47.74 48.09 48.55 48.81 43.34 31.59 34.20 37.62 33.99 35.99 32.62 32.65 29.53 29.96 31.00 32.80 31.70 31.08 33.67 33.18 29.88 31.36 29.49 32.40 33.74 37.04 42.81 42.68 43.42 36.69 37.05 34.68 39.01 39.13 37.42 39.89 40.04 39.07 39.26 39.07 39.09 37.25
46.55 46.98 47.32 47.59 48.04 48.14 41.21 41.76 40.04 38.39 35.29 33.35 31.81 30.54 31.51 31.54 34.08 35.30 35.94 34.92 33.19 32.15 33.84 36.10 37.38 37.76 37.38 37.31 40.78 39.39 40.15 37.31 35.06 30.08 36.00 36.42 32.30 37.04 38.99 40.26 40.92 40.07 35.86 40.24
46.80 46.87 47.04 47.26 47.84 47.82 44.86 43.37 40.78 35.82 31.49 31.71 31.77 33.85 33.75 32.56 34.04 31.71 35.81 36.53 33.72 37.17 40.33 39.18 40.64 38.42 40.52 41.85 42.05 43.31 37.31 35.75 34.70 31.40 32.81 27.04 37.36 42.34 42.77 40.29 41.82 42.39 41.88 43.18
47.03 46.96 47.08 47.19 47.54 48.43 45.34 43.97 41.84 37.40 32.00 33.94 33.18 34.18 33.88 34.19 34.69 34.31 34.04 36.92 39.43 40.18 36.51 31.54 29.83 29.84 32.66 34.64 39.50 40.55 40.55 35.36 31.32 27.70 29.06 34.11 35.75 40.38 39.30 38.54 39.16 43.29 41.87 43.14
46.78 47.01 47.08 47.62 47.14 48.57 45.65 43.62 44.76 41.22 35.12 33.32 36.27 34.02 35.23 31.69 30.93 32.22 34.66 40.08 41.68 38.39 34.22 29.68 25.49 21.00 27.92 30.29 36.02 43.06 40.40 38.40 32.89 31.17 26.94 24.09 33.38 40.54 43.37 44.07 34.46 43.36 46.08 44.69
46.27 46.92 46.99 46.93 47.21 47.52 45.35 42.01 44.08 39.52 34.18 37.92 38.06 33.13 33.15 36.13 33.82 30.72 34.02 35.70 35.45 37.62 28.86 26.28 24.14 25.00 31.63 27.30 29.25 31.40 32.43 32.31 31.71 30.69 29.67 30.87 38.84 42.14 45.22 34.00 34.30 44.77 46.06 44.08
45.78 45.83 46.09 46.44 46.61 46.87 44.88 42.11 44.22 39.39 34.03 36.24 40.08 40.28 36.72 36.40 35.74 30.21 33.66 34.38 34.01 31.00 27.20 26.88 26.12 22.80 28.96 29.77 32.69 31.42 30.10 29.80 27.47 31.97 29.26 23.55 43.42 43.06 39.25 41.40 44.20 44.72 46.05 45.04
46.22 46.04 45.80 46.02 46.09 46.45 45.76 40.65 44.89 44.44 38.19 37.42 40.74 42.43 44.17 42.38 41.35 38.00 37.19 35.95 35.77 35.39 30.36 28.46 28.18 24.11 24.40 29.05 25.26 36.00 29.40 32.81 29.86 31.84 32.40 40.64 42.31 43.01 45.10 46.35 46.23 46.58 46.74 46.80
46.41 46.53 46.34 46.37 46.27 46.63 45.52 42.35 43.42 41.65 37.10 35.78 36.71 36.84 42.41 46.39 44.47 44.14 35.73 37.23 39.80 37.97 37.65 33.45 32.07 27.63 30.23 23.39 26.48 30.22 33.75 38.68 34.83 35.06 38.38 40.78 42.70 44.74 47.72 48.56 47.55 48.38 48.55 47.57
46.64 46.53 46.48 46.55 46.76 47.01 46.41 42.75 43.69 41.46 38.33 31.74 34.61 42.48 39.95 45.15 46.83 44.61 43.68 42.34 43.15 42.28 39.70 34.38 29.96 27.97 35.15 28.14 32.25 31.01 33.83 36.27 35.56 35.90 39.87 42.08 43.98 45.08 45.57 46.54 47.67 48.04 48.33 48.40
46.18 46.59 46.64 46.85 47.08 47.20 46.50 44.57 44.21 43.46 36.62 30.48 32.85 42.66 43.97 46.43 45.26 44.08 44.28 43.07 40.23 37.94 35.20 34.09 30.81 34.69 36.17 34.16 34.45 31.45 37.44 36.25 33.34 31.23 39.97 39.64 42.57 45.66 45.48 45.47 46.28 46.46 47.09 47.01
45.86 46.43 46.91 46.99 47.03 44.45 41.70 35.29 43.29 44.37 43.58 36.69 30.53 41.63 41.59 43.25 44.30 43.75 42.64 41.27 40.37 39.72 39.03 36.70 38.29 41.78 38.20 28.24 28.85 36.85 37.41 39.13 40.05 38.14 40.28 40.62 44.12 44.25 44.40 44.93 45.57 46.39 46.36 45.69
45.83 46.30 46.78 47.07 45.82 43.15 38.79 35.98 40.73 44.95 43.79 35.42 31.42 34.70 41.41 43.81 42.02 40.57 40.06 40.96 40.86 39.41 37.92 36.25 36.48 38.37 39.81 32.54 30.14 34.36 36.21 37.06 39.12 39.65 40.71 41.02 41.44 41.45 43.26 43.12 43.61 44.48 44.05 42.70
45.33 45.95 46.28 45.78 45.60 45.60 41.91 42.47 44.79 44.75 40.13 37.26 30.67 32.57 36.01 41.02 35.58 35.57 39.40 37.10 38.20 38.32 35.78 35.00 34.10 36.89 36.94 31.54 30.67 33.18 35.03 35.96 38.29 37.44 39.97 40.06 41.99 39.75 39.21 41.28 41.70 39.67 36.21 34.73
45.75 45.56 45.53 44.27 42.17 40.10 41.43 45.45 45.73 46.40 40.47 32.28 29.57 27.73 30.14 36.57 35.26 34.52 33.65 34.97 32.13 35.50 29.46 32.19 34.85 33.28 24.21 26.43 28.65 30.84 31.43 31.97 33.59 36.35 38.56 37.55 38.30 37.46 35.91 35.14 34.10 32.75 30.30 29.43
45.12 43.19 37.73 32.21 41.91 46.43 45.52 41.77 36.94 38.17 35.55 32.99 27.66 28.08 31.00 35.75 34.06 28.75 29.71 27.70 27.72 29.62 32.18 35.50 27.39 25.91 28.97 28.89 30.34 30.45 30.06 31.61 33.87 32.56 33.89 33.95 34.19 34.36 32.27 30.11 30.17 29.05 27.46 27.02
40.31 36.98 33.97 41.33 44.85 41.61 36.92 30.91 29.24 30.81 28.64 30.80 29.82 29.55 27.37 33.35 27.91 31.81 30.33 31.44 26.58 21.27 27.06 29.21 25.30 21.45 25.04 28.28 27.53 28.29 29.62 31.41 31.58 32.27 31.74 31.65 31.50 30.91 29.15 27.43 26.93 26.45 25.91 24.74
39.72 40.22 41.45 39.77 35.30 31.03 29.33 28.19 28.44 29.53 28.83 31.68 27.62 31.81 31.70 33.53 35.93 29.62 32.86 30.93 31.02 26.72 30.51 23.30 16.73 22.12 26.12 26.29 25.88 25.65 26.73 27.66 27.11 27.63 26.98 26.95 26.87 26.84 26.30 25.75 25.12 24.83 24.69 23.90
40.44 34.65 28.84 28.19 23.52 17.22 16.00 17.99 21.20 21.98 29.16 28.35 30.72 32.10 32.33 33.62 35.13 30.11 31.56 28.41 28.24 29.56 19.71 13.96 17.56 23.63 24.71 24.90 24.91 24.13 24.77 24.74 24.57 24.16 24.82 24.49 23.98 24.58 24.07 22.74 23.27 23.30 22.45 22.57
27.04 23.11 13.45 14.54 12.09 17.32 18.90 20.14 21.52 26.60 25.74 26.31 27.84 30.82 32.06 31.98 30.81 31.23 28.41 24.50 25.59 17.62 11.85 10.39 18.08 22.36 23.70 24.34 24.36 22.61 21.66 22.14 21.85 22.00 22.31 22.23 22.13 21.79 22.31 21.63 21.48 20.24 18.70 19.18
21.56 20.09 11.81 14.60 19.01 19.92 21.76 22.16 23.30 26.95 27.80 28.02 29.91 31.44 31.12 26.30 24.20 23.48 19.64 17.59 10.85 12.84 9.44 16.00 19.77 21.79 23.22 23.02 23.32 22.59 22.02 21.60 21.42 22.18 21.61 20.94 21.16 20.38 20.32 21.29 21.44 21.01 20.11 19.40
20.98 18.89 13.80 15.82 11.97 14.06 15.32 15.70 18.41 25.18 26.21 29.87 29.56 27.79 24.36 20.02 19.98 15.65 14.23 12.19 9.14 11.49 15.12 18.52 21.11 20.78 20.80 20.27 21.33 22.10 22.82 23.11 22.76 22.41 22.02 21.38 20.27 19.25 19.43 20.14 19.83 19.40 19.16 18.13
17.47 14.39 14.48 7.18 5.72 8.50 14.42 17.35 20.65 25.58 25.80 23.06 23.73 16.22 16.96 20.84 16.11 13.43 14.73 9.62 12.84 15.81 16.83 17.66 17.34 16.80 17.20 18.80 19.26 19.26 19.23 18.88 19.29 20.56 21.61 21.11 21.39 20.66 19.25 17.30 18.75 19.28 19.21 18.52

GFSNW_sfc_wetblb_072.txt.gz
Wetbulb
46.73 46.99 47.49 47.72 48.20 48.69 47.44 42.93 33.73 44.97 46.51 33.47 33.40 28.36 28.51 35.91 34.22 37.50 35.83 35.82 34.11 32.32 32.42 31.13 32.39 33.86 37.72 42.56 42.83 37.46 39.48 34.97 30.41 35.19 40.99 41.85 39.26 37.65 37.40 31.30 29.57 31.35 29.32 32.54
46.37 46.56 47.18 47.46 47.83 48.42 44.64 38.44 35.67 44.91 43.74 29.17 29.19 31.09 29.88 32.31 32.93 33.62 33.76 32.74 34.26 34.85 31.33 27.71 31.76 35.36 41.17 40.79 41.78 41.35 41.99 34.61 27.52 31.23 36.37 39.61 36.51 38.17 39.07 37.32 34.57 32.73 29.13 31.56
46.35 46.60 46.69 47.17 47.62 48.27 44.86 32.22 30.35 36.49 39.49 35.84 31.61 29.39 27.96 27.87 34.00 33.59 34.43 33.29 34.36 32.90 30.68 32.59 30.34 32.05 37.12 39.03 40.60 45.79 44.60 38.77 35.48 29.17 32.38 37.55 34.23 36.95 38.86 38.03 31.31 30.81 33.42 34.85
45.96 46.18 46.52 46.93 47.25 47.87 44.37 32.22 31.56 35.93 29.44 32.42 32.59 31.92 29.87 26.93 28.65 33.65 34.51 31.11 31.66 30.30 27.18 29.27 28.45 32.66 35.15 37.94 42.20 43.02 42.20 34.77 37.82 38.43 39.64 38.63 38.13 37.69 37.82 35.46 36.61 33.06 33.87 36.14
45.56 45.98 46.48 46.50 46.94 47.33 42.04 30.89 33.25 37.52 31.48 35.64 32.97 32.03 29.38 28.03 28.87 31.35 30.04 29.58 32.56 32.02 28.61 29.69 28.12 31.08 30.32 31.44 37.57 40.20 41.65 33.36 36.05 34.05 38.04 38.06 35.62 38.12 37.91 37.23 37.01 37.14 36.76 36.94
45.72 45.88 46.08 46.41 46.82 46.43 40.65 38.65 39.25 38.42 35.18 33.74 31.82 30.60 30.83 30.16 32.95 33.74 34.92 34.77 33.10 31.04 32.24 34.62 35.25 35.87 35.48 34.83 32.98 31.55 36.84 35.56 32.84 28.66 36.37 35.22 29.46 34.55 36.04 37.55 38.85 38.39 34.92 38.66
45.79 45.90 45.70 46.01 46.25 46.39 43.38 41.11 40.12 35.49 31.01 32.70 32.36 33.27 33.39 32.78 32.77 31.78 35.63 35.54 33.53 37.00 38.92 38.07 37.20 35.19 35.24 35.23 34.99 36.73 35.75 35.50 33.50 28.60 31.26 23.76 33.63 40.81 39.62 37.83 39.45 40.76 40.30 41.28
45.90 45.99 45.99 45.64 46.16 46.74 44.40 43.73 40.51 36.28 31.22 33.95 33.00 33.87 33.02 34.20 35.46 33.76 34.50 36.89 39.07 40.50 36.15 31.14 28.69 28.15 30.72 32.78 35.45 36.52 40.70 35.11 30.04 23.97 27.43 31.03 33.01 37.02 39.36 35.37 35.80 40.23 40.41 42.30
46.11 45.76 45.87 46.16 46.34 47.13 45.13 43.66 45.19 40.58 33.92 32.84 35.84 34.12 34.87 31.64 31.23 31.99 34.19 39.54 40.90 39.35 34.09 30.39 26.65 21.59 26.94 27.36 33.31 37.87 37.48 36.27 30.56 30.76 24.37 21.51 29.96 39.30 43.07 41.68 31.00 41.89 43.01 42.32
45.99 46.29 46.29 46.45 46.82 47.28 45.40 43.61 45.31 39.88 34.85 38.24 37.74 33.91 34.53 36.49 33.98 31.05 33.44 34.98 34.83 37.34 31.03 28.52 26.76 25.90 30.12 24.94 28.97 30.71 32.89 32.27 30.45 30.39 28.31 30.25 36.44 42.19 44.34 30.68 31.07 41.75 44.20 43.30
45.92 46.16 46.08 46.37 46.96 47.07 45.51 42.90 45.59 39.67 34.20 37.75 40.36 39.90 36.83 36.93 35.46 30.70 34.09 34.39 33.85 31.92 27.58 27.75 27.68 24.26 27.51 27.24 31.23 30.65 29.29 28.23 30.02 31.15 28.62 25.47 39.93 42.08 37.61 40.29 41.50 42.70 45.11 44.31
45.72 45.94 46.18 46.28 46.80 46.94 46.30 39.96 44.29 44.26 38.18 37.99 41.54 42.57 43.06 42.42 40.93 37.66 37.43 34.74 33.71 33.36 28.49 27.39 27.82 23.72 23.93 28.23 24.41 33.84 27.05 30.95 29.42 30.78 30.35 37.94 39.77 39.46 43.75 44.58 43.78 43.20 45.13 46.88
46.25 45.90 45.73 45.99 46.46 46.68 45.47 42.05 42.53 41.00 34.89 36.68 37.22 36.82 40.97 45.09 44.27 44.05 36.18 36.57 39.28 35.78 36.72 31.57 30.21 25.89 28.42 23.32 25.84 29.27 32.27 36.70 33.28 32.91 34.25 37.37 39.25 41.23 43.95 45.30 45.01 45.86 47.19 48.00
46.52 46.29 45.88 45.85 46.04 46.30 45.20 41.40 43.39 40.69 37.95 31.60 32.63 41.69 39.26 43.56 44.21 44.41 43.19 41.90 43.79 42.40 40.12 32.82 28.78 27.70 33.52 26.79 30.39 29.35 32.54 34.73 33.32 33.50 36.12 38.78 39.27 40.60 43.91 44.63 46.27 47.42 48.91 48.37
46.57 46.44 46.39 46.15 46.18 46.26 44.06 44.08 43.91 43.55 36.67 30.53 30.34 40.49 40.99 42.41 42.98 43.62 42.97 43.04 41.18 39.33 36.10 31.35 28.56 32.16 33.18 31.90 32.14 29.56 35.81 33.64 31.14 29.61 37.31 37.17 38.49 41.27 42.57 42.79 43.15 45.26 45.99 46.23
46.45 46.45 46.68 46.43 46.27 45.97 42.73 36.18 43.06 43.66 40.67 34.43 29.42 38.98 39.65 41.92 44.65 43.54 41.51 41.64 41.01 40.06 37.75 33.97 36.41 38.52 34.93 25.01 26.96 35.70 37.41 38.03 38.72 37.35 38.02 38.12 39.41 41.61 41.00 41.07 42.88 42.32 40.44 38.11
46.18 46.53 46.55 46.62 45.95 44.06 38.01 35.80 40.45 45.06 44.31 35.70 24.24 32.45 39.46 41.67 42.78 41.70 41.36 42.45 41.09 39.57 36.26 35.94 35.89 35.67 37.68 32.18 30.60 33.53 35.74 36.09 36.35 39.81 38.02 37.39 38.78 39.13 38.74 38.40 40.50 38.38 35.30 33.99
46.13 46.45 46.38 46.53 46.25 44.97 41.62 43.04 45.03 44.74 39.75 37.66 27.65 31.30 35.77 41.75 35.84 35.89 40.01 38.08 38.82 38.05 35.10 33.86 32.92 35.81 35.24 31.39 29.95 32.03 33.21 33.09 35.90 34.78 36.53 38.67 39.21 37.97 34.83 34.98 34.83 32.39 30.80 29.93
46.64 45.61 45.30 44.32 42.66 39.24 40.59 45.29 45.67 45.44 39.20 31.35 31.24 28.22 29.02 38.69 35.46 36.54 35.73 37.19 32.15 36.36 32.34 30.90 35.26 30.95 25.99 26.29 28.04 28.98 29.35 29.50 30.67 33.50 35.36 36.38 35.92 35.29 31.89 30.69 29.59 27.82 26.34 26.85
44.54 42.58 37.33 32.75 41.15 45.34 44.74 39.31 36.88 36.26 37.05 34.08 30.28 31.72 30.91 35.12 32.27 31.44 32.19 30.91 30.20 29.02 32.12 34.14 25.30 24.21 27.03 28.26 27.28 27.60 28.04 29.27 31.68 30.36 31.43 31.13 31.30 31.50 29.18 27.77 27.63 27.02 25.62 24.19
40.76 36.25 33.97 41.80 45.34 40.22 35.35 30.68 31.02 31.74 28.59 31.53 31.74 29.93 30.07 32.56 28.10 30.67 29.95 30.33 26.17 25.78 27.23 29.95 23.98 20.05 24.26 26.70 25.24 26.17 26.92 28.12 28.62 29.42 28.95 28.76 28.54 27.94 26.91 25.82 25.77 25.45 24.88 23.71
40.81 40.57 41.79 38.40 33.89 30.98 29.66 28.10 29.66 28.09 27.10 30.48 31.40 31.72 31.72 33.26 32.95 29.88 31.91 25.65 30.14 24.65 28.52 22.17 14.84 21.06 23.22 24.06 24.31 23.83 24.54 25.35 25.69 26.40 25.76 26.02 25.74 25.44 24.65 23.62 23.08 22.67 22.52 21.91
38.20 32.12 26.68 26.57 21.06 13.61 13.77 16.24 23.07 23.48 26.53 27.43 30.12 30.17 31.75 33.10 34.31 30.34 31.74 28.08 26.05 26.06 17.78 13.93 16.10 21.84 22.96 23.07 23.31 22.81 23.56 24.05 23.54 23.56 24.13 23.30 22.46 23.03 22.52 21.20 21.88 21.70 20.91 20.81
25.41 21.12 10.80 11.62 10.32 15.44 17.48 18.55 18.81 25.83 22.99 22.86 24.57 31.34 31.54 31.59 29.46 27.44 26.58 23.26 23.00 15.82 10.54 9.98 17.07 21.20 22.45 23.21 23.33 22.05 21.43 22.22 21.60 21.44 21.09 20.59 20.44 19.92 20.26 19.80 19.64 18.66 17.25 17.34
19.11 17.79 9.47 11.92 17.38 19.76 20.09 21.52 23.68 24.98 26.33 26.45 29.52 29.99 27.82 23.17 20.08 20.45 20.40 15.32 10.41 12.18 9.52 15.31 18.68 20.11 20.78 20.97 21.89 21.67 21.49 20.98 20.38 20.19 19.40 19.13 18.92 18.13 17.85 18.96 19.29 18.68 17.96 17.58
19.84 17.20 12.58 14.72 14.03 14.44 14.85 16.99 18.50 24.50 23.99 29.31 29.17 25.37 20.96 18.91 19.20 14.69 12.00 11.21 6.84 9.39 12.93 16.20 17.69 17.45 18.59 18.43 19.12 18.99 19.69 20.95 20.40 20.22 20.02 19.61 18.51 17.81 17.69 18.22 17.69 17.26 17.03 15.62
16.69 13.68 14.46 9.20 11.66 9.69 13.14 15.94 18.91 23.34 25.54 21.60 21.67 14.77 15.33 20.40 14.87 10.25 12.04 7.03 10.69 14.70 15.22 16.50 16.69 16.51 17.08 18.31 18.57 18.61 18.43 18.22 18.41 19.47 19.97 19.12 19.47 18.85 17.02 14.59 16.24 17.33 17.05 16.17

GFSNW_sfc_wetblb_075.txt.gz
Wetbulb
45.43 45.73 45.41 45.70 46.30 46.99 45.18 40.69 32.69 45.13 46.68 34.56 33.78 29.43 30.96 35.07 33.21 37.22 36.10 35.97 34.30 32.69 33.31 31.71 32.62 34.24 37.14 39.56 41.99 39.01 41.76 36.72 32.46 35.68 41.57 43.31 42.12 40.54 40.56 34.54 32.63 34.91 34.26 36.19
45.18 45.30 45.27 45.68 46.54 46.24 42.68 36.97 36.40 45.20 44.57 29.48 30.08 32.83 31.17 32.45 32.02 34.18 34.14 33.10 34.75 35.58 32.61 29.78 33.02 34.67 40.63 39.95 38.25 35.99 41.82 37.12 31.29 33.39 38.23 41.70 38.84 39.99 41.17 39.78 37.62 34.56 32.33 35.74
44.98 45.06 44.94 45.43 45.89 46.22 43.33 33.84 29.43 36.27 39.85 37.57 33.57 30.72 29.27 28.14 33.89 33.25 35.52 34.08 35.19 33.65 32.02 34.29 31.70 33.02 37.44 39.63 39.21 42.38 44.35 38.95 35.50 30.76 33.91 38.73 36.72 38.90 40.77 38.79 34.09 35.01 35.70 37.97
44.76 44.79 44.89 45.83 45.75 46.71 42.64 33.30 31.21 35.51 29.51 31.70 33.31 33.76 31.94 28.85 28.25 33.38 35.25 32.37 32.88 31.76 28.51 29.98 30.47 33.42 34.88 37.25 39.89 42.00 42.02 33.94 35.76 36.26 37.40 38.06 37.59 37.74 38.53 37.34 38.00 33.95 37.24 38.33
45.34 45.46 45.44 45.61 45.98 46.57 39.92 31.47 33.04 37.03 34.58 34.81 33.28 33.09 30.67 28.98 30.03 31.78 29.83 30.24 32.75 33.09 29.84 31.19 29.55 32.66 32.56 31.80 36.59 36.31 37.40 34.52 37.44 34.47 38.10 38.03 36.03 38.56 38.55 39.30 39.67 38.82 39.18 38.57
45.48 45.55 45.41 45.62 45.62 45.42 38.43 39.66 38.94 37.85 35.29 33.74 32.57 31.48 31.76 31.08 32.55 33.45 35.06 34.12 32.21 31.11 33.72 36.25 37.24 37.49 37.03 36.29 33.97 32.76 33.70 36.33 34.35 30.18 36.78 36.72 31.05 35.66 38.70 39.18 40.91 40.43 36.87 41.66
46.24 45.66 45.47 45.52 45.73 45.40 40.97 39.67 38.86 33.93 29.23 32.49 32.77 33.73 33.78 32.64 33.24 31.26 34.93 35.78 34.30 37.31 41.10 40.20 39.00 36.77 35.92 35.95 35.57 36.73 32.76 32.22 34.55 30.36 32.15 24.98 35.83 42.11 41.92 39.08 41.11 42.59 42.07 42.68
46.68 46.26 45.62 45.50 45.66 46.14 41.92 42.55 39.23 35.39 29.86 33.91 33.57 33.96 33.15 34.58 35.24 33.86 34.60 37.10 39.26 41.48 37.65 32.68 30.14 30.31 32.42 33.87 34.79 35.02 36.36 33.74 32.39 29.77 29.04 32.93 35.88 38.61 38.17 38.13 38.00 43.06 42.52 44.53
46.13 46.17 46.04 45.40 45.75 46.29 43.56 42.51 43.52 39.48 34.13 31.78 36.17 34.19 34.91 31.80 31.83 32.76 34.58 39.91 41.67 39.66 35.10 31.16 25.72 24.43 28.16 28.33 32.68 36.99 36.49 37.65 33.84 30.27 26.64 24.41 34.36 40.32 44.65 43.17 33.85 43.48 44.65 44.93
46.05 45.98 45.98 45.58 45.45 45.71 43.59 42.28 44.37 40.38 33.66 37.19 38.01 34.18 34.23 36.53 34.25 32.47 34.12 35.31 35.99 38.65 33.13 27.89 26.86 26.00 31.29 26.49 29.45 29.40 30.99 33.37 30.18 29.89 28.03 32.53 39.02 41.94 45.89 32.50 35.64 44.00 44.25 45.62
46.08 45.91 45.47 45.71 45.75 46.04 44.00 41.45 45.33 40.62 34.20 38.08 40.44 40.57 37.92 37.22 35.82 31.79 34.97 34.23 34.44 34.28 30.06 29.56 28.73 27.87 30.52 29.62 32.35 32.94 31.25 29.81 29.59 30.79 28.27 26.20 41.44 42.95 37.94 42.37 45.47 44.51 45.57 46.00
45.99 45.94 45.24 45.55 46.22 46.17 45.78 40.66 45.34 44.94 38.76 37.88 42.36 43.19 43.59 42.54 41.12 37.66 37.75 36.05 34.86 35.52 32.15 31.62 31.93 29.04 29.84 30.60 26.81 35.42 31.25 35.37 34.05 34.70 34.37 40.81 43.40 42.88 44.80 46.41 45.02 45.59 45.69 46.68
45.89 45.92 45.42 45.22 45.69 46.50 45.95 40.90 44.15 41.21 34.52 36.37 37.25 38.31 42.96 45.16 44.68 45.39 36.05 37.59 40.09 37.38 39.05 34.82 33.04 29.13 31.87 28.93 30.40 33.25 35.98 38.35 35.45 35.11 38.76 40.19 41.10 43.06 44.15 44.38 43.91 45.13 46.02 46.69
45.97 45.85 45.40 45.07 45.22 45.19 44.96 41.90 43.41 40.39 37.49 32.51 34.47 41.96 40.32 45.11 44.76 44.99 44.16 42.79 44.10 42.80 41.66 35.78 32.91 31.86 35.30 31.52 33.50 33.00 35.63 37.36 36.07 35.70 38.74 40.12 42.30 42.31 42.45 42.21 44.21 43.96 44.21 46.62
46.09 46.01 45.57 45.47 44.89 45.83 44.34 43.45 43.10 43.76 37.59 30.68 32.74 39.86 41.37 43.10 43.20 42.29 43.75 43.09 41.01 40.28 37.99 35.30 34.08 35.37 36.54 35.30 35.48 34.06 37.77 36.13 34.69 33.69 36.86 36.53 38.37 41.86 41.89 39.80 41.06 41.09 38.53 37.85
46.20 46.13 45.83 45.50 45.30 44.78 41.94 35.09 42.43 44.47 43.57 35.67 29.56 38.91 39.01 40.09 41.14 41.27 41.34 42.05 40.90 40.48 38.24 36.00 37.87 39.72 37.46 32.47 31.15 35.90 37.90 38.19 37.98 36.38 39.41 39.26 40.31 41.86 39.37 37.73 37.67 38.45 35.69 33.71
46.16 46.11 45.87 45.50 45.21 42.68 38.33 35.83 41.14 44.15 43.96 35.01 29.48 32.02 38.77 40.03 41.02 41.86 41.74 43.02 41.68 39.93 38.59 37.01 37.06 37.23 39.16 33.37 29.32 33.62 34.67 34.14 35.13 37.92 37.12 38.30 39.36 38.24 36.94 35.76 35.40 35.66 33.32 31.89
46.18 45.85 45.66 45.34 44.88 44.38 40.83 42.91 44.73 44.27 39.95 37.92 27.65 28.49 34.88 40.94 36.91 35.23 40.60 37.63 38.72 38.24 36.05 36.38 35.75 37.61 36.90 30.65 29.53 31.00 30.40 31.34 34.23 32.22 34.59 35.41 38.30 37.74 34.39 33.18 32.76 31.06 27.86 27.94
46.40 45.99 45.37 43.63 41.42 38.38 40.81 45.45 45.45 45.47 39.45 30.98 29.46 26.50 28.68 39.45 36.34 36.83 34.61 37.67 32.00 37.18 32.53 33.93 36.25 32.92 27.61 25.74 26.28 26.88 27.74 27.58 28.26 31.47 33.40 34.82 34.17 33.51 30.95 30.65 28.93 28.39 26.25 26.86
44.18 41.41 36.90 33.11 40.36 45.49 44.41 39.77 36.59 36.80 37.21 35.43 30.26 32.66 31.05 35.59 34.06 32.92 32.89 33.70 31.94 29.60 32.62 34.72 30.14 23.57 26.07 26.31 26.36 26.40 26.26 27.35 28.54 27.28 28.26 27.99 28.46 29.61 28.11 27.08 27.32 26.62 25.64 24.75
40.65 36.37 35.53 41.87 44.63 39.40 36.33 31.79 30.72 32.47 30.04 30.98 32.03 31.70 30.99 34.98 31.96 31.28 32.53 31.95 30.80 25.97 29.75 30.63 24.34 20.24 22.06 25.07 24.89 25.18 25.26 25.98 26.71 27.54 27.89 27.46 27.06 26.25 26.06 24.85 24.85 24.15 23.47 21.90
40.70 39.77 39.46 37.09 32.30 30.79 28.55 27.59 28.99 29.67 27.50 30.78 32.06 32.12 33.50 33.07 34.84 33.19 32.41 29.34 30.30 24.39 28.22 23.10 15.23 20.06 22.88 23.32 23.29 23.46 23.95 24.76 24.70 25.34 24.78 24.95 24.91 24.71 23.67 23.06 21.95 21.46 21.20 20.45
35.12 30.22 25.42 26.31 21.93 14.74 14.62 17.25 21.97 23.44 26.15 27.21 30.16 30.58 32.13 33.62 34.41 32.45 31.84 24.95 22.59 25.22 17.84 13.11 16.19 21.33 22.39 22.32 22.75 22.39 23.36 23.46 22.59 22.34 23.09 22.37 21.39 21.72 21.13 19.82 20.40 19.85 18.61 18.97
24.39 19.74 10.42 11.04 9.86 15.29 17.03 17.76 20.41 25.31 25.83 25.67 27.76 31.56 29.80 29.68 26.97 25.47 22.89 21.53 22.92 14.84 10.46 10.02 16.16 19.57 21.41 22.30 22.79 21.13 20.20 20.40 20.20 19.81 19.77 19.12 18.81 18.84 19.24 18.86 18.33 16.93 15.59 16.19
18.24 17.49 9.63 12.93 17.00 18.99 19.00 20.27 21.94 24.40 26.00 27.33 30.68 27.36 26.88 22.46 19.60 20.57 20.85 15.58 10.85 11.61 10.03 14.58 17.63 19.50 19.81 19.66 20.56 20.55 20.07 19.81 19.42 19.45 18.61 18.20 17.95 17.49 17.26 17.83 17.77 17.42 16.42 15.87
18.92 15.76 13.57 14.89 14.79 15.06 15.46 16.89 18.32 23.14 22.97 28.52 27.34 23.85 19.57 17.80 17.09 13.18 11.09 10.86 7.65 10.41 13.88 17.00 18.26 17.97 18.64 18.96 19.59 19.46 20.59 20.17 19.67 19.60 19.15 18.59 17.60 16.87 16.76 17.36 16.78 15.96 15.30 13.94
16.99 13.83 16.17 12.47 13.68 13.24 14.55 16.14 18.53 22.64 24.71 21.06 21.58 15.18 15.00 20.17 14.04 9.81 12.33 9.56 12.64 15.10 15.54 16.73 17.21 16.73 17.33 18.58 18.73 18.40 18.34 17.95 18.51 19.00 18.77 18.06 18.39 17.70 16.28 14.35 15.53 15.90 15.50 14.53

GFSNW_sfc_wetblb_078.txt.gz
Wetbulb
45.19 45.22 45.24 46.29 45.94 46.27 44.67 40.78 32.79 48.08 49.60 35.73 35.47 31.79 35.14 37.22 37.05 39.18 37.15 37.70 36.74 35.19 35.60 34.42 34.90 36.01 38.09 41.59 42.87 40.01 43.52 40.52 37.06 39.45 44.04 45.90 44.48 42.61 43.21 38.07 36.96 39.74 39.25 39.90
44.76 45.10 44.83 45.56 46.16 46.09 43.84 36.59 38.23 47.46 45.79 29.92 30.50 35.06 35.28 36.99 36.13 36.71 36.24 35.62 37.44 38.25 35.50 32.53 35.61 36.82 41.18 41.13 40.08 38.83 42.69 38.88 33.31 35.42 40.80 44.06 42.48 43.77 43.74 43.66 42.56 38.25 36.47 40.26
44.03 44.23 44.54 45.58 45.69 46.04 44.65 36.16 31.77 38.12 40.03 38.38 35.98 32.00 33.00 32.77 37.74 36.78 37.41 36.58 37.88 36.60 34.96 37.65 34.68 35.65 39.34 41.08 40.31 42.60 43.29 40.51 36.86 32.50 36.00 40.48 38.48 40.64 42.59 42.07 37.65 38.46 39.37 41.27
44.39 44.39 44.66 45.19 45.62 46.17 44.18 35.22 33.21 37.99 30.51 32.85 34.84 34.87 34.83 33.02 32.44 36.40 37.53 34.92 35.54 34.83 32.33 33.92 33.67 36.37 37.15 39.60 41.02 42.47 42.10 35.57 37.56 39.19 40.24 39.77 39.36 39.39 40.44 39.15 40.62 37.41 40.16 40.94
45.12 44.94 45.20 45.51 45.52 45.81 41.62 32.47 34.65 36.65 34.54 36.27 33.58 34.39 34.06 33.84 34.98 35.07 33.22 33.50 35.70 36.24 33.36 34.77 32.90 35.68 35.72 34.78 38.92 38.46 41.05 36.12 37.83 35.07 39.15 39.19 37.27 40.19 41.05 41.28 41.48 41.77 42.67 42.05
45.69 45.52 45.34 45.53 45.33 45.45 39.84 40.64 40.35 37.57 33.66 34.87 32.76 33.33 35.26 35.18 37.00 37.45 37.77 36.50 34.96 34.47 36.53 39.64 40.33 40.85 40.20 39.11 36.92 35.52 35.95 37.72 36.06 31.99 37.51 37.66 33.55 38.60 40.44 41.89 44.66 44.10 40.33 43.29
46.57 46.20 45.50 45.33 45.48 45.62 42.59 42.01 39.78 33.04 29.16 32.43 33.49 34.99 36.53 35.03 36.39 34.50 36.43 37.69 35.55 38.93 43.32 42.62 42.08 40.76 40.04 40.39 39.59 40.22 35.79 36.27 36.38 33.04 34.66 26.18 38.56 43.66 44.49 43.39 43.56 45.69 45.17 45.79
46.84 46.57 46.08 45.64 45.38 45.58 44.29 43.92 40.71 35.34 30.13 33.51 33.40 34.14 35.93 37.53 37.92 35.88 36.05 38.08 40.55 42.96 39.49 34.41 32.40 33.80 34.46 36.85 39.30 39.04 39.48 36.85 33.71 30.77 30.86 35.17 37.89 40.68 41.06 40.30 39.94 45.77 45.03 47.03
46.57 46.50 46.41 46.13 45.71 45.57 44.95 44.08 45.19 39.86 32.63 32.66 36.47 35.12 36.44 34.51 35.02 35.01 36.21 39.77 43.40 41.46 36.46 32.21 28.29 27.17 31.08 31.06 34.68 39.91 38.88 39.08 34.86 32.69 27.47 25.86 37.04 43.47 46.80 45.20 36.34 45.86 46.82 46.18
46.73 46.72 46.41 46.36 46.19 45.85 44.52 43.10 46.33 40.21 34.11 37.65 39.13 35.06 35.39 39.07 37.01 34.58 36.08 37.53 37.52 39.97 34.87 31.12 29.46 29.08 34.58 29.65 30.22 29.61 30.94 32.54 29.56 31.22 30.60 34.75 41.68 44.01 46.99 34.62 37.16 45.54 46.70 46.23
46.78 47.00 46.54 46.24 46.43 46.13 43.73 41.50 46.41 40.36 34.61 37.90 41.37 41.26 38.33 39.03 38.78 33.91 37.16 35.51 35.90 34.58 31.53 31.69 31.87 31.47 34.02 32.79 35.40 33.23 32.43 31.27 30.91 32.03 29.09 27.33 44.67 43.82 38.44 42.82 46.17 46.94 47.65 48.08
46.73 46.75 46.59 46.11 45.97 46.29 45.47 38.84 44.98 45.28 38.05 38.43 44.48 45.07 45.67 44.31 42.99 39.61 38.78 37.09 37.59 38.34 34.66 35.68 35.96 33.10 35.98 33.68 30.02 38.71 32.64 37.23 34.75 36.44 36.32 44.00 45.64 44.62 47.08 47.57 46.36 47.14 47.75 48.68
46.64 46.69 46.70 46.17 46.06 46.27 45.19 41.19 42.97 41.56 37.25 37.29 39.50 38.51 44.53 47.10 46.48 47.22 37.76 38.99 41.68 41.13 43.86 40.09 37.94 32.73 37.04 31.84 33.40 36.10 39.25 42.45 38.32 37.59 41.59 42.99 44.44 46.34 46.97 46.74 46.10 47.61 47.23 46.78
46.24 46.54 46.33 45.87 45.85 46.13 45.55 41.76 43.49 41.60 37.96 33.72 36.10 44.74 41.84 46.31 47.10 45.97 45.40 43.68 44.80 44.06 43.23 39.22 37.30 34.30 39.95 35.98 37.44 36.90 39.81 40.79 38.19 38.50 41.53 43.02 44.46 45.06 45.31 45.12 46.50 45.79 45.16 44.19
46.38 46.20 46.02 45.47 45.52 46.25 44.81 44.25 44.54 45.71 40.71 34.40 36.06 41.19 43.68 45.44 45.44 44.40 44.72 43.10 41.75 40.79 38.09 36.92 36.30 40.49 39.42 40.59 39.87 36.98 41.39 39.30 37.32 36.18 41.19 40.32 41.63 44.42 43.05 43.16 43.51 43.43 42.00 40.85
46.04 46.15 45.85 45.42 45.40 45.59 42.36 34.66 43.27 45.47 45.99 37.83 32.24 41.80 40.90 42.75 44.09 42.82 42.58 42.03 41.59 40.56 38.72 38.21 41.55 41.94 40.73 35.81 34.25 39.39 41.22 41.30 40.52 38.76 40.69 41.25 43.45 44.65 42.75 41.37 41.22 40.98 40.10 38.39
46.09 45.68 45.35 45.07 44.44 42.80 39.53 38.60 40.67 45.47 46.49 37.47 33.91 33.77 40.77 42.29 42.13 42.21 41.75 42.85 41.13 39.89 37.62 38.05 40.17 40.63 40.46 37.86 33.59 34.22 34.21 35.09 37.23 35.78 36.44 38.69 38.17 36.43 38.84 39.02 38.51 38.24 36.71 35.97
45.75 45.20 44.32 44.76 45.40 44.89 42.45 43.95 45.15 46.07 41.58 39.87 32.97 33.47 37.08 41.95 37.65 37.37 42.57 39.08 40.09 39.21 37.52 38.80 38.79 40.82 40.53 33.47 30.15 30.94 31.33 32.45 34.13 32.90 34.35 34.46 36.92 36.74 33.59 33.76 33.02 32.31 30.09 29.64
45.22 44.83 44.78 43.02 41.33 38.26 41.34 44.72 45.24 48.04 41.77 33.82 32.53 31.95 30.35 41.65 38.18 38.06 37.37 38.60 33.58 38.35 34.63 36.73 38.15 35.72 30.21 25.67 26.26 27.05 27.94 28.48 29.21 31.51 34.59 34.19 32.56 31.76 30.97 30.27 28.97 28.22 27.47 27.78
44.35 42.18 38.35 33.04 40.67 45.10 44.67 41.14 37.62 38.72 38.76 39.82 34.86 38.78 32.23 38.17 36.04 34.65 35.75 35.53 34.82 31.83 34.38 36.95 34.63 25.13 26.27 26.89 27.21 27.21 27.24 27.52 28.50 27.03 28.88 28.85 30.02 29.69 29.47 28.28 28.23 27.86 26.20 25.33
41.09 38.03 36.22 42.22 45.15 42.15 38.45 33.90 33.85 33.48 31.53 34.69 36.04 36.40 33.40 36.59 34.29 33.72 34.59 34.44 34.07 30.18 31.39 33.40 28.52 24.38 23.89 26.44 25.85 26.89 27.42 27.62 27.61 27.93 28.37 28.07 27.57 27.59 26.59 25.89 25.68 24.70 23.34 21.81
42.60 40.10 40.10 38.07 35.17 35.97 32.49 31.36 32.96 32.45 29.57 34.11 34.05 33.97 35.87 34.28 38.56 37.53 35.27 32.50 32.91 26.79 31.56 30.05 22.97 22.50 24.49 25.48 25.11 25.33 26.24 26.14 25.55 26.22 25.47 25.56 25.63 25.56 25.07 23.99 22.62 21.64 20.76 20.19
39.75 34.87 29.52 31.71 26.84 23.64 24.59 23.63 26.96 27.86 29.63 31.30 34.11 32.66 35.67 36.79 38.34 35.03 33.88 29.57 26.34 31.97 26.41 21.00 19.92 22.40 23.87 24.36 25.05 24.38 25.07 25.00 24.19 23.70 24.26 23.66 22.90 23.66 22.88 20.83 21.09 20.84 19.89 20.10
29.76 26.89 19.68 23.02 20.39 22.04 22.80 24.72 25.91 28.19 28.97 30.52 33.01 33.54 32.61 33.70 30.25 28.64 26.58 26.36 28.56 22.65 19.37 15.99 20.67 21.15 22.14 23.31 23.72 23.14 21.42 21.50 21.26 21.18 21.03 20.10 20.04 19.58 19.60 19.39 19.66 18.13 17.20 17.71
24.76 25.26 18.23 19.87 22.68 24.28 24.14 25.17 27.12 26.66 27.23 30.45 33.16 32.09 32.44 27.61 25.23 26.16 25.27 20.84 17.38 18.15 17.78 19.88 21.13 21.82 22.24 22.16 22.61 21.79 21.21 20.78 20.73 20.62 19.59 19.08 19.02 18.23 17.64 18.41 18.59 17.94 17.21 16.70
23.27 21.19 20.98 23.13 24.39 22.65 23.40 23.73 25.45 26.75 26.59 32.84 32.71 27.85 24.64 21.54 21.66 19.01 16.48 16.69 15.06 16.53 19.49 21.12 21.97 20.38 20.71 20.89 21.06 21.49 21.98 21.65 20.83 20.46 20.04 19.36 18.14 17.41 17.33 17.46 16.89 16.65 16.30 14.74
20.67 19.23 22.03 21.34 21.81 19.96 20.84 21.87 23.06 26.59 29.23 27.13 27.31 21.43 19.07 23.93 18.46 13.63 17.11 15.48 17.41 19.13 18.84 19.90 19.93 19.64 19.64 20.39 20.18 20.10 20.32 20.07 20.26 19.87 19.55 18.90 19.41 19.13 17.37 14.87 15.88 16.04 15.74 14.60

GFSNW_sfc_wetblb_081.txt.gz
Wetbulb
44.91 45.15 45.59 45.63 45.84 46.69 44.36 41.51 33.42 48.93 51.11 36.82 36.71 33.18 36.82 40.30 39.10 41.34 39.82 40.45 39.20 37.70 37.80 36.51 36.86 36.47 38.93 43.21 43.05 40.16 43.38 39.55 35.43 39.44 44.37 46.35 45.30 42.44 42.56 36.87 36.63 40.53 39.30 39.10
44.91 44.77 44.73 45.21 45.73 46.07 43.74 37.06 37.88 48.60 47.45 31.49 33.53 36.56 37.14 39.01 38.20 38.87 38.49 37.65 40.27 41.05 37.63 33.84 37.10 38.25 42.49 42.81 41.12 39.23 41.02 39.33 32.57 34.71 40.92 44.18 42.21 44.05 44.82 44.80 43.43 37.81 35.73 40.44
44.50 44.80 44.76 44.83 45.34 45.86 44.73 39.00 32.99 39.72 41.87 39.08 35.84 33.34 34.66 34.20 40.54 39.56 40.02 39.13 40.57 38.79 37.02 39.42 36.18 37.33 40.59 42.11 41.52 42.16 43.53 39.77 38.23 34.26 37.45 41.35 39.70 42.82 44.13 42.86 38.41 38.78 39.34 41.69
45.11 44.45 44.77 45.15 45.16 45.91 43.96 38.76 33.90 38.77 32.37 35.35 36.00 36.52 35.78 34.50 34.38 39.39 40.38 37.68 37.77 37.26 34.32 35.92 35.80 38.62 39.87 40.11 41.60 41.70 41.49 35.98 39.38 40.86 42.06 41.25 41.17 41.58 43.00 41.76 42.30 38.48 41.58 42.54
45.52 45.24 44.89 45.37 45.50 45.76 41.95 33.30 34.68 39.15 36.82 37.82 35.81 35.37 33.15 34.68 36.59 37.56 35.75 35.84 38.17 39.03 35.57 35.83 34.93 37.95 38.39 37.48 39.60 39.15 41.64 35.15 37.70 36.20 39.85 40.90 38.86 41.02 42.02 42.25 42.51 42.57 42.80 42.42
45.84 45.78 45.48 45.43 45.45 45.06 39.14 41.47 42.29 38.75 35.51 35.69 34.07 34.89 35.44 35.01 37.95 39.28 40.18 38.97 38.21 36.61 38.77 40.61 41.44 42.16 41.56 40.70 38.71 37.81 37.60 37.36 35.61 32.32 38.40 38.52 34.93 39.77 40.78 41.63 43.51 43.21 39.89 44.64
46.32 46.16 45.98 45.54 45.50 45.43 42.35 41.94 40.25 35.16 30.42 33.84 34.38 36.09 37.04 36.14 37.35 37.28 40.12 40.67 37.92 40.70 45.56 44.46 43.03 41.68 40.76 40.46 40.76 41.73 37.03 36.34 37.27 33.34 35.53 27.00 39.74 44.92 44.49 43.37 44.51 46.30 46.51 47.07
46.85 46.70 46.47 45.91 45.44 45.78 44.46 44.13 40.81 36.57 31.79 35.12 35.26 36.25 36.02 36.49 38.22 38.08 39.14 40.30 41.66 44.04 41.73 36.60 33.05 34.55 34.55 36.52 40.05 40.22 41.15 37.85 33.90 30.70 31.33 35.88 38.86 41.75 41.56 41.13 42.27 47.31 45.98 47.35
46.61 46.61 46.60 46.53 45.82 45.62 45.46 44.38 45.35 40.14 33.96 33.42 37.23 35.45 37.09 34.27 35.27 37.67 39.43 43.12 44.91 42.57 37.98 34.53 28.92 28.58 33.05 32.42 35.43 41.30 40.56 40.12 35.51 33.81 28.31 26.02 37.77 44.19 46.95 45.93 37.42 47.43 47.07 46.49
47.04 46.99 46.83 46.72 46.28 45.98 45.12 42.79 46.09 41.53 34.51 38.44 38.87 35.55 35.78 39.74 38.49 36.38 38.77 38.87 37.91 40.05 35.31 31.17 30.03 31.12 36.92 31.14 31.58 32.31 33.60 34.37 31.45 31.91 30.72 35.43 43.03 45.13 46.83 35.36 37.55 45.69 47.07 47.26
47.11 47.08 47.08 47.02 46.76 46.37 43.79 42.07 46.13 42.48 37.69 38.65 41.24 41.80 39.63 39.32 38.72 35.35 38.90 37.05 37.06 34.51 33.68 32.62 33.78 33.19 35.40 34.73 37.06 35.30 33.28 31.95 31.28 32.81 29.67 27.60 44.77 44.24 39.56 44.06 46.65 47.78 47.96 48.16
46.89 46.89 46.97 46.95 47.02 46.63 45.82 38.94 46.11 46.47 40.30 39.31 44.26 44.42 45.39 44.40 43.30 39.63 39.88 38.15 37.99 39.42 35.47 36.80 37.60 34.65 37.64 35.66 30.54 41.09 32.63 37.54 35.67 36.33 36.72 45.15 47.80 44.45 47.58 48.40 47.07 47.90 47.88 47.86
46.77 46.75 47.10 47.30 47.29 46.79 45.76 40.74 44.07 42.33 38.15 37.67 39.94 39.23 45.59 47.49 47.40 47.90 38.44 40.16 41.91 41.57 44.29 40.02 38.20 34.08 38.70 33.07 34.88 36.49 40.96 42.49 39.16 38.45 42.97 43.88 44.19 46.40 47.70 47.82 47.45 47.82 48.14 47.59
46.35 46.63 46.75 46.93 47.04 46.49 46.19 40.51 43.79 41.72 38.14 32.28 37.04 44.88 41.32 46.99 47.60 47.10 46.13 43.00 44.42 44.25 43.66 40.27 38.75 36.24 41.62 37.35 38.27 37.66 41.03 41.82 39.96 39.65 41.95 44.05 45.82 46.06 45.65 46.30 47.28 46.60 47.01 46.58
46.23 46.63 46.58 46.92 46.90 46.51 45.68 43.89 44.21 46.18 40.23 35.38 35.50 42.87 44.83 45.66 45.86 44.89 44.83 43.13 41.07 40.84 37.93 38.91 37.49 40.82 40.23 41.36 40.48 38.15 42.30 40.23 38.26 37.22 42.00 42.73 43.80 44.69 45.01 44.60 43.88 44.16 44.05 43.39
46.15 46.33 46.68 46.81 46.24 46.01 42.18 35.99 42.67 47.79 46.61 39.03 34.05 42.73 42.49 43.51 44.49 42.82 42.35 42.36 41.54 40.76 37.09 37.05 41.43 43.94 41.21 36.81 34.86 38.54 40.78 41.35 40.55 37.52 40.15 42.10 43.79 41.65 40.47 39.96 42.14 42.27 41.86 41.38
45.89 46.19 45.95 45.85 45.73 44.28 38.91 38.46 42.73 46.17 47.78 38.37 34.65 36.01 42.02 43.75 43.11 42.38 42.01 43.43 40.54 39.73 38.42 38.64 40.55 40.60 41.61 38.82 34.66 34.22 36.70 38.24 38.97 38.89 39.12 39.42 39.68 36.74 37.12 37.00 37.55 38.08 36.01 34.58
45.78 45.37 45.30 45.39 45.45 44.34 42.75 44.88 45.30 46.24 41.40 40.14 33.97 35.78 37.09 43.25 38.78 37.14 41.91 37.56 38.86 38.41 37.07 40.11 39.49 40.69 40.32 34.15 31.20 32.60 33.90 36.32 36.91 35.67 36.40 36.72 37.35 37.49 37.20 37.16 36.16 35.01 31.73 31.14
44.69 44.68 44.83 43.31 42.02 39.25 41.12 45.59 45.92 47.81 42.05 35.92 35.61 33.44 31.87 41.75 39.18 38.59 38.48 37.89 32.95 38.57 35.11 37.26 40.72 38.26 29.78 27.37 28.93 30.00 30.34 30.82 31.73 34.37 36.41 35.58 34.17 34.29 34.79 34.89 34.02 32.77 30.67 30.24
44.42 43.39 38.72 32.95 41.71 45.37 45.08 41.38 37.37 38.76 40.65 40.89 35.28 39.80 33.86 38.98 38.34 36.84 35.83 37.54 35.57 32.70 34.97 40.66 35.84 26.68 28.13 28.42 29.70 30.44 30.67 31.41 32.00 30.11 30.08 30.34 30.24 30.30 30.80 30.07 29.73 28.76 27.98 27.40
42.87 39.11 35.88 41.33 45.11 42.95 40.06 35.10 34.82 35.52 32.41 37.78 37.43 37.48 35.64 39.57 34.06 34.18 39.02 34.83 35.56 31.21 32.55 33.53 31.55 25.61 25.50 28.46 28.45 30.08 30.80 30.86 30.60 30.21 29.68 28.93 28.43 28.01 28.36 27.80 27.06 25.88 25.04 23.15
42.91 39.97 41.41 40.51 38.17 37.53 33.77 32.50 34.18 33.73 30.98 34.49 34.41 35.87 37.20 37.05 37.85 36.60 35.12 33.50 34.08 29.02 35.16 32.58 25.72 23.36 26.27 27.10 27.28 27.41 28.11 27.76 27.46 27.79 26.74 26.78 26.58 27.14 26.63 25.67 24.08 23.27 22.72 22.08
42.20 37.87 31.76 33.91 31.80 28.46 29.97 25.95 29.19 30.12 32.53 34.03 34.54 33.44 36.18 36.48 37.48 36.90 36.09 31.50 29.01 33.86 30.27 23.07 22.56 24.43 24.84 25.14 26.05 25.57 25.86 25.64 25.54 24.96 25.10 24.59 24.08 24.77 24.37 22.85 23.52 23.22 22.07 22.11
32.73 30.78 22.93 27.80 25.50 25.36 26.29 27.63 28.35 29.57 31.85 33.08 34.40 34.82 35.17 36.02 33.57 32.77 29.16 28.22 30.30 25.87 24.45 19.99 22.33 22.62 23.76 24.79 24.54 23.56 21.99 22.40 22.25 21.88 21.70 20.95 20.83 20.50 20.84 20.76 21.09 20.04 18.63 18.84
28.56 29.57 22.51 22.69 26.06 27.10 27.31 29.20 31.28 30.35 32.32 32.41 35.37 35.12 34.81 31.14 29.00 29.62 27.99 25.17 21.46 22.73 21.29 22.42 23.40 23.56 23.68 23.35 23.61 23.08 22.25 21.91 21.69 21.51 20.31 19.73 19.40 18.64 18.37 19.54 19.58 18.63 17.95 17.75
27.31 25.56 24.83 27.56 28.55 26.65 27.58 28.71 28.96 30.14 30.79 34.28 36.71 32.05 28.82 25.13 27.04 23.88 20.81 21.96 20.07 20.09 21.36 23.47 23.74 21.99 21.94 21.72 21.94 22.46 22.69 22.36 21.89 21.52 20.83 19.94 18.69 17.99 17.91 18.03 17.30 17.03 16.57 15.53
24.69 22.66 25.90 26.64 25.83 24.60 25.74 27.45 27.71 30.81 32.02 28.83 31.82 25.95 21.98 28.78 23.23 18.99 20.80 18.55 20.01 21.02 20.65 21.94 21.97 21.55 21.23 21.62 21.63 21.56 21.68 21.52 21.48 21.11 21.00 20.52 20.69 20.06 18.21 15.95 17.17 17.13 16.68 15.93

GFSNW_sfc_wetblb_084.txt.gz
Wetbulb
45.14 45.02 45.11 45.40 45.71 45.93 44.35 40.41 32.11 47.91 50.95 36.69 36.27 32.29 35.49 38.37 38.98 41.77 39.29 39.62 38.12 37.49 38.60 36.93 37.86 37.66 38.98 42.62 42.09 38.83 43.01 39.19 32.27 34.96 42.75 44.99 44.08 40.92 39.44 34.83 35.35 37.71 36.07 36.94
44.79 44.87 44.99 45.12 45.28 45.70 43.11 36.63 36.38 46.12 47.78 30.66 32.09 35.55 35.71 37.97 37.42 38.76 38.04 36.96 39.32 40.12 38.02 34.26 38.18 39.21 43.26 42.81 40.69 37.43 39.25 36.91 30.40 33.35 38.61 42.84 40.12 41.94 42.07 40.66 40.18 35.94 33.66 37.43
44.94 44.86 44.79 45.12 45.32 45.58 42.46 37.34 31.52 37.15 42.15 40.30 35.39 33.35 33.98 33.74 39.72 38.38 39.81 38.60 40.06 38.11 36.74 39.27 36.62 37.79 41.21 42.49 41.11 41.84 41.68 37.31 35.27 30.79 34.27 39.08 37.17 39.96 42.60 41.09 35.74 36.16 36.79 39.40
45.41 45.24 44.66 44.88 45.01 45.59 42.15 36.38 33.52 37.82 31.93 33.97 34.89 35.86 35.46 33.70 33.69 39.33 39.62 37.28 37.61 36.47 33.51 35.22 35.11 38.45 39.56 41.82 40.89 40.94 40.05 33.88 36.68 37.87 39.39 39.50 39.81 38.77 39.64 39.34 40.45 36.60 39.61 40.64
45.31 45.47 45.53 45.35 45.37 45.34 39.36 33.23 33.04 37.21 35.16 37.14 34.89 35.06 33.33 33.11 35.81 37.01 35.71 35.31 37.44 37.94 34.53 35.50 34.15 37.50 38.28 37.59 40.51 38.83 40.37 33.44 36.32 34.18 39.66 39.45 37.36 39.61 40.26 40.85 41.26 42.09 42.23 41.72
45.79 45.85 45.84 45.50 45.34 44.85 38.19 39.93 41.92 37.10 34.23 34.39 33.66 33.88 34.80 34.60 37.18 38.73 39.26 39.09 37.04 36.15 38.08 40.25 41.46 42.39 41.07 40.89 38.43 37.39 37.19 35.29 33.84 30.12 37.06 37.56 33.74 38.65 40.39 40.98 42.53 42.14 38.36 43.73
46.15 46.00 45.59 45.77 45.42 45.14 41.79 40.41 40.45 34.82 29.42 32.32 33.08 35.37 36.71 36.00 37.12 35.41 39.08 39.60 37.15 40.89 44.97 44.54 43.36 42.11 41.08 40.69 39.73 40.76 35.95 35.22 34.76 30.97 33.53 26.21 38.43 44.40 44.09 42.27 43.26 44.33 44.89 45.79
46.80 46.73 46.31 45.93 45.86 45.69 42.66 42.46 40.60 35.67 29.97 33.22 33.81 34.74 36.07 37.33 39.03 37.55 37.92 39.55 42.80 45.51 41.77 36.05 32.81 33.50 34.42 36.48 38.63 38.70 40.11 36.48 32.71 29.78 29.69 34.24 37.43 41.00 40.42 39.63 39.67 46.36 45.51 45.82
46.52 46.38 46.70 46.44 46.37 45.94 44.07 43.29 44.72 40.36 32.91 31.50 36.36 34.76 36.65 34.40 34.90 35.00 38.85 43.66 45.71 43.40 37.26 33.68 27.55 26.46 31.32 31.50 34.67 40.06 39.43 39.86 34.07 32.88 26.56 24.68 36.15 41.76 46.28 45.16 35.14 45.73 46.07 45.00
46.61 46.60 46.67 46.63 46.74 46.46 44.13 42.15 45.36 40.53 33.65 36.45 37.38 34.25 34.14 38.45 36.74 34.70 37.06 39.47 39.03 41.08 35.10 30.92 28.93 28.68 36.17 30.18 31.02 31.60 32.91 34.20 30.67 30.79 29.26 34.06 41.28 44.82 46.40 34.48 36.41 45.94 46.70 46.01
46.60 46.85 46.92 47.02 46.81 46.53 44.51 41.40 45.64 40.14 36.13 36.37 39.58 40.35 37.72 38.44 38.13 33.80 38.59 35.57 37.22 34.84 31.69 31.93 31.94 32.10 34.71 34.39 36.31 34.47 32.53 30.86 30.21 31.93 28.96 26.80 44.65 43.33 38.61 43.33 46.30 46.12 46.53 46.09
46.81 46.90 46.97 47.06 47.28 46.86 45.89 39.52 44.12 44.84 38.46 37.10 42.90 43.88 44.70 42.43 42.27 37.92 38.13 36.92 36.92 37.56 34.47 35.60 35.88 33.48 37.28 34.64 30.04 40.46 32.32 36.28 33.68 34.56 34.33 43.31 46.60 45.68 47.23 47.42 46.09 45.88 45.63 45.98
46.79 47.07 47.20 47.19 47.47 47.45 45.92 41.03 41.95 41.85 37.99 37.02 38.34 37.40 43.97 46.30 45.82 47.26 37.44 38.96 41.29 40.20 43.14 39.25 38.14 33.91 37.58 32.05 33.75 36.13 39.66 42.37 36.64 37.66 40.43 42.24 44.20 45.34 46.22 46.65 45.28 45.86 46.15 45.75
46.49 46.70 46.79 46.89 47.27 47.49 46.38 40.69 42.47 40.64 38.06 31.45 35.09 44.43 41.21 45.72 47.42 46.16 46.11 43.47 44.07 43.54 41.82 37.62 37.17 35.58 41.06 36.57 38.06 37.22 39.41 40.08 38.82 39.02 40.86 42.18 41.98 43.24 43.88 44.44 44.46 43.76 44.99 44.16
46.26 46.63 46.74 46.84 47.26 47.43 46.38 42.41 43.41 43.35 38.82 33.08 34.69 41.64 44.36 45.39 45.20 44.15 45.18 43.57 41.48 39.44 35.81 34.80 36.19 39.75 39.82 40.44 40.20 37.33 40.45 37.38 37.23 35.96 38.83 39.28 38.70 41.45 43.07 42.30 41.83 41.98 41.59 41.18
46.07 46.33 46.46 46.68 46.88 47.10 39.75 33.23 42.75 45.03 44.72 37.32 33.51 42.90 41.25 44.15 43.12 42.62 42.44 43.23 41.81 39.52 36.54 36.89 40.06 43.02 40.50 35.92 34.01 36.77 38.96 39.85 38.40 35.77 38.91 41.73 41.16 39.33 39.63 38.97 39.13 39.38 38.23 36.66
46.01 46.10 46.33 46.58 45.80 41.57 38.81 38.41 41.83 45.02 44.90 36.99 33.23 35.83 41.14 43.57 42.84 42.54 42.61 43.07 40.93 39.36 37.09 37.80 38.80 39.84 40.73 37.21 33.14 34.49 35.64 38.57 37.11 37.69 38.41 37.68 37.46 35.19 38.30 38.25 38.18 38.92 36.86 34.84
46.01 46.08 46.17 46.37 44.43 44.04 41.84 45.93 45.37 46.16 40.85 39.50 32.09 33.18 37.41 43.43 37.97 37.06 42.67 38.62 38.52 38.08 37.31 39.16 37.71 40.06 39.14 31.66 31.29 32.39 32.82 35.85 34.42 34.80 37.71 37.15 37.61 37.44 36.74 37.25 36.39 35.54 32.84 31.41
45.69 46.05 44.92 42.66 41.34 38.47 42.33 45.40 45.78 47.61 41.96 34.45 34.90 32.00 31.36 41.53 38.81 38.15 37.72 37.82 32.32 37.57 33.76 35.92 39.08 34.92 25.55 27.65 28.65 29.17 30.42 30.47 30.99 33.71 36.32 34.09 33.20 32.91 33.09 32.63 31.05 29.82 28.85 28.55
44.29 42.99 38.43 32.87 41.30 45.21 44.53 40.53 36.40 37.85 39.28 39.72 34.74 39.66 34.24 39.09 37.89 36.41 35.32 36.88 34.49 31.54 34.88 39.87 34.91 25.30 28.22 29.07 30.05 30.04 30.50 30.98 31.52 28.61 27.73 28.41 28.00 28.33 29.15 28.11 27.87 27.07 25.85 25.21
43.22 38.26 36.02 41.98 45.70 42.70 38.50 33.21 34.63 35.64 33.82 37.03 38.14 38.20 34.92 39.90 35.25 34.51 38.74 33.96 35.22 29.51 33.11 32.75 30.74 23.80 25.37 28.73 28.51 29.19 29.39 29.76 29.45 29.12 28.30 27.69 27.35 27.18 27.61 26.26 25.32 24.32 23.40 22.31
41.85 39.96 42.24 42.03 38.89 37.05 33.25 31.99 34.45 33.11 30.69 35.82 35.43 36.10 37.89 37.45 38.45 36.20 34.98 31.96 33.87 27.83 35.38 31.83 22.90 23.44 25.77 26.56 26.44 26.35 26.69 26.73 26.36 26.62 25.72 25.69 25.82 26.66 25.13 23.84 22.86 22.39 22.16 21.29
43.64 38.02 33.62 34.39 33.05 29.89 29.48 25.58 29.72 29.93 33.26 34.33 35.33 32.49 35.73 36.15 37.36 32.87 33.11 31.05 29.65 34.98 30.79 21.78 21.78 23.52 24.46 24.75 25.07 24.40 24.70 24.48 23.95 23.12 23.46 22.85 21.85 22.72 22.68 21.05 21.48 20.68 19.75 20.29
33.55 31.95 24.31 28.05 25.26 25.49 25.84 27.56 28.66 29.85 32.22 33.35 34.87 34.49 34.60 34.83 33.10 33.21 28.33 29.60 31.46 27.19 24.25 18.17 20.38 22.45 23.71 24.40 23.99 22.82 21.62 22.03 21.13 20.37 20.26 19.06 19.07 19.26 19.68 19.58 19.28 18.03 16.90 17.56
29.34 30.35 23.17 23.65 26.91 28.73 30.15 31.80 31.15 31.29 33.99 34.83 35.14 35.45 34.43 31.82 29.36 30.59 29.07 25.85 22.89 21.83 18.82 20.37 22.04 22.92 22.59 22.35 22.72 22.08 21.26 20.89 20.52 20.15 19.07 18.36 18.09 17.34 17.21 18.12 18.12 17.38 16.56 16.01
27.81 26.61 26.27 29.43 28.68 27.94 28.89 30.54 29.64 32.34 33.59 35.72 37.01 32.17 28.67 26.28 27.98 25.16 22.95 23.85 19.08 19.25 21.70 22.80 22.65 21.28 21.43 21.04 21.88 21.99 22.46 21.94 20.89 20.28 19.42 18.64 17.64 16.61 16.16 16.70 16.62 16.42 15.92 14.92
25.50 23.77 28.21 28.54 26.90 25.78 26.90 28.88 29.32 33.29 33.30 29.59 32.09 25.45 22.80 29.26 23.79 19.00 19.91 17.83 19.29 21.12 21.52 22.65 22.69 21.66 21.25 21.90 21.98 22.47 22.16 21.57 21.21 20.58 20.20 19.58 19.63 19.20 17.78 15.58 16.51 16.69 16.06 15.33

GFSNW_sfc_wetblb_087.txt.gz
Wetbulb
45.31 45.20 45.23 45.00 45.35 45.39 42.44 38.67 27.29 41.36 44.61 33.26 35.04 31.30 34.06 38.50 36.86 39.12 37.93 38.20 36.64 34.57 35.53 34.64 35.37 36.56 38.09 40.79 39.61 34.97 38.67 36.41 30.32 33.17 40.56 42.51 40.39 37.51 38.90 34.50 31.80 36.20 35.50 35.19
45.63 45.39 45.24 45.05 44.94 44.99 38.65 35.30 31.74 41.06 43.72 26.31 30.83 34.01 34.58 36.79 35.98 36.17 36.52 35.98 37.88 37.85 34.57 31.54 36.02 38.43 42.49 41.51 39.44 35.81 36.51 35.11 29.26 31.76 36.40 40.68 37.26 39.58 40.33 39.50 38.07 34.63 31.52 35.70
45.80 45.63 45.48 44.92 44.89 45.03 40.41 33.31 24.92 31.06 36.88 35.37 32.71 30.84 31.70 31.95 38.31 36.84 37.57 36.31 37.85 35.86 33.58 36.99 34.74 37.11 40.87 41.28 40.09 41.95 40.59 35.00 32.93 29.21 33.50 35.51 35.76 38.24 39.94 38.77 34.15 33.78 36.48 38.33
46.17 45.73 45.69 45.12 44.85 45.09 40.03 34.06 30.65 32.36 20.64 31.16 32.83 33.78 35.06 32.86 31.96 37.32 38.12 35.10 35.03 34.09 30.86 32.73 32.09 35.63 38.01 41.49 41.56 39.28 38.01 31.60 34.73 35.90 37.62 37.30 36.12 36.82 37.97 37.24 37.87 35.36 37.85 38.48
46.04 45.56 45.66 45.62 45.51 44.97 36.98 31.71 29.82 32.43 30.71 33.51 33.03 33.42 30.96 31.21 33.13 34.82 34.14 33.77 35.89 35.25 31.73 32.87 30.66 35.39 36.23 35.38 39.56 36.93 38.02 31.90 33.90 31.54 36.68 37.86 36.11 38.21 38.12 37.52 39.41 39.87 39.94 39.29
46.25 45.77 46.01 45.99 45.68 44.03 36.57 37.26 35.76 33.11 30.61 29.91 29.83 29.41 32.62 32.94 34.92 35.86 37.40 37.08 34.40 34.23 35.64 38.83 38.19 38.33 38.56 38.28 36.54 34.54 34.89 33.39 31.66 28.52 35.00 34.29 31.13 37.16 38.44 39.00 40.74 40.34 36.30 41.19
46.31 46.41 46.00 46.18 45.72 44.31 36.65 35.59 34.36 30.53 22.69 27.19 29.13 32.52 34.09 33.64 34.83 33.14 36.55 38.03 35.47 39.36 41.27 41.62 40.77 40.36 39.05 38.16 37.68 38.69 33.58 32.66 33.28 26.73 29.78 23.54 37.35 43.26 43.15 40.76 42.15 43.59 43.43 43.55
46.64 46.56 46.53 46.23 45.48 45.75 38.86 37.75 35.19 31.18 22.70 29.63 30.46 31.82 32.68 34.18 36.63 34.80 36.10 38.22 40.58 42.41 39.13 32.98 29.97 29.31 30.83 33.76 36.48 36.04 36.91 33.14 26.93 25.45 26.83 31.86 35.34 39.32 39.34 38.11 39.04 44.20 42.89 43.99
46.37 46.48 46.65 46.60 46.35 46.09 41.99 39.12 39.12 34.59 29.45 27.19 33.65 31.08 33.49 29.71 30.41 32.18 35.28 40.66 42.33 41.53 34.21 29.68 24.33 22.48 28.19 28.11 32.53 37.41 36.38 35.36 30.27 26.92 25.14 20.82 33.81 41.55 44.95 44.59 34.23 44.27 44.53 43.58
46.83 46.74 46.81 46.72 46.67 46.46 43.57 39.56 41.09 36.65 30.36 33.31 33.80 30.45 30.94 34.58 33.62 32.48 33.69 36.31 36.74 39.44 30.68 24.53 23.88 24.81 33.12 26.71 28.33 28.64 29.15 29.25 27.44 26.97 26.21 30.93 40.04 43.30 45.48 32.96 34.05 43.01 43.72 43.19
47.15 47.19 46.94 46.90 46.70 46.79 44.01 40.67 41.73 37.88 32.69 33.89 36.41 37.38 34.04 35.48 34.51 28.19 34.95 32.43 35.29 32.80 27.51 26.71 26.31 24.30 29.96 30.54 33.72 32.60 29.42 27.59 27.02 28.14 24.76 23.27 43.01 43.13 37.37 41.13 44.10 43.53 42.70 42.77
46.78 47.12 47.08 46.92 47.08 46.97 46.07 39.22 42.09 42.58 35.56 34.36 38.98 39.43 40.03 38.82 40.22 37.24 37.09 36.42 34.78 35.89 30.22 30.12 30.27 26.96 31.50 31.73 28.15 38.04 29.33 33.11 29.62 30.95 30.25 40.52 43.25 42.49 44.27 44.99 42.29 42.70 41.81 42.51
46.58 46.81 46.88 47.08 47.33 47.42 46.49 41.35 41.17 40.36 36.68 34.64 33.92 33.35 39.08 41.91 41.26 43.61 36.26 37.98 40.45 38.79 41.28 36.78 35.35 29.10 34.42 29.74 30.67 34.83 36.41 40.61 34.26 34.22 39.07 39.65 40.60 42.90 43.14 42.90 41.34 42.31 42.08 41.50
46.19 46.58 46.67 46.88 47.29 47.61 47.03 40.96 42.31 39.59 37.00 29.38 31.56 40.82 36.72 40.85 40.35 40.81 42.13 41.21 42.79 41.49 40.66 35.07 33.44 32.21 38.71 33.20 35.93 33.91 38.17 39.11 37.18 37.23 38.29 38.88 39.99 40.55 42.42 41.82 41.81 41.22 41.51 39.84
46.12 46.37 46.67 46.81 47.26 47.51 46.58 42.69 42.58 41.89 35.81 29.61 31.35 37.26 39.62 40.68 39.00 38.33 41.50 40.76 38.58 36.91 35.75 33.40 32.21 36.96 37.09 37.25 37.59 34.83 36.75 34.13 33.78 31.03 35.91 37.63 36.62 37.95 40.23 38.55 38.07 37.63 35.95 34.84
45.57 46.25 46.56 46.70 46.63 47.06 38.12 32.61 41.81 42.73 41.28 35.40 28.65 39.41 38.82 39.44 39.14 38.19 38.25 39.67 38.33 37.76 36.17 34.51 37.06 41.20 38.12 33.04 31.60 34.31 35.46 35.77 35.07 33.43 37.46 38.16 37.13 37.58 37.91 36.65 37.04 35.54 33.54 32.06
45.88 45.84 46.37 46.46 46.30 41.56 37.49 35.22 39.21 43.78 42.86 34.82 30.78 29.97 38.00 40.36 38.61 36.62 37.83 39.54 39.96 37.17 36.62 36.05 35.61 37.08 39.01 32.84 28.39 31.37 33.35 34.04 33.67 35.73 37.85 34.27 35.18 33.91 36.08 35.43 36.29 35.05 32.98 31.32
45.73 46.03 46.30 46.00 44.72 44.24 40.40 43.83 44.27 43.86 39.08 37.87 29.07 29.15 33.93 39.34 34.95 33.98 40.28 37.75 38.53 37.71 36.30 37.21 35.50 37.11 35.76 26.56 28.25 29.69 30.81 32.18 31.54 33.37 33.28 32.61 33.26 33.21 32.43 32.04 31.74 29.94 28.70 28.01
46.28 45.98 45.27 42.64 40.32 37.25 40.45 45.19 44.75 44.10 39.44 31.10 30.62 25.88 28.39 39.33 35.91 36.95 36.82 37.86 31.26 37.27 32.90 33.97 36.26 29.14 22.41 26.47 26.74 27.00 28.28 28.03 28.13 30.88 29.92 29.74 28.66 29.08 29.66 28.77 27.56 26.07 25.33 25.44
44.03 42.60 37.32 32.07 40.24 45.39 44.71 40.29 37.07 36.99 37.84 36.44 31.76 35.45 31.83 37.97 34.37 34.05 32.81 32.95 31.73 29.40 31.48 37.83 26.78 22.15 27.38 27.58 27.59 27.37 27.38 27.88 27.66 24.74 23.73 24.96 25.04 27.00 25.55 24.37 24.20 23.70 22.83 22.44
41.58 35.21 34.91 41.94 45.36 41.41 37.32 31.23 30.78 31.71 29.74 33.53 34.28 35.30 32.93 38.20 32.01 32.01 32.10 30.24 32.01 25.66 30.32 30.99 25.86 20.76 24.25 26.43 25.08 25.97 26.18 26.40 25.48 25.70 25.11 24.84 25.87 24.61 23.15 21.82 21.87 20.98 20.16 18.75
41.11 40.07 42.42 41.63 38.61 35.56 32.12 28.62 32.00 29.70 28.48 33.41 32.99 34.33 36.61 34.53 36.54 33.25 33.40 29.30 30.54 26.04 33.93 29.72 18.59 21.04 23.43 24.04 22.91 23.02 23.80 23.53 22.69 22.98 21.85 21.77 22.74 22.99 21.96 21.07 20.16 19.46 19.46 18.77
41.07 37.09 33.89 34.22 30.91 27.02 21.67 21.96 26.41 26.20 29.46 31.27 33.46 32.33 33.37 34.36 35.98 32.34 30.80 28.22 26.59 29.21 24.89 15.76 17.61 21.83 22.81 22.14 22.60 21.85 22.56 22.39 21.20 20.09 20.48 20.15 19.60 20.44 19.62 18.24 18.08 17.58 16.52 16.76
32.01 28.22 17.39 24.26 22.76 23.30 24.58 26.51 27.30 29.46 31.62 32.73 32.22 32.15 32.16 33.11 29.85 31.27 23.80 26.68 28.71 25.84 15.88 10.17 17.79 20.20 20.97 21.83 22.04 20.31 18.30 18.53 17.22 16.85 15.96 15.56 15.45 14.56 14.99 15.07 15.01 14.39 14.25 15.25
26.47 26.54 19.79 19.86 25.07 27.09 28.66 30.67 29.62 30.47 32.90 32.76 32.67 29.47 30.00 29.12 23.71 28.41 25.10 24.48 18.16 17.01 9.69 15.23 18.74 18.89 19.56 20.80 21.51 16.30 16.09 14.48 15.83 13.22 12.88 10.74 10.45 12.49 12.97 13.66 13.94 14.53 14.03 13.89
25.36 24.53 24.75 27.43 23.55 23.88 26.14 28.37 28.07 31.39 31.62 32.73 30.58 26.36 25.28 22.35 26.38 23.00 16.84 18.89 9.68 12.00 16.81 18.99 17.53 17.44 17.66 18.49 19.32 19.22 19.50 17.78 17.10 15.61 15.36 14.80 12.83 11.87 12.65 13.54 13.52 12.50 11.66 10.63
24.09 21.10 23.79 24.10 22.10 23.47 23.21 24.32 25.20 29.96 29.24 24.66 29.24 23.59 19.80 26.66 18.89 13.05 16.37 10.37 13.98 17.96 18.88 20.38 19.63 18.96 17.79 16.72 19.73 19.70 17.80 15.05 14.04 14.39 13.95 13.33 15.18 15.53 15.37 12.53 12.46 13.69 13.04 11.16

GFSNW_sfc_wetblb_090.txt.gz
Wetbulb
45.72 45.74 45.82 45.45 45.22 44.49 41.75 37.37 27.40 37.99 42.99 28.08 29.55 27.25 33.96 37.57 36.49 38.55 36.63 37.09 35.81 33.75 33.61 33.19 34.05 35.54 38.18 39.53 38.98 33.99 35.79 33.54 26.92 30.76 38.17 42.60 40.36 37.93 37.25 33.69 30.82 34.71 34.76 34.06
45.77 45.95 45.93 45.50 45.19 44.39 38.57 34.25 30.82 37.77 41.90 22.96 26.45 33.23 33.57 35.85 34.75 34.96 35.00 33.71 36.06 35.87 33.26 29.77 35.70 37.06 40.88 40.39 37.18 33.94 35.33 32.65 27.58 29.49 35.94 39.97 36.33 38.20 38.50 38.62 37.30 33.16 30.63 33.69
46.00 46.17 46.04 45.83 45.06 44.83 38.42 32.08 25.23 28.55 33.77 34.56 30.93 29.53 30.72 31.03 37.38 35.74 36.69 35.48 36.38 34.29 32.08 34.73 32.54 35.67 39.87 40.21 38.79 42.04 39.28 32.89 31.35 27.98 31.47 36.16 33.76 35.16 37.94 37.43 33.34 32.13 34.91 37.05
45.89 46.22 46.34 45.79 45.10 44.90 37.04 32.49 23.09 33.08 27.68 30.23 28.99 31.42 33.36 31.13 30.56 36.57 37.50 33.98 34.71 32.60 29.05 30.42 30.02 34.88 36.35 39.12 41.48 37.77 35.87 28.87 33.80 34.66 35.53 36.90 36.61 35.59 36.51 35.94 36.79 34.85 36.79 37.76
45.73 46.34 46.05 45.77 45.26 44.96 35.29 28.91 28.76 32.11 29.11 32.71 31.49 32.25 30.74 30.85 32.17 33.41 32.92 32.55 34.66 34.71 31.31 31.61 28.99 33.88 33.86 33.98 37.74 35.23 36.63 28.38 31.50 30.24 35.37 35.22 33.17 37.27 37.44 37.18 38.32 38.87 38.94 38.64
45.87 46.38 46.03 45.92 45.61 42.63 35.77 33.00 32.64 29.95 28.40 28.81 26.57 29.40 31.23 31.64 34.79 35.90 36.43 35.45 33.95 33.40 35.39 36.61 37.61 37.85 37.55 36.56 34.55 32.93 33.37 31.68 29.32 26.55 33.45 31.74 29.07 35.78 37.50 37.39 39.78 37.76 34.33 39.80
45.69 46.35 46.56 46.53 46.05 43.77 34.51 33.57 32.07 26.25 20.72 26.03 27.41 30.16 31.77 31.34 32.78 32.44 35.98 36.89 34.78 39.06 41.82 40.04 39.14 38.09 37.63 36.97 36.34 37.06 31.78 30.56 30.07 25.73 28.72 20.34 34.47 40.12 41.30 39.34 41.52 41.46 42.50 44.01
45.63 46.07 46.39 46.37 46.28 45.56 35.78 34.92 33.28 29.09 19.38 27.54 28.52 29.73 30.75 31.98 32.73 33.36 34.70 37.43 39.90 40.90 38.41 31.89 29.85 28.62 29.81 32.26 35.23 34.68 35.72 30.92 24.90 23.62 24.77 29.89 33.42 37.80 38.40 37.33 38.01 43.30 42.36 43.90
45.71 46.23 46.48 46.41 46.60 46.04 41.52 37.87 36.41 32.72 29.11 24.84 31.89 29.42 31.02 27.09 27.54 30.09 34.42 39.60 40.33 38.98 34.05 29.29 25.58 22.06 27.05 27.14 30.74 35.87 34.70 33.22 27.54 24.91 23.15 19.18 32.06 40.21 43.71 43.46 33.48 43.74 43.26 42.68
46.39 46.60 46.67 46.67 46.77 46.67 43.58 39.95 39.78 34.21 27.37 29.70 31.80 28.28 29.47 33.42 31.79 29.20 31.63 34.19 34.45 37.29 28.30 23.65 25.30 24.21 31.49 24.49 26.79 28.36 28.84 27.43 25.86 25.17 23.25 28.77 38.44 41.53 44.24 31.77 33.55 42.30 42.48 42.22
46.53 46.90 47.01 46.85 47.01 46.78 44.39 41.12 41.23 35.98 29.18 32.00 33.97 35.21 31.47 34.20 35.60 29.80 33.31 28.93 33.87 32.42 28.19 27.02 26.12 23.10 28.11 28.42 31.42 30.26 29.17 27.80 26.31 26.03 25.43 22.49 40.92 42.14 35.98 39.16 41.62 41.64 41.73 41.45
46.34 46.69 46.85 47.10 46.99 46.83 46.27 39.63 41.87 40.89 33.76 32.86 37.22 37.00 37.80 36.89 37.88 34.63 35.79 34.97 35.00 35.25 31.91 29.96 29.09 24.02 25.33 28.52 25.23 37.20 30.33 32.64 28.80 29.76 28.80 39.58 41.08 39.76 41.87 42.22 40.45 40.60 40.26 41.11
46.44 46.62 46.69 46.90 47.17 47.28 46.19 41.73 41.07 39.66 35.03 32.55 32.64 31.90 37.16 40.08 39.59 41.44 30.93 35.72 39.05 37.96 38.99 35.24 34.50 29.51 31.85 25.16 28.55 33.06 34.78 37.80 34.42 35.04 37.95 37.76 40.52 40.54 41.16 41.40 39.89 39.21 38.38 38.10
46.57 46.53 46.50 46.60 47.01 47.43 46.83 41.67 41.93 39.27 36.51 28.25 31.00 39.32 35.76 39.85 39.29 40.39 39.40 39.91 41.69 41.02 38.90 34.82 32.11 28.98 36.51 34.01 35.33 32.98 36.11 37.97 33.71 36.31 37.96 38.07 38.48 39.21 39.76 38.90 37.77 36.61 35.10 33.28
46.32 46.27 46.51 46.41 46.92 47.20 46.57 44.74 42.40 41.98 35.45 27.43 29.83 36.51 38.07 38.88 37.60 36.29 36.85 38.41 37.93 35.30 33.69 31.75 31.49 33.60 35.70 36.01 35.60 30.71 33.30 31.46 31.40 29.11 34.14 35.84 34.94 36.69 38.05 36.08 34.59 33.45 32.36 30.27
45.58 46.11 46.34 46.83 46.74 46.71 38.76 32.73 41.60 42.83 42.59 35.03 29.32 35.88 37.05 36.82 36.47 34.66 34.69 40.35 36.54 35.65 33.56 33.08 35.56 39.03 35.40 31.05 29.32 32.12 33.51 34.44 33.95 32.83 34.86 35.25 35.72 35.45 35.74 35.25 33.47 32.01 29.82 28.49
45.78 46.14 46.16 46.46 46.32 41.99 38.12 34.63 38.06 43.70 42.60 34.60 28.74 29.21 36.27 37.57 36.29 34.91 34.97 36.97 36.81 37.87 35.60 34.26 35.51 35.83 36.65 30.17 23.55 29.27 32.71 32.40 33.60 32.51 36.15 31.23 31.89 30.06 32.98 33.62 32.44 31.41 28.73 27.47
46.01 45.93 46.11 46.11 45.70 44.54 40.79 43.88 44.22 43.42 37.09 37.06 26.13 24.72 30.64 37.59 32.64 32.12 35.94 33.22 34.99 37.56 35.66 36.47 35.19 36.76 32.94 21.15 26.37 27.16 29.42 31.41 29.65 29.79 31.01 30.30 31.42 31.10 29.63 30.59 30.14 27.82 26.15 25.12
46.11 46.14 46.14 43.63 40.40 37.82 40.62 44.81 44.37 43.87 38.36 31.23 29.04 20.79 22.64 37.81 33.61 36.26 36.64 37.56 31.37 36.91 32.63 32.59 35.31 26.12 21.10 24.36 24.17 23.93 25.30 25.30 26.33 27.61 27.50 27.70 27.64 27.24 26.52 25.65 25.11 24.16 23.95 24.35
44.77 42.07 36.01 32.00 39.47 45.07 44.03 40.43 35.67 35.93 37.66 34.19 30.53 31.33 29.74 35.41 34.33 33.39 32.56 33.57 31.85 28.67 31.53 34.47 25.11 21.15 25.03 24.39 24.66 24.99 24.71 24.89 25.86 23.78 22.20 23.78 25.05 23.97 22.76 22.03 22.58 22.52 21.53 20.71
40.02 36.18 35.55 41.73 44.69 40.56 35.65 31.02 30.63 32.30 29.24 31.01 30.79 33.46 32.26 36.00 32.08 31.21 30.77 30.78 31.90 27.15 30.74 30.35 23.17 19.53 21.81 23.44 22.69 23.87 24.04 23.44 23.04 22.69 22.15 23.86 23.81 22.56 21.20 20.59 20.27 19.77 19.25 17.76
40.93 40.31 42.04 41.42 37.89 35.14 29.65 27.46 29.41 27.99 25.91 31.64 29.66 33.51 35.89 34.52 37.27 32.80 33.21 29.11 30.80 25.18 33.46 22.65 13.81 19.31 22.53 21.89 21.21 21.49 22.13 21.62 20.91 21.03 20.22 21.10 21.21 20.93 20.12 19.27 18.20 17.40 16.92 15.49
40.34 36.33 33.10 32.48 28.37 26.30 16.71 21.86 26.17 28.02 30.77 33.16 33.77 31.19 33.21 33.03 36.10 30.93 30.35 25.53 22.16 31.84 19.40 14.17 16.30 20.66 21.05 21.20 21.09 20.08 20.73 20.29 18.99 18.65 19.37 19.16 18.64 19.41 18.89 17.07 17.00 16.28 14.42 13.83
31.62 25.73 12.83 17.79 11.12 17.21 17.44 24.82 26.42 29.69 31.74 32.62 29.41 31.82 32.06 32.48 29.15 30.63 25.56 24.81 27.15 22.78 6.56 8.79 16.22 19.08 20.02 20.76 20.41 18.51 16.72 15.82 14.79 13.69 13.88 13.28 13.10 12.22 12.01 11.66 11.81 11.51 11.41 10.97
25.52 23.51 13.04 14.02 21.69 23.65 28.23 28.94 29.45 30.40 32.83 32.85 31.39 29.40 28.92 26.22 22.56 27.21 25.20 23.21 7.15 10.96 7.66 13.55 16.34 16.78 19.26 18.86 18.02 14.11 12.89 10.64 11.55 8.47 9.31 6.71 7.17 9.92 10.79 11.65 11.64 11.04 10.56 10.20
24.75 23.26 21.88 24.11 19.30 19.72 24.62 26.66 26.08 31.11 31.16 32.82 29.48 24.02 20.47 19.57 22.95 17.00 13.48 14.70 6.78 7.45 8.22 15.03 16.19 15.04 15.03 14.84 16.88 14.62 12.88 12.11 10.94 10.18 10.12 9.50 6.52 5.98 6.22 6.81 7.79 5.57 7.67 6.87
22.06 19.40 20.04 17.71 16.78 17.98 23.84 25.29 25.93 29.85 28.11 19.24 22.22 15.40 15.95 22.85 13.29 9.17 12.93 5.74 9.15 15.69 17.40 17.26 13.35 12.22 10.61 11.47 13.38 12.09 11.52 10.71 8.82 8.23 9.19 7.35 8.32 9.00 11.81 8.73 7.49 10.75 10.17 9.10

GFSNW_sfc_wetblb_093.txt.gz
Wetbulb
45.72 45.96 46.23 46.19 45.70 44.70 40.52 35.95 26.76 36.72 43.22 25.23 28.29 21.01 29.95 35.42 35.28 37.47 34.46 35.52 34.29 31.82 33.68 32.37 35.20 34.76 37.00 39.82 38.23 33.75 35.79 33.48 26.69 29.64 36.37 40.51 38.54 36.50 37.14 31.26 31.36 33.42 33.49 31.06
45.59 45.81 46.21 46.40 45.75 44.30 36.03 32.52 32.46 37.35 39.69 24.99 17.18 27.35 31.74 33.40 33.27 34.00 32.95 32.18 35.67 35.52 32.57 30.08 36.06 36.74 40.39 40.08 37.91 34.39 35.68 32.09 25.79 27.60 33.75 37.56 36.01 37.43 36.99 36.57 36.02 31.43 29.58 30.90
45.66 46.04 46.28 46.33 45.65 44.95 36.35 31.87 22.16 27.62 33.34 34.28 29.38 26.03 28.00 28.66 36.55 34.66 35.46 34.06 36.20 33.80 31.55 33.95 32.48 35.14 39.58 40.44 38.31 41.71 38.39 31.75 29.35 24.23 29.04 34.16 32.68 35.34 37.17 36.02 32.21 32.69 33.47 35.83
45.59 45.90 46.21 45.86 45.42 44.97 35.89 32.10 23.94 29.88 24.38 29.63 27.64 29.64 30.68 29.76 30.22 35.81 37.18 34.51 34.02 32.24 27.83 29.43 28.95 33.87 35.40 38.07 40.43 36.59 34.70 27.87 30.95 32.68 34.85 34.64 34.92 35.10 36.39 34.82 35.98 32.69 35.01 36.65
45.49 45.80 46.13 46.45 45.46 44.56 34.30 28.53 27.68 30.81 29.61 31.99 32.03 31.05 29.61 30.24 31.96 32.61 31.58 31.33 33.70 33.93 30.93 31.37 29.13 32.63 32.46 32.24 36.22 34.26 34.78 27.26 29.02 27.92 32.78 33.60 31.42 32.78 33.33 36.38 37.30 36.92 37.83 37.19
45.42 45.54 46.17 46.33 45.60 41.70 31.46 31.73 31.48 29.35 26.29 27.40 27.29 28.67 29.44 30.08 32.20 34.72 35.91 34.85 32.47 31.33 33.96 35.49 36.04 36.68 36.35 35.63 34.15 32.10 32.28 29.92 27.79 24.81 30.17 29.67 25.57 32.31 34.11 37.65 38.59 38.16 35.13 39.88
45.02 45.30 45.79 46.24 46.09 42.41 33.79 32.38 30.23 24.09 18.96 25.89 26.73 28.31 29.96 30.24 31.39 30.81 34.24 35.68 33.56 37.49 40.64 39.05 37.26 36.48 36.32 35.49 35.60 35.95 31.11 29.65 28.38 24.42 26.61 17.41 30.74 37.13 40.42 38.69 39.09 40.34 40.80 42.80
44.92 45.22 45.70 45.83 46.23 45.93 35.83 35.25 31.43 27.59 20.41 27.06 27.51 28.12 29.69 30.65 32.66 32.12 35.02 37.46 39.46 40.28 37.31 30.46 29.00 28.52 29.04 31.26 34.25 33.88 34.13 29.75 23.99 21.89 22.24 26.52 30.66 36.03 35.92 34.36 35.97 42.86 42.81 42.99
45.11 45.41 45.90 46.14 46.21 46.45 40.77 36.62 36.16 31.17 24.55 22.95 30.43 27.77 29.41 27.01 28.27 29.23 33.44 38.11 39.43 38.27 32.01 28.21 24.43 22.40 26.75 26.50 30.10 34.56 33.03 31.72 26.68 23.72 20.99 16.04 29.77 38.62 42.18 41.74 32.59 42.21 43.82 43.64
45.36 45.72 46.14 46.39 46.49 46.67 43.19 39.64 37.86 33.58 26.11 28.63 29.55 27.80 28.21 32.14 30.61 28.89 30.58 34.37 34.69 36.60 28.07 26.79 24.55 24.56 30.29 24.55 26.33 27.28 26.78 26.48 24.86 24.53 23.92 26.41 35.40 39.34 42.75 29.73 30.81 41.18 42.79 43.24
45.27 45.86 46.62 46.73 46.96 46.88 44.38 41.21 40.17 35.59 25.74 30.02 32.46 33.03 29.25 32.16 33.10 29.30 31.86 27.85 31.76 31.71 24.93 25.61 25.63 23.93 27.68 27.91 29.34 27.79 26.18 24.26 23.33 25.41 24.50 20.55 38.63 39.45 33.96 38.20 39.64 40.54 40.23 40.61
45.31 46.05 46.51 46.80 46.98 46.90 45.98 39.92 41.06 40.75 34.83 30.42 35.32 35.56 36.37 35.18 35.85 31.46 33.08 32.04 33.57 35.31 31.61 30.40 29.97 23.72 24.13 27.21 23.22 34.37 25.86 31.07 29.29 27.88 26.82 38.27 39.59 38.47 40.16 39.56 36.52 36.32 37.82 39.12
45.71 46.28 46.60 46.81 46.97 47.24 45.88 41.95 40.49 38.71 34.93 32.66 30.69 30.46 35.75 38.31 37.00 39.35 29.27 32.88 36.44 34.56 37.94 33.31 32.67 28.39 29.76 22.23 23.64 31.07 35.41 35.98 32.56 33.66 37.41 38.00 38.81 38.92 38.46 38.49 36.23 35.00 34.38 34.29
46.25 46.35 46.42 46.37 46.77 47.32 46.74 41.69 41.64 39.13 35.89 27.24 29.03 37.97 34.01 37.69 37.78 38.31 38.26 36.16 39.93 40.07 38.13 33.99 31.56 28.36 33.63 30.59 34.30 30.81 32.64 33.93 30.97 33.49 35.40 36.73 36.53 38.06 37.14 34.99 35.27 33.45 31.95 30.68
46.25 46.30 46.38 46.42 46.81 46.79 46.49 44.09 42.30 41.71 35.76 27.55 29.02 36.01 37.75 37.33 36.95 37.55 38.40 37.79 36.85 35.46 33.69 31.73 27.64 32.07 33.39 33.63 33.52 28.28 32.83 29.41 27.56 27.59 31.71 34.34 33.66 35.64 36.66 33.64 31.37 30.45 29.71 27.64
45.77 46.05 46.48 46.71 46.46 46.56 41.12 32.45 41.62 42.59 42.00 34.73 28.43 35.83 35.07 34.62 35.48 34.75 33.54 34.38 37.01 37.38 34.74 32.81 34.43 37.22 35.01 30.27 26.09 29.55 32.65 33.48 31.14 31.65 34.07 32.82 33.46 34.27 33.58 31.41 30.12 29.22 27.73 26.47
45.56 45.77 46.02 46.34 46.39 42.82 38.69 34.72 38.97 43.70 42.24 34.04 29.02 28.38 33.71 36.04 34.43 32.91 32.61 35.39 35.69 36.42 33.84 33.64 34.22 35.25 36.88 28.60 23.42 27.42 31.09 30.70 30.62 31.55 34.17 30.64 30.40 28.74 31.32 31.26 30.08 29.10 26.22 24.75
45.20 45.54 45.84 45.95 46.28 44.53 39.80 43.57 44.36 43.10 38.03 36.93 27.06 23.33 27.68 36.49 30.49 31.89 33.19 31.39 34.24 34.27 32.86 34.87 34.27 34.47 31.27 22.09 24.03 25.40 27.41 28.78 28.59 28.83 29.38 29.44 29.68 28.34 27.10 27.39 27.65 25.91 24.46 23.30
45.87 45.98 46.01 45.06 40.92 36.66 40.66 44.67 44.24 43.29 38.41 29.76 28.77 21.40 17.78 36.24 32.99 33.60 32.20 33.19 29.45 32.82 32.35 32.63 33.15 24.40 16.49 22.33 22.98 23.22 24.62 24.33 24.50 26.21 26.08 26.27 25.91 23.77 23.31 23.39 23.18 22.69 21.89 22.40
45.91 42.94 35.48 31.35 39.13 44.94 43.69 39.06 35.09 33.66 35.62 34.42 28.25 26.53 26.35 34.79 32.11 32.08 30.09 33.48 30.40 27.70 31.89 31.14 23.54 17.35 22.58 23.28 23.40 23.52 23.44 23.61 23.72 23.28 21.26 22.73 23.28 21.71 21.29 20.71 21.30 20.44 20.15 19.46
40.16 33.30 33.16 41.08 44.36 39.21 35.68 29.60 30.21 31.67 28.70 32.39 30.30 30.87 29.76 35.91 30.67 30.11 32.70 30.19 30.85 25.53 29.86 27.61 19.40 17.88 19.89 22.57 21.77 22.51 22.58 21.99 21.65 21.73 22.57 22.79 22.63 21.44 20.33 19.38 19.59 18.64 17.58 16.14
40.50 40.32 41.56 40.00 35.79 33.49 29.29 27.77 29.25 28.03 24.64 29.59 31.49 33.63 35.71 32.21 34.23 32.30 32.29 27.35 30.16 24.74 30.86 22.41 11.80 18.85 21.27 20.77 20.35 20.68 20.93 20.55 20.06 20.67 20.65 20.78 20.64 20.47 19.43 17.92 16.19 15.36 15.20 14.18
39.62 35.95 32.10 32.38 28.60 23.49 23.89 22.02 24.04 26.09 31.23 33.19 33.53 31.26 33.03 32.77 33.86 31.32 29.92 25.97 25.32 28.07 16.06 10.35 14.89 19.68 20.90 20.71 20.02 18.79 19.55 19.09 18.47 17.98 18.62 18.18 16.92 18.19 18.09 16.18 15.89 14.71 12.46 12.31
28.83 25.02 12.05 15.97 8.85 15.77 16.09 21.90 22.40 25.83 32.15 32.86 31.21 31.59 32.14 31.51 26.88 29.06 20.84 22.85 24.73 12.85 6.95 8.78 16.01 18.39 19.02 19.66 19.52 16.73 14.26 13.89 13.06 12.01 12.46 11.76 11.78 10.63 10.05 8.15 5.51 5.65 5.51 4.46
24.16 21.95 9.92 12.56 18.84 19.36 27.04 29.56 30.05 30.87 33.10 32.24 30.05 28.00 28.78 24.69 22.08 23.71 22.20 16.90 9.02 10.00 6.03 8.71 15.38 18.27 18.04 16.59 16.30 12.68 11.43 7.81 8.84 7.00 7.42 2.72 4.20 6.70 6.78 6.03 4.93 5.85 3.24 2.55
22.90 20.58 19.55 22.05 18.44 22.39 25.48 26.60 27.75 30.81 32.02 31.72 28.55 24.23 21.11 19.43 19.65 15.44 11.26 15.62 9.44 6.86 7.92 14.17 17.20 16.61 16.94 17.07 16.44 12.97 10.38 8.40 6.22 5.06 6.09 6.27 3.57 4.03 3.62 5.64 5.04 2.40 3.23 2.59
20.86 16.47 20.78 15.23 15.60 21.55 23.55 24.79 25.77 29.03 26.76 20.67 22.57 16.09 19.09 20.51 11.91 8.74 11.00 5.90 7.77 13.62 15.09 9.78 9.04 11.19 9.43 8.16 10.48 9.85 9.15 7.47 5.11 5.08 6.42 4.59 5.61 6.79 10.69 8.76 9.19 9.95 9.08 4.14

GFSNW_sfc_wetblb_096.txt.gz
Wetbulb
45.37 45.46 45.86 46.22 46.36 44.62 39.33 34.62 24.88 35.22 42.90 30.16 24.87 18.19 27.13 32.96 31.32 36.17 34.15 33.93 33.96 31.37 31.61 33.72 33.86 33.94 36.00 38.85 37.92 33.42 35.50 31.70 26.92 29.81 35.97 39.12 37.55 35.15 35.56 31.21 29.20 32.89 32.32 29.30
45.16 45.47 46.01 46.38 45.35 43.84 34.85 29.42 29.01 35.36 40.35 22.64 25.04 26.51 27.92 31.88 31.48 31.61 32.65 31.20 34.23 34.04 31.01 29.82 33.97 34.68 39.06 39.86 36.90 34.45 35.93 31.57 25.99 28.97 33.27 36.53 35.32 37.33 37.20 36.34 34.77 28.58 25.84 28.40
44.75 45.35 45.82 46.00 44.98 44.43 35.18 30.71 22.18 24.65 35.24 34.55 28.82 26.65 25.33 25.95 34.57 33.57 34.59 33.05 34.27 32.98 31.09 33.89 30.99 33.10 38.12 39.96 37.83 41.44 38.77 31.86 28.35 23.97 27.72 32.23 30.58 34.51 36.66 36.53 30.29 31.07 32.52 33.33
44.45 45.13 45.72 46.12 44.90 44.91 34.53 31.42 23.28 28.54 21.12 27.72 27.35 29.80 28.31 26.97 27.80 35.04 35.53 33.09 32.71 32.26 29.14 30.43 30.02 34.02 34.28 37.45 39.31 36.69 34.65 27.43 30.44 31.21 32.73 33.74 32.69 32.97 34.16 33.61 34.45 31.22 32.11 34.25
44.26 44.75 45.65 45.93 45.59 44.30 31.96 22.72 25.95 30.72 28.25 28.68 26.80 29.09 27.38 28.24 30.02 32.96 31.78 30.79 32.82 34.16 31.34 30.46 29.17 31.86 32.28 32.63 35.55 33.60 34.57 27.34 28.86 27.60 31.48 32.45 30.16 31.32 31.15 31.78 32.47 33.41 35.93 35.82
43.94 44.89 45.33 45.74 45.71 41.23 29.73 30.38 30.81 28.61 25.76 25.80 25.97 27.21 27.74 27.28 31.55 33.15 34.46 33.74 33.13 30.63 33.88 34.59 34.43 35.43 35.51 34.49 32.71 30.97 31.23 29.30 27.04 24.41 28.51 28.12 23.02 28.18 34.15 35.23 37.08 36.40 33.27 38.08
43.84 44.91 45.26 45.47 45.88 41.04 33.60 31.81 29.57 23.56 18.90 24.78 25.66 26.57 28.80 28.52 30.04 29.98 34.12 36.39 33.02 36.48 39.39 37.71 35.96 34.59 34.91 35.01 34.68 35.21 30.10 29.28 28.39 24.32 26.36 15.55 27.13 34.03 38.05 35.81 38.80 39.71 39.27 40.04
43.49 44.62 44.95 45.17 45.50 45.02 36.59 34.91 32.60 27.95 21.93 26.30 26.97 27.30 27.74 29.19 29.90 31.16 32.98 36.60 38.34 38.66 35.43 29.42 27.71 27.50 28.32 30.23 33.35 32.75 33.60 29.41 24.76 21.83 22.41 25.43 28.63 34.24 34.63 33.91 34.62 42.23 42.02 42.01
43.62 44.37 44.69 45.24 45.52 45.95 41.15 37.68 38.16 33.78 24.86 21.88 28.69 26.83 27.33 24.86 27.43 28.27 31.05 36.32 38.34 36.75 30.59 27.02 23.70 21.50 26.08 25.95 28.46 33.77 32.21 31.16 26.96 23.94 20.16 14.08 26.75 36.65 39.57 39.62 30.26 39.88 43.37 42.55
43.40 43.91 44.90 45.48 45.94 46.24 43.53 39.79 39.65 35.93 26.79 28.31 29.02 27.16 29.01 31.81 29.00 28.17 30.26 32.38 34.55 34.19 26.29 24.58 24.24 24.26 29.32 23.81 25.84 27.06 26.98 26.97 24.76 23.93 23.96 26.29 33.72 37.15 39.98 27.83 30.27 38.99 41.53 43.09
42.84 43.80 44.95 45.40 46.15 46.47 43.97 40.69 40.29 36.53 25.90 27.95 31.35 31.42 27.58 28.51 31.25 27.66 29.60 26.45 30.92 29.81 26.26 25.33 25.67 24.30 27.06 27.52 28.91 27.92 26.02 25.08 22.82 26.05 23.37 19.87 37.57 36.91 31.07 35.82 35.93 37.38 38.36 38.62
42.99 43.88 45.10 45.62 46.43 46.77 45.94 39.72 40.80 40.74 34.75 29.63 34.25 34.51 35.28 34.33 34.38 30.21 30.34 30.75 34.00 33.72 30.98 30.46 30.40 26.82 25.82 27.37 23.91 32.65 24.56 31.70 29.74 28.41 27.17 37.26 38.51 37.31 37.88 36.54 33.69 33.76 35.61 35.77
43.06 44.43 45.42 46.04 46.61 47.01 46.11 41.07 39.87 38.28 34.37 33.93 31.09 31.71 34.94 36.76 35.76 36.98 27.56 30.66 35.04 35.10 37.70 32.71 32.35 28.09 30.88 23.16 24.01 31.30 33.38 34.66 32.13 31.40 35.58 36.37 36.87 36.43 36.74 35.83 33.91 32.97 33.81 33.10
43.56 44.75 46.07 46.36 46.76 46.96 46.50 40.91 40.86 38.91 35.91 27.59 28.86 36.33 32.79 36.13 36.35 35.47 34.96 33.82 36.90 39.30 37.37 33.15 31.56 27.17 32.28 29.66 32.08 30.33 30.58 31.58 28.51 32.19 32.74 34.75 34.47 35.42 34.91 33.96 33.46 30.25 29.22 29.11
43.95 45.30 46.22 46.55 46.49 46.76 46.20 43.49 41.64 41.55 36.30 25.55 27.55 34.07 36.78 36.38 34.80 34.87 36.18 35.14 33.65 33.89 33.55 30.49 26.55 28.91 32.22 33.26 31.71 26.61 31.57 27.72 24.90 25.97 30.74 32.19 31.27 33.90 33.90 30.63 29.21 28.58 27.62 25.05
44.15 45.46 46.10 46.29 46.20 46.41 40.79 32.77 41.25 42.54 42.19 34.70 26.86 33.97 33.24 33.98 33.66 33.98 34.15 34.38 36.16 36.90 32.43 32.59 34.16 36.01 34.57 29.69 19.99 29.46 30.13 30.92 29.80 28.25 32.95 31.86 32.04 32.21 32.24 29.14 27.39 26.12 24.37 23.39
44.40 45.42 46.01 45.99 45.90 43.14 38.33 34.97 38.46 43.78 42.35 33.81 28.58 26.79 32.37 33.79 32.72 31.03 31.61 33.14 34.68 33.18 34.98 31.61 31.15 32.03 35.80 27.65 18.27 26.50 29.53 29.92 29.22 30.28 32.12 30.58 28.12 25.95 28.17 28.90 27.28 26.41 23.59 22.61
45.03 45.38 45.79 45.81 45.82 44.69 40.03 43.18 44.11 43.85 38.02 36.40 27.52 23.30 27.27 34.29 29.24 28.33 32.56 30.92 31.50 32.97 33.49 32.95 31.15 33.79 30.38 22.50 24.10 25.02 25.91 28.08 26.80 27.19 28.16 28.88 26.98 25.13 24.14 24.82 25.27 23.68 22.49 21.35
45.19 45.53 45.70 44.15 41.48 35.46 40.25 44.94 44.46 43.34 38.00 30.96 28.46 19.76 16.81 35.06 32.44 33.99 32.68 30.84 24.49 30.03 30.94 29.83 32.66 25.74 17.46 21.98 22.90 22.66 22.93 22.65 22.24 25.64 25.04 25.66 23.46 21.87 21.49 21.52 21.19 20.85 20.09 21.39
45.10 43.42 36.21 29.98 34.38 44.71 42.46 37.82 33.60 33.83 34.52 34.71 27.09 25.38 27.73 34.25 31.63 31.09 30.86 30.57 22.98 26.20 28.25 29.88 24.51 14.35 22.19 22.97 22.74 22.00 21.87 21.89 22.22 21.70 20.44 21.71 22.32 20.81 19.54 19.14 19.76 19.00 18.26 17.44
38.95 32.38 32.95 39.82 44.19 37.89 34.08 29.38 29.30 30.64 28.85 32.31 29.87 30.49 28.80 34.88 27.00 28.95 30.41 28.22 29.59 24.96 27.43 27.84 20.32 17.11 19.77 21.95 20.94 21.53 21.42 21.17 20.78 21.60 21.97 21.76 21.38 20.12 18.85 17.51 17.36 16.61 15.89 14.15
37.87 39.22 41.40 40.49 35.85 32.36 29.28 27.39 29.25 27.77 24.43 28.81 30.05 30.71 34.16 32.66 35.15 31.71 30.87 27.22 29.10 23.40 28.84 21.65 10.83 16.71 20.52 20.42 19.64 19.61 19.97 20.03 19.47 20.37 19.50 19.81 19.96 18.71 17.13 15.85 14.57 13.90 13.53 12.34
40.24 36.34 31.49 32.66 27.75 24.50 19.76 20.85 23.78 18.03 28.78 30.84 33.64 31.40 33.34 32.33 33.09 31.64 30.22 25.60 23.79 27.04 18.04 13.42 14.51 19.38 20.34 19.48 19.15 18.39 19.16 18.88 18.12 17.30 17.66 16.77 15.61 16.02 16.10 14.07 13.55 12.24 9.93 8.52
29.87 27.29 20.43 21.41 12.40 17.67 16.41 19.88 23.05 28.58 31.93 33.01 32.88 31.83 31.37 31.64 29.56 29.15 23.54 23.12 25.33 17.66 8.03 8.93 14.80 17.56 19.03 19.49 19.12 16.44 13.77 13.29 12.95 11.54 11.70 10.84 10.24 8.35 7.70 4.93 2.16 3.44 2.42 -1.52
23.47 23.27 12.40 16.45 17.79 21.49 27.27 30.24 31.07 31.21 33.91 32.47 28.72 27.06 28.04 22.33 21.27 19.48 21.03 18.12 12.26 11.68 8.99 8.50 14.09 15.49 16.75 15.42 14.91 11.50 10.07 5.96 6.81 5.50 5.23 1.21 2.44 4.87 4.58 3.65 0.64 1.91 -1.70 -0.77
22.70 19.73 19.15 22.04 22.34 23.64 25.61 27.80 28.12 30.76 32.35 30.97 27.34 23.01 19.21 17.56 18.68 17.10 14.02 17.25 10.77 7.47 5.25 12.75 17.43 16.06 13.78 12.16 13.27 8.37 7.11 5.81 3.96 2.67 4.27 4.29 1.39 2.35 1.22 1.54 0.93 -2.95 -2.30 -3.15
19.82 15.35 18.78 10.82 12.21 21.84 23.33 25.27 25.92 29.11 29.47 24.06 21.51 17.16 18.20 21.37 13.97 10.66 10.18 4.98 5.85 10.68 12.44 7.56 8.29 11.24 9.66 6.15 7.84 6.82 6.78 5.82 2.89 3.58 4.77 2.76 3.47 4.85 8.62 5.40 2.25 4.80 2.84 -1.51

GFSNW_sfc_wetblb_099.txt.gz
Wetbulb
44.52 45.27 45.71 46.23 46.08 44.32 39.31 33.64 23.79 36.58 41.42 28.38 27.75 23.94 26.41 31.45 29.93 33.43 31.19 33.73 32.52 30.03 32.05 33.59 34.08 32.50 35.37 39.75 39.15 34.82 37.53 34.10 29.55 32.02 38.32 40.64 38.66 35.96 35.67 30.44 29.39 31.57 30.93 31.25
44.43 44.89 45.53 45.98 44.98 42.83 35.78 29.42 29.43 36.92 40.18 21.74 24.36 28.30 27.87 29.72 28.05 30.83 31.20 30.74 32.43 31.60 31.04 29.99 35.54 35.26 39.62 40.40 37.86 36.34 38.35 32.85 28.92 30.47 34.99 38.04 35.94 37.33 37.43 35.62 35.17 29.94 27.69 31.92
44.06 44.56 45.23 45.78 44.72 43.72 36.39 28.71 21.80 27.01 35.40 33.12 27.37 26.38 26.53 26.61 33.25 31.82 34.55 33.00 33.65 33.32 32.49 34.56 32.68 33.66 37.69 40.42 39.54 41.57 40.43 33.58 30.31 26.86 29.71 34.08 31.87 34.49 36.68 35.16 30.53 31.28 31.65 33.94
43.22 44.21 45.01 45.74 45.28 43.91 35.61 32.08 23.65 28.39 21.39 26.39 27.94 29.13 28.83 27.75 28.46 33.34 35.19 32.54 33.46 32.56 29.86 31.09 30.83 33.60 35.46 38.30 39.12 38.14 36.89 29.40 32.25 32.87 33.63 34.48 33.17 32.96 33.80 31.92 33.43 30.34 33.36 33.88
42.83 44.09 44.77 45.60 45.48 43.04 33.21 25.25 26.24 29.80 28.22 28.58 27.08 28.03 26.44 25.88 27.51 31.29 31.39 30.65 33.00 33.46 31.40 32.06 30.52 32.55 33.15 33.14 37.32 35.78 36.77 29.70 31.89 29.27 32.76 33.39 30.45 32.59 32.23 32.84 34.05 34.09 34.37 33.76
42.87 43.86 44.53 45.45 45.73 41.49 32.13 31.80 32.66 30.27 26.39 26.17 25.33 25.82 26.40 27.25 29.68 31.10 34.05 34.08 33.35 32.77 34.16 36.24 36.74 37.10 36.34 36.44 35.03 33.50 33.72 31.67 28.79 24.38 30.42 30.18 25.42 29.88 32.04 35.82 38.55 37.80 34.22 39.32
42.63 43.62 44.61 45.12 45.68 41.37 35.91 33.32 31.72 27.16 21.74 25.37 25.51 26.57 28.14 27.52 29.67 27.51 33.34 36.34 33.75 36.96 39.49 39.08 37.58 36.23 35.52 36.04 36.32 36.74 32.47 31.56 30.47 26.00 27.92 17.53 29.76 35.87 36.54 35.04 37.43 40.70 41.57 42.17
42.90 43.10 44.54 44.85 45.26 43.50 37.54 35.49 33.51 29.27 22.56 26.42 26.83 27.63 27.48 29.49 29.98 31.06 32.22 35.93 37.74 39.31 36.69 31.63 28.74 29.51 30.68 32.09 34.59 34.35 35.81 32.11 27.84 24.32 23.84 27.54 30.97 35.53 34.15 33.72 32.88 40.29 41.26 41.76
42.67 42.85 44.33 44.67 45.07 45.76 40.37 38.18 38.92 35.11 27.95 25.03 29.01 28.14 28.77 26.36 27.83 29.79 31.99 36.82 39.17 37.29 32.38 29.61 24.41 22.58 26.51 26.54 29.65 34.78 33.87 33.84 30.14 26.63 20.86 18.07 29.09 35.88 39.91 39.35 30.27 38.47 40.24 41.87
42.21 42.77 43.82 44.30 45.33 45.54 42.72 39.69 40.29 36.29 29.43 30.24 30.14 28.35 28.41 32.75 30.24 28.44 31.21 32.79 34.31 36.46 29.69 27.73 25.67 25.02 29.66 24.49 25.91 27.66 28.89 29.25 26.57 26.52 24.17 28.07 34.79 37.70 39.80 26.47 29.06 37.65 37.85 38.83
41.73 42.40 43.30 44.30 45.24 45.78 43.59 40.38 40.65 37.02 30.11 30.00 32.11 32.75 29.88 29.97 31.54 27.80 31.79 30.19 32.70 32.56 28.69 27.94 27.55 26.80 28.64 28.23 30.53 29.84 27.92 26.87 26.23 27.22 24.00 21.25 37.58 37.44 32.23 34.34 35.27 36.04 35.39 34.78
41.38 42.12 43.11 44.14 45.17 45.85 45.69 39.02 40.76 41.41 34.93 32.53 35.52 35.95 36.77 35.52 36.10 33.65 31.90 31.92 31.85 34.04 28.96 29.20 29.72 28.02 29.40 27.78 25.21 33.87 28.82 31.68 29.10 30.10 30.23 36.50 37.11 35.40 35.93 35.66 33.21 33.76 34.76 35.03
41.28 41.99 43.16 44.41 45.19 45.80 45.81 40.38 39.84 38.18 34.40 34.54 33.47 33.27 37.32 37.72 37.39 39.34 30.98 32.87 35.93 35.21 37.45 31.92 31.41 28.30 31.81 25.81 27.91 31.19 33.15 33.34 30.67 30.69 32.42 31.67 34.73 34.70 35.00 33.80 30.62 30.34 31.91 32.10
41.17 42.06 43.20 44.50 45.67 46.27 46.59 40.15 40.58 39.03 35.83 28.81 30.48 37.48 34.96 38.38 37.88 37.02 37.56 36.51 38.63 39.34 37.93 33.07 31.19 27.78 33.72 29.64 31.99 30.42 30.28 31.30 27.48 30.53 31.24 33.65 31.95 33.12 32.50 30.88 31.65 29.25 28.04 27.80
41.40 42.48 43.58 45.41 46.43 46.65 45.83 41.92 41.21 42.03 37.02 27.93 29.33 35.33 37.89 37.60 36.15 36.10 37.28 36.30 35.22 35.20 33.64 32.79 30.29 32.15 32.15 34.76 31.83 27.43 30.28 26.83 25.78 25.43 29.71 29.88 29.66 31.96 31.30 28.62 27.01 26.70 26.23 24.77
41.07 42.52 44.43 45.88 46.47 46.38 41.86 32.79 41.02 42.60 42.45 35.07 27.34 35.73 35.59 34.76 34.76 34.72 34.88 35.99 35.90 36.10 34.95 33.63 35.13 36.14 34.21 30.12 26.30 29.43 30.50 30.31 30.01 28.13 32.61 30.47 29.81 30.75 30.83 28.05 26.10 25.24 24.17 23.99
41.33 42.73 44.53 45.65 46.13 43.71 38.59 35.66 39.05 43.52 42.75 33.29 29.40 29.17 33.67 34.63 33.84 33.23 34.24 35.77 36.27 37.29 34.45 31.92 33.68 34.40 34.94 29.94 25.16 28.07 29.94 29.60 29.09 29.66 32.11 28.29 26.61 24.68 27.07 27.84 25.80 25.19 23.43 22.90
41.64 43.25 44.59 44.89 45.91 44.71 40.38 43.17 44.13 43.49 37.20 36.24 28.70 26.17 29.97 35.53 31.27 30.08 34.12 31.97 33.44 34.47 33.02 34.17 33.05 33.67 31.77 25.89 24.83 25.74 26.21 27.90 26.76 27.51 29.32 27.14 25.87 24.77 23.81 25.36 25.15 23.67 22.16 21.52
42.66 43.82 44.69 43.56 41.63 38.31 40.14 44.82 44.59 42.84 37.69 31.78 29.77 23.62 23.01 35.80 33.10 33.66 33.69 33.11 27.15 32.62 31.08 31.82 33.51 28.45 24.95 24.16 24.14 23.30 22.94 22.48 22.36 25.73 26.46 24.96 23.05 21.60 21.58 21.60 21.88 20.85 20.23 20.23
43.11 42.19 37.60 31.49 35.33 44.94 43.63 38.28 34.01 34.22 34.93 34.54 28.01 28.12 28.96 34.85 33.26 31.35 30.71 30.37 28.03 25.68 28.90 32.03 28.65 22.37 22.92 23.41 22.99 22.85 22.22 22.08 23.57 23.96 20.92 22.64 21.78 20.64 19.69 18.88 19.40 18.86 18.07 17.62
39.68 32.06 32.59 38.23 43.21 38.88 34.34 29.59 29.68 31.39 27.88 31.80 30.03 30.14 30.04 36.00 29.81 29.48 32.00 28.87 30.11 23.77 27.61 27.33 23.12 21.06 20.75 22.50 21.56 22.20 22.21 22.11 22.06 22.44 22.37 22.34 21.64 20.25 18.36 17.39 17.42 16.80 16.05 14.47
36.46 38.70 41.16 39.49 35.48 32.24 28.92 27.46 29.66 27.31 26.00 30.66 28.93 29.51 32.52 33.74 36.03 30.78 30.93 27.89 28.55 22.82 31.18 25.37 18.32 18.84 21.21 21.24 20.26 20.42 21.13 20.85 20.53 21.07 20.31 20.79 19.51 18.93 17.50 16.20 15.07 14.44 13.74 12.18
41.28 37.19 32.38 31.82 28.93 25.43 24.03 20.14 23.02 23.87 27.46 30.37 32.46 30.47 32.43 33.06 33.93 32.06 30.21 25.15 25.30 29.08 24.33 21.59 17.37 19.83 20.94 20.25 19.82 19.02 19.97 19.64 18.72 17.64 18.07 17.42 16.29 17.59 16.63 14.56 14.09 12.97 11.02 10.41
32.19 29.28 22.60 25.27 21.40 21.69 19.75 23.37 23.64 26.70 29.26 31.96 32.38 31.91 30.65 31.36 29.55 30.99 27.11 27.29 27.38 21.80 18.12 17.54 17.85 19.56 20.00 19.88 19.28 17.50 14.89 14.24 13.70 13.34 13.42 12.46 11.45 9.53 8.26 6.66 7.34 7.21 5.89 3.47
26.47 24.76 16.33 14.90 19.90 21.02 27.56 30.97 31.96 32.56 34.46 32.33 31.41 29.74 30.34 27.68 27.27 25.02 23.82 22.08 20.76 20.91 19.71 15.35 18.20 19.04 18.46 16.99 15.64 13.89 12.58 10.67 10.43 10.81 9.24 7.24 7.71 8.24 7.39 6.40 7.80 7.37 5.54 5.67
23.66 19.64 17.90 22.34 23.90 25.29 27.59 30.14 29.15 31.75 32.07 31.67 30.62 26.23 25.40 22.96 23.43 21.96 21.70 21.17 19.66 18.07 14.76 16.97 18.66 16.78 16.03 15.21 14.80 12.14 11.33 11.21 10.10 9.87 9.94 9.13 7.81 8.68 8.82 7.80 7.91 5.53 6.64 5.65
20.02 16.11 19.84 15.68 20.31 23.29 24.17 26.35 27.35 29.93 31.57 24.45 24.82 20.33 21.35 22.75 17.56 17.26 17.39 19.06 15.81 13.70 16.18 17.01 16.51 15.74 13.27 11.30 11.28 10.43 10.89 10.30 10.45 10.05 10.65 9.47 9.11 9.10 11.48 10.47 10.08 10.58 9.48 7.13

GFSNW_sfc_wetblb_105.txt.gz
Wetbulb
44.03 44.52 45.03 45.98 46.29 45.17 42.85 44.05 37.81 46.25 48.34 38.49 38.52 32.86 34.13 36.52 35.80 38.32 35.42 34.48 32.09 31.03 32.35 31.25 31.81 34.18 38.57 43.09 42.83 38.56 42.02 38.57 32.69 36.05 42.62 44.75 42.77 40.31 40.43 34.75 32.78 37.04 35.87 36.72
43.78 44.47 44.58 45.78 45.69 45.01 45.99 41.45 41.12 46.90 46.39 32.81 33.56 35.78 34.56 36.43 34.90 35.40 34.77 33.12 35.05 35.94 31.41 28.28 31.18 37.66 42.79 43.06 42.32 39.85 42.08 36.91 30.33 32.73 38.68 42.30 39.34 40.99 41.43 39.89 39.15 34.80 33.06 36.16
43.87 44.03 44.39 45.45 45.78 45.22 44.71 41.48 35.65 40.85 43.42 40.44 35.13 32.96 32.91 32.82 38.14 36.39 36.68 34.84 36.07 35.08 32.86 33.04 31.56 36.22 39.94 43.64 42.61 42.95 43.59 38.15 34.58 30.60 34.57 39.32 36.62 38.70 40.38 39.19 35.14 34.72 36.15 38.18
43.15 43.29 44.17 45.09 45.73 45.29 43.92 41.55 35.88 37.11 34.95 35.49 34.94 35.24 34.71 32.14 30.82 36.03 37.15 35.57 34.99 33.39 30.23 30.38 31.71 34.90 38.13 41.01 42.03 42.34 41.53 33.98 36.03 37.79 39.69 40.12 38.56 37.91 38.56 36.81 37.01 32.96 36.89 38.49
42.13 42.64 43.89 44.88 45.67 44.95 43.84 34.02 38.01 38.78 38.17 34.98 34.42 33.60 32.51 31.63 32.68 32.41 32.29 33.58 35.69 35.67 32.36 32.43 30.45 34.29 35.31 35.16 39.21 38.71 40.47 33.33 36.10 33.64 37.71 38.42 35.99 36.97 35.93 35.68 36.69 38.61 39.59 38.58
42.18 42.91 43.79 44.38 45.88 44.50 42.14 44.85 43.33 39.46 34.57 33.88 33.80 32.99 31.96 32.10 35.29 36.59 37.24 36.84 35.72 34.15 35.45 39.11 38.92 41.26 40.72 39.83 37.09 35.41 35.04 34.40 33.06 27.99 34.31 34.17 30.41 35.00 36.86 37.77 39.72 39.33 35.70 39.29
42.70 42.79 43.30 44.18 45.59 45.23 43.99 45.00 43.11 39.51 33.94 34.93 33.80 33.11 34.37 33.95 34.89 33.33 37.54 38.25 35.91 39.30 43.05 43.65 42.96 41.15 40.89 40.61 40.02 41.11 35.52 34.12 34.78 29.23 31.57 23.46 35.12 41.33 40.29 39.56 38.31 38.74 37.74 38.31
42.52 42.37 43.22 43.77 45.02 46.34 43.94 46.29 41.11 38.39 32.43 36.31 33.75 33.84 34.20 36.79 37.61 36.99 37.06 38.79 40.55 44.45 42.67 36.07 33.60 34.28 34.35 36.73 39.03 39.11 40.51 37.35 32.69 29.68 29.71 32.52 35.30 38.01 37.47 36.93 33.51 38.71 37.34 37.61
42.21 42.79 43.12 43.25 44.78 45.99 45.37 46.43 44.60 39.99 34.28 35.10 35.62 34.70 35.21 34.41 35.31 36.50 37.82 42.38 44.78 43.95 40.16 35.88 29.01 27.20 30.97 30.13 34.47 39.90 38.54 39.43 36.50 32.60 26.48 23.99 32.75 39.47 42.62 42.03 30.56 37.59 38.33 35.89
42.61 42.44 42.74 43.04 44.27 45.02 44.24 41.76 44.06 42.51 36.63 39.28 38.22 35.53 34.40 37.71 36.50 35.15 38.27 38.22 39.39 42.60 36.97 33.04 30.43 29.97 34.48 29.47 29.62 31.54 33.74 34.63 31.81 31.58 30.45 31.92 32.95 37.29 41.63 31.02 28.31 35.41 36.40 36.33
42.82 42.62 42.82 43.25 43.69 44.40 45.92 44.30 46.30 42.06 38.12 39.50 40.65 40.45 37.26 37.46 38.21 33.91 37.50 37.86 38.29 36.22 32.46 31.13 30.49 31.48 33.60 33.13 34.92 33.22 32.32 30.89 31.19 32.60 29.58 25.81 32.90 38.51 31.78 32.59 34.33 34.87 34.44 35.36
42.98 42.57 42.26 42.29 43.14 44.16 45.36 40.87 44.52 43.02 40.59 39.77 44.17 44.20 44.66 42.82 42.18 38.56 39.15 35.41 36.79 37.41 33.50 32.91 33.03 32.54 35.66 33.07 29.88 38.08 31.22 32.29 30.38 29.41 27.66 32.37 33.10 31.82 33.51 35.39 33.98 33.95 34.56 35.16
42.89 42.12 41.68 41.85 43.22 43.94 44.13 42.37 42.62 40.48 36.34 38.32 40.51 41.01 45.37 46.97 45.92 46.31 37.13 40.77 40.23 39.34 41.65 35.48 34.89 31.91 36.56 29.98 31.54 33.91 35.29 38.50 32.56 31.10 30.95 31.52 33.26 34.07 34.69 34.67 33.45 33.87 34.41 34.72
42.49 41.55 41.28 41.53 42.81 44.13 44.02 41.42 42.37 40.60 38.31 34.34 38.48 45.38 42.88 46.20 45.62 45.02 44.63 42.67 43.72 42.87 41.59 36.47 34.69 33.82 38.96 33.74 35.01 33.44 35.36 35.65 31.60 30.81 31.82 32.72 32.22 32.85 33.56 32.89 33.71 34.09 34.67 33.95
42.09 41.16 41.26 42.11 42.91 43.94 45.85 45.38 44.13 43.34 39.10 35.44 38.01 43.48 44.88 45.21 44.27 42.82 43.73 42.12 40.33 39.08 36.95 36.78 34.99 37.90 37.06 39.14 37.83 32.22 35.39 31.16 30.65 28.99 32.53 32.30 30.60 32.43 33.45 32.14 31.27 32.34 32.83 32.61
41.86 40.69 41.02 42.22 42.80 43.94 41.82 33.77 42.71 44.12 43.54 35.79 34.54 42.87 41.82 43.17 43.46 41.68 41.41 41.66 40.73 39.84 36.82 37.08 39.69 40.34 37.28 32.75 31.48 33.04 33.55 33.66 33.60 31.46 33.06 32.63 32.79 32.28 32.45 30.86 30.75 31.55 31.46 31.56
41.39 40.68 41.40 42.06 42.93 43.72 39.29 38.97 42.58 44.44 43.70 35.68 33.44 36.17 39.31 42.07 41.88 42.72 40.96 40.89 39.74 39.68 37.03 36.99 37.70 39.06 38.45 35.55 31.26 31.85 32.42 32.07 32.21 33.88 33.65 31.04 32.21 29.97 31.79 31.41 31.69 31.23 31.10 30.64
40.58 40.66 41.42 42.50 44.27 44.57 40.76 47.16 45.28 44.76 39.62 38.04 33.00 34.50 36.14 41.14 36.68 35.19 40.20 36.68 37.59 38.05 37.19 39.30 36.61 38.28 36.68 29.74 32.56 32.70 31.89 32.27 31.56 32.30 32.94 31.24 30.53 30.61 30.09 31.73 31.43 29.45 28.40 28.11
40.65 41.08 42.19 42.96 40.43 36.30 41.12 45.01 44.96 45.52 40.87 33.96 33.38 32.26 30.70 40.56 37.23 37.97 38.54 37.72 33.26 39.80 34.40 33.96 37.31 34.06 30.78 31.98 33.15 32.87 32.51 31.74 31.75 31.35 30.60 29.60 28.21 27.55 27.83 28.79 28.37 27.16 25.46 25.57
40.82 40.87 36.78 31.95 38.16 44.82 43.91 39.54 36.04 36.57 36.43 37.67 33.02 39.35 33.43 37.30 35.36 34.56 34.47 37.05 33.17 30.50 32.82 37.40 32.68 32.62 32.51 33.62 35.15 33.94 31.97 31.78 32.26 30.19 28.49 28.39 27.08 26.18 25.85 25.19 25.82 25.19 24.19 23.61
39.13 34.13 34.64 42.28 45.01 41.22 37.45 32.32 32.50 33.22 30.01 34.50 36.02 38.06 35.08 40.75 33.99 33.85 37.22 33.85 34.78 27.26 32.91 30.92 29.46 29.67 28.65 31.31 31.13 31.73 31.58 31.17 31.25 31.60 30.42 29.71 29.20 27.21 25.49 24.26 24.12 23.82 22.52 20.16
38.39 40.38 41.56 39.34 36.78 35.76 32.02 31.70 33.38 31.65 30.34 35.97 33.06 36.26 38.00 38.65 41.27 35.69 35.84 31.29 32.17 25.77 36.21 30.81 27.91 26.30 29.06 29.19 28.85 29.44 30.22 29.87 29.09 29.34 27.51 27.13 26.57 26.34 25.19 23.88 22.01 20.63 19.34 18.01
40.61 37.15 34.64 33.40 33.40 29.55 27.98 25.45 29.01 31.27 36.47 36.06 36.12 33.78 37.26 38.58 38.78 35.50 32.85 27.89 28.78 37.15 29.74 28.93 28.57 27.81 28.09 28.04 28.37 27.82 28.24 27.84 27.20 26.25 26.37 25.44 24.65 24.64 23.47 21.06 20.76 19.97 16.93 16.59
34.49 31.46 28.87 29.71 28.44 31.53 33.23 33.76 36.23 39.26 38.51 37.46 36.86 33.81 34.59 35.16 33.18 35.04 29.36 33.52 33.55 27.47 26.18 27.95 27.62 26.83 26.75 27.13 26.83 25.14 23.16 23.22 23.58 22.70 22.02 20.27 18.67 16.60 16.18 15.93 16.11 15.35 13.69 12.51
31.77 32.12 28.78 30.26 35.51 35.70 36.41 37.97 38.99 39.84 40.72 39.80 36.09 34.86 34.38 32.76 31.54 31.66 31.87 28.44 26.71 28.20 29.57 29.30 28.29 26.92 25.64 24.59 24.21 21.72 20.27 19.73 20.26 20.08 17.81 16.17 16.07 16.03 15.83 16.54 16.93 15.43 13.82 13.46
31.52 29.19 28.85 31.57 32.86 30.92 33.59 33.22 34.49 40.46 40.61 40.90 38.69 33.78 30.64 30.50 32.80 28.63 28.18 27.58 27.24 30.96 30.62 28.74 27.17 25.61 25.21 23.83 22.47 20.97 20.92 21.32 20.42 19.10 18.51 18.01 16.87 17.79 18.01 17.16 16.07 15.15 14.55 13.61
28.25 28.37 30.61 31.77 35.40 33.95 33.77 36.64 35.64 41.05 39.03 34.35 35.41 31.04 29.71 34.12 30.01 28.39 33.28 31.60 30.22 29.77 28.03 28.48 27.53 25.45 23.55 22.16 20.98 20.03 20.50 21.03 21.12 20.71 20.29 19.28 19.97 18.75 19.20 18.59 18.14 18.96 16.95 14.97

GFSNW_sfc_wetblb_108.txt.gz
Wetbulb
44.83 44.95 44.97 45.66 46.16 45.98 44.18 44.36 37.34 46.50 49.72 38.39 39.02 33.37 35.19 37.85 37.67 40.23 37.70 36.64 34.34 32.24 32.63 30.85 30.43 31.75 35.40 41.97 41.63 36.32 40.61 37.11 32.41 34.95 42.02 43.32 40.27 37.94 37.82 33.07 31.86 35.49 33.23 32.53
44.39 44.72 44.72 45.61 46.06 45.61 45.28 41.16 40.71 46.88 47.13 33.20 33.99 36.48 36.38 38.16 36.89 36.87 35.72 34.17 35.65 36.12 32.24 28.77 31.70 33.44 42.22 43.64 42.55 39.40 40.63 34.76 29.73 31.26 36.24 40.60 37.66 39.83 41.18 39.65 37.65 34.40 32.29 33.04
44.16 44.50 44.33 45.08 45.91 46.25 43.96 41.27 35.78 40.44 41.95 40.27 35.51 33.63 34.08 34.04 38.94 37.48 37.65 36.67 37.48 35.77 32.72 33.46 31.51 34.44 40.49 42.91 42.27 42.81 43.97 37.29 33.46 29.65 32.99 38.54 35.76 38.71 40.24 38.76 33.64 34.24 33.69 36.20
43.90 44.05 44.04 44.56 45.58 45.93 43.81 42.46 36.91 38.42 34.17 35.73 35.33 36.14 35.57 33.10 32.19 37.25 38.15 35.94 35.74 33.98 29.48 31.28 32.09 35.50 37.73 41.26 42.37 41.60 38.79 34.00 34.49 36.10 39.10 39.57 37.68 37.61 38.83 36.77 36.79 33.23 35.62 34.83
43.30 43.05 43.54 44.25 45.41 45.66 43.03 33.49 38.02 38.43 36.65 36.45 35.33 34.73 33.32 32.33 33.80 35.29 33.72 33.95 35.40 35.18 31.45 32.50 31.61 34.64 35.70 35.55 39.81 38.45 39.03 32.00 35.21 31.62 37.37 37.55 33.92 36.27 36.83 37.99 38.58 37.76 38.57 35.46
42.68 42.85 43.68 44.12 45.20 45.39 42.41 44.34 43.40 39.61 36.18 35.36 34.10 33.94 33.30 33.32 36.25 36.93 38.01 37.16 35.30 34.34 34.97 39.02 40.96 41.81 41.12 39.79 38.24 35.96 35.11 34.46 32.38 27.46 34.87 34.37 29.34 34.84 36.38 36.16 36.84 36.09 32.69 35.62
42.80 42.85 43.30 43.82 44.94 45.71 44.66 43.59 42.88 37.58 33.17 34.37 34.35 34.52 35.75 35.17 36.19 34.24 38.14 38.73 35.84 38.65 43.59 44.70 43.22 42.23 40.88 40.67 39.63 40.27 34.30 33.94 34.42 27.95 31.34 23.66 34.03 41.01 38.99 35.37 35.63 37.46 36.43 36.44
43.01 42.66 43.05 43.45 44.75 45.13 45.16 44.87 41.59 38.45 33.67 36.20 35.14 34.66 35.25 37.07 38.96 37.54 37.98 39.39 41.03 44.02 42.16 36.99 33.15 34.23 35.18 36.51 38.76 38.72 40.13 36.90 32.34 28.88 27.90 31.62 34.96 36.15 34.58 34.80 31.24 35.81 35.46 36.49
43.21 42.34 43.21 43.16 44.43 44.96 45.67 45.74 45.71 41.40 34.95 34.83 37.06 35.14 37.21 34.16 34.65 36.47 38.54 41.83 45.00 42.93 39.82 36.40 28.97 26.14 30.35 29.92 33.69 40.32 39.89 40.59 35.43 33.00 26.37 23.90 29.58 33.69 39.38 39.73 27.17 34.96 35.62 34.90
43.18 42.90 43.12 43.17 44.43 45.20 45.38 44.94 46.83 41.14 35.75 39.38 38.97 34.66 34.37 37.97 36.34 34.93 37.84 37.53 38.75 41.68 36.55 32.93 29.25 29.11 35.10 28.41 29.44 31.35 33.21 33.91 31.24 31.29 28.96 28.95 31.09 35.50 39.42 28.94 26.39 34.75 35.00 34.79
43.27 43.05 42.85 43.38 44.13 44.94 45.26 44.89 46.83 41.84 38.02 39.04 40.81 40.87 36.91 37.85 37.50 32.86 36.59 36.89 37.06 35.78 31.93 30.55 30.67 30.46 32.46 32.39 34.31 32.85 29.78 29.58 28.63 30.74 27.55 23.26 32.58 34.96 28.74 31.37 34.92 35.25 34.50 34.56
43.82 43.03 42.97 43.15 43.30 43.70 45.00 42.21 46.33 45.74 39.63 39.62 43.67 43.96 44.71 43.11 41.97 38.24 38.46 36.16 36.80 37.50 33.78 33.27 32.56 31.15 34.94 32.56 28.77 36.64 28.45 32.26 28.96 27.81 26.76 32.32 33.25 32.00 34.40 35.14 33.17 33.29 33.64 34.65
43.66 43.30 42.32 42.37 42.87 43.65 44.67 42.33 43.23 42.59 37.17 37.43 40.24 41.11 45.65 47.33 46.42 46.74 36.47 40.08 41.12 38.57 41.24 37.34 35.12 31.14 35.24 29.60 31.17 33.47 35.67 37.85 32.16 30.68 31.11 31.23 32.99 33.62 33.98 34.69 33.73 34.16 34.49 34.21
43.39 43.08 42.27 41.84 42.37 42.92 44.09 42.20 42.87 41.23 37.87 33.02 38.43 46.15 43.35 46.87 46.26 45.41 44.89 42.41 43.09 42.07 40.99 37.38 34.68 32.75 38.65 33.29 34.86 33.82 34.67 35.80 31.67 29.80 31.86 32.01 31.62 32.41 33.11 33.01 34.29 34.23 35.12 33.48
42.78 42.23 41.63 41.44 42.17 43.33 44.02 44.75 43.84 43.90 38.42 34.05 37.25 43.75 45.57 45.92 44.88 43.31 43.86 42.40 40.17 38.54 36.30 36.06 33.94 37.72 36.80 37.76 37.49 32.44 35.36 31.50 29.81 27.69 32.90 31.57 30.39 32.10 33.65 32.28 31.57 32.41 32.00 32.07
42.81 41.92 41.59 41.72 42.77 43.45 43.41 34.57 44.59 45.20 43.90 34.85 32.75 42.97 42.69 43.98 44.08 42.40 41.63 41.66 40.37 39.42 36.94 36.16 38.21 40.96 37.46 32.82 31.17 32.35 33.36 33.58 34.14 31.33 33.20 32.93 32.53 32.46 33.30 31.66 31.10 31.96 31.05 30.74
42.52 41.81 41.18 41.96 42.84 44.27 38.71 37.52 42.03 45.43 44.73 35.47 32.58 35.73 41.31 42.67 41.76 41.68 40.62 41.15 39.64 39.10 37.74 36.32 37.01 37.95 38.29 35.32 30.27 32.26 32.17 32.57 33.08 34.33 33.49 30.43 32.05 30.31 32.63 32.88 32.78 32.80 31.51 30.32
41.84 41.12 41.19 41.85 42.68 42.59 39.95 45.14 45.21 44.91 39.93 38.08 31.99 34.35 36.36 41.58 36.38 35.40 40.52 37.10 37.96 38.44 37.50 38.63 35.70 37.99 37.44 30.34 33.38 33.72 32.50 32.75 32.10 32.40 32.97 31.92 32.11 32.04 31.34 32.64 32.45 30.21 27.84 27.51
41.06 40.85 41.54 41.95 39.49 36.68 40.77 45.42 45.26 45.79 40.81 34.12 33.03 30.69 30.74 40.60 38.13 39.05 38.24 38.80 33.05 39.08 35.30 35.24 36.40 34.03 30.38 33.89 34.02 33.10 32.92 32.60 31.94 32.07 31.44 30.99 29.58 29.09 29.01 29.25 29.04 26.81 24.90 24.74
41.12 40.78 36.97 32.06 37.16 44.77 43.95 40.62 35.80 36.48 37.39 37.85 33.68 38.40 33.70 38.06 36.39 34.79 33.99 36.70 33.04 30.33 33.61 38.19 33.06 32.15 34.44 36.14 36.67 36.00 34.81 33.84 34.57 30.47 28.91 29.46 27.81 26.29 25.88 25.16 25.24 24.28 23.16 22.48
39.04 33.87 33.69 41.95 44.77 40.13 36.04 32.06 32.06 32.97 30.87 34.27 35.99 37.59 35.37 40.65 33.97 33.43 37.34 33.25 34.10 27.42 32.05 31.43 29.95 29.08 30.29 33.68 32.90 33.56 33.27 33.23 32.72 32.16 30.93 30.77 29.87 26.91 25.32 24.09 24.12 22.99 21.35 19.07
39.20 39.30 41.24 39.95 37.27 34.05 31.88 31.10 33.15 31.24 29.88 35.54 33.76 36.90 39.06 40.26 41.45 36.04 35.99 31.48 32.64 25.27 36.24 30.67 27.03 27.28 31.16 31.31 30.37 31.07 31.53 31.05 29.84 29.82 27.97 27.53 27.10 26.62 25.07 23.34 21.41 19.81 18.60 17.21
40.94 36.39 32.42 33.15 33.33 29.09 27.10 25.22 28.62 30.83 37.58 37.43 38.35 35.17 38.45 39.08 39.74 36.39 33.41 27.77 28.22 36.25 29.67 27.30 28.07 29.08 29.68 29.47 29.41 28.63 29.22 28.84 27.40 26.25 26.26 25.64 24.71 24.61 23.14 20.84 20.30 18.89 15.76 15.65
33.15 32.06 27.79 29.41 27.83 29.76 32.10 33.20 34.82 40.40 39.01 38.99 39.05 35.88 34.93 37.36 34.10 33.51 27.25 33.09 33.15 26.64 24.86 27.24 28.19 28.78 28.69 28.94 28.08 25.98 24.47 24.47 23.93 22.66 21.26 19.32 17.61 15.75 15.55 15.06 15.19 13.60 12.13 10.91
31.29 32.12 27.06 29.81 36.09 36.56 36.41 39.85 40.03 40.71 42.01 39.29 36.03 35.05 35.32 32.48 30.23 30.71 30.79 28.01 25.32 28.08 28.64 29.32 28.59 28.32 26.79 25.64 24.46 22.61 21.74 21.03 21.02 19.84 17.08 15.61 15.55 15.87 15.76 16.07 16.41 14.93 12.31 12.01
32.02 30.53 28.77 33.51 33.75 31.86 33.33 35.32 36.23 42.64 40.80 40.05 38.43 32.71 30.46 29.13 30.48 27.53 26.51 27.05 26.43 31.00 28.87 28.76 28.43 26.74 26.33 24.82 23.27 21.83 21.88 22.06 20.85 19.02 18.20 17.72 16.20 17.10 17.84 17.51 16.01 13.52 13.83 11.89
29.54 29.32 32.94 31.37 32.04 33.87 33.69 34.93 38.54 42.97 38.79 33.55 35.04 30.18 28.22 34.37 29.69 27.13 33.04 31.56 30.43 29.03 28.39 29.32 28.19 26.35 24.70 23.20 21.74 20.96 22.12 21.52 20.90 20.80 20.27 19.23 20.80 18.85 18.02 16.42 16.83 16.71 16.93 14.02

GFSNW_sfc_wetblb_111.txt.gz
Wetbulb
44.69 44.76 45.08 45.21 46.21 46.35 43.21 38.79 31.17 41.96 43.61 30.78 32.41 24.77 32.71 37.77 36.95 38.91 36.22 35.43 33.20 31.44 31.46 28.86 27.15 29.41 33.15 39.88 40.98 35.68 37.83 32.81 31.02 33.42 39.77 42.15 38.91 37.16 36.66 31.04 29.82 32.34 32.31 28.67
44.82 44.75 44.79 45.21 46.08 45.88 39.86 35.50 34.75 41.52 42.20 23.37 24.14 33.13 35.25 37.30 35.65 35.85 34.46 34.28 34.39 34.11 29.82 25.82 27.31 32.62 38.01 40.52 40.23 37.37 38.61 33.87 28.13 29.44 35.02 39.20 35.88 37.20 38.46 38.20 35.90 31.95 28.81 29.03
44.28 44.26 44.59 45.08 45.77 46.23 40.33 34.73 27.41 33.74 35.86 33.94 30.24 30.06 31.92 32.32 37.74 35.88 36.29 35.58 34.34 31.63 26.80 32.18 30.82 32.73 37.89 40.93 40.80 43.58 42.16 35.76 32.40 27.98 31.68 36.16 34.00 37.04 38.28 36.50 30.94 32.22 31.77 30.95
44.20 44.21 44.10 44.53 45.54 46.09 39.31 33.50 29.06 34.19 24.04 28.94 29.75 31.81 33.13 30.91 30.24 35.90 36.29 31.69 32.74 29.70 24.10 28.13 27.24 33.65 35.66 38.54 41.04 39.64 37.63 31.98 33.02 34.24 36.12 36.07 34.15 33.84 34.72 33.84 35.58 31.35 31.23 29.70
44.15 43.73 43.70 44.23 45.26 45.78 37.67 25.13 32.30 32.09 30.23 33.63 30.32 32.55 31.32 30.67 31.57 31.77 30.59 31.05 32.92 32.46 28.60 30.54 29.05 33.47 34.33 33.24 37.48 36.62 38.37 32.55 32.24 30.83 34.75 35.29 33.10 34.74 35.10 35.08 36.28 35.88 33.71 30.60
43.60 42.98 43.27 44.21 44.95 44.56 38.28 38.18 36.71 33.25 33.29 30.23 27.68 28.63 30.72 31.32 34.02 35.40 35.84 34.21 32.43 30.75 32.67 36.18 37.32 38.15 38.81 38.49 37.30 34.36 34.35 32.40 30.51 26.37 32.48 34.11 29.09 32.08 32.46 32.91 34.39 33.72 29.49 34.10
43.08 42.88 43.57 43.91 44.82 44.92 42.53 39.33 37.61 31.42 26.20 29.16 30.87 33.74 33.92 33.20 33.97 32.70 36.41 35.86 32.31 36.60 40.63 40.42 40.53 39.34 39.51 38.66 38.90 39.12 33.93 33.51 32.71 26.35 29.82 23.49 30.57 36.15 34.64 31.69 32.61 34.21 34.17 33.14
43.17 43.37 43.36 43.63 44.56 44.99 42.52 40.53 37.09 32.83 26.00 32.06 33.74 33.44 33.33 34.44 35.94 34.23 36.53 36.32 37.37 40.20 38.45 33.97 31.07 30.79 32.41 35.00 37.90 37.52 38.69 34.88 29.82 25.73 27.10 30.76 30.75 30.96 30.28 31.60 28.89 33.44 32.18 33.38
44.07 43.66 43.26 43.23 44.27 44.65 41.79 41.08 41.93 36.22 29.41 29.74 36.52 32.53 34.57 28.99 27.79 30.77 34.99 38.01 40.10 38.24 34.97 31.15 26.42 24.00 28.96 29.11 33.19 38.93 38.30 36.85 32.45 28.78 24.71 21.55 27.00 30.76 34.78 36.29 23.47 33.62 33.54 31.48
44.00 43.55 43.51 43.35 44.35 45.14 41.71 40.65 41.93 37.04 28.11 37.24 35.84 30.58 30.19 34.23 31.88 29.43 32.83 33.34 34.25 36.34 28.24 28.19 25.37 26.60 33.65 27.82 27.53 28.30 28.83 29.35 26.57 27.68 25.77 26.04 28.99 32.07 35.71 25.23 24.22 34.67 34.48 32.34
43.85 43.92 43.63 43.97 44.24 45.09 42.78 40.14 42.18 39.71 33.72 35.08 38.56 39.00 33.26 33.54 32.72 25.70 31.53 29.32 31.12 29.01 26.97 26.46 27.11 27.05 30.65 31.20 32.40 31.06 27.53 27.33 24.05 26.06 23.80 19.38 31.86 31.99 26.60 31.89 34.21 34.69 34.56 33.59
43.68 43.75 43.75 43.98 43.97 44.51 44.17 40.55 44.34 42.30 34.77 34.27 39.06 39.99 40.93 39.15 37.81 33.78 33.60 32.43 34.10 33.03 26.79 27.95 29.66 29.57 29.66 29.09 24.94 34.57 26.06 30.61 25.82 26.44 24.98 31.83 33.06 32.37 33.92 34.14 32.49 32.30 32.91 33.94
43.78 43.62 43.19 43.23 43.36 44.24 43.63 41.41 40.44 38.30 32.81 33.01 34.42 37.46 42.05 44.09 42.23 41.84 31.87 37.07 37.67 35.43 36.57 29.76 32.35 29.28 31.54 25.43 27.41 30.94 34.07 36.15 28.69 28.76 30.34 30.85 31.97 32.79 33.06 33.70 33.41 33.53 32.25 31.42
43.74 43.69 43.20 42.89 43.44 43.83 43.82 38.26 42.06 40.29 36.11 31.10 35.07 43.68 40.51 44.12 43.01 41.55 40.58 38.57 39.51 37.24 35.37 32.16 32.17 28.56 35.02 29.50 32.28 28.60 32.40 32.75 30.51 28.71 30.25 30.46 31.36 32.09 32.93 32.53 32.66 32.29 31.70 30.16
43.28 43.40 42.70 42.21 42.41 43.44 41.80 40.81 42.37 42.25 36.44 32.31 31.26 38.61 44.22 44.02 42.20 40.20 39.66 38.52 35.37 32.37 30.26 28.55 28.05 32.35 32.04 32.86 34.06 29.04 31.56 29.58 28.28 25.19 32.68 30.22 29.45 32.06 33.28 30.74 29.87 29.69 29.12 28.35
43.14 43.12 41.83 41.79 42.54 43.64 38.77 33.11 40.09 42.12 40.56 33.62 27.92 38.75 40.20 41.69 41.34 39.52 38.41 38.79 35.54 33.64 31.03 29.94 32.69 37.98 31.07 26.52 23.83 31.29 31.61 32.93 33.88 29.55 32.86 31.99 31.92 32.59 32.66 29.57 30.15 29.51 28.25 27.77
42.96 42.71 42.04 41.73 43.21 39.78 35.80 33.45 41.44 44.92 43.18 34.96 29.24 30.83 38.04 40.55 40.90 38.40 35.84 36.28 34.38 33.43 32.26 30.42 31.32 32.78 34.64 23.28 20.91 30.22 31.53 31.89 32.88 33.47 32.90 30.45 31.86 29.37 31.89 31.93 30.87 29.90 27.83 26.96
42.48 42.31 41.73 42.25 42.75 41.50 36.37 41.47 45.20 44.47 39.08 36.74 30.12 27.66 31.91 37.79 31.28 30.80 35.78 31.72 32.95 32.68 31.62 32.40 30.76 32.41 31.28 24.97 31.28 31.64 31.83 32.00 31.89 31.86 32.28 31.10 31.26 30.54 29.81 30.77 29.11 25.94 23.88 23.70
41.90 41.65 41.97 40.44 38.26 35.50 36.77 45.19 45.25 44.62 39.11 31.15 30.48 27.06 20.06 36.82 35.72 33.95 33.69 34.55 29.62 33.22 26.82 29.95 30.35 26.54 22.16 29.97 30.29 30.02 31.36 31.47 29.57 31.09 30.46 29.60 26.69 26.05 25.71 25.43 24.56 22.14 21.10 20.46
42.16 38.88 35.51 31.08 35.94 44.02 44.57 38.62 35.98 35.81 36.82 35.52 30.87 31.59 26.27 33.50 31.65 28.87 31.29 32.80 26.26 22.82 29.24 32.54 25.29 23.06 32.17 34.50 34.42 32.32 31.91 31.77 31.67 27.45 26.27 25.85 23.59 22.96 22.62 22.01 21.67 20.51 19.26 18.53
35.91 32.91 32.25 39.93 44.05 39.75 35.34 30.29 30.63 31.61 29.58 31.30 31.09 32.18 27.43 35.35 25.43 27.95 32.36 24.72 26.16 20.63 25.61 23.49 21.53 24.28 28.63 29.01 28.67 29.83 29.83 29.67 28.58 28.03 26.84 27.27 25.22 22.84 21.89 20.80 20.21 19.01 17.68 16.14
36.42 37.26 40.78 40.65 36.72 32.88 30.14 28.14 30.94 27.74 25.58 30.14 26.66 29.54 33.99 31.18 35.91 29.24 29.73 25.17 24.54 20.50 27.81 20.98 15.62 26.84 29.02 28.41 27.36 27.49 27.47 26.85 25.97 25.82 24.35 24.09 23.83 22.71 20.92 19.43 17.96 16.69 16.04 12.60
37.62 35.87 32.17 31.46 30.56 26.61 22.91 22.96 25.32 21.43 28.33 30.66 29.49 30.96 34.14 32.49 32.74 25.38 29.57 24.30 18.05 26.55 19.11 20.81 22.91 27.81 27.72 27.50 25.85 24.92 25.01 24.68 24.09 23.00 21.89 20.28 20.15 21.46 20.18 18.14 17.33 14.92 11.40 8.41
30.12 29.37 25.47 25.18 23.60 21.83 23.87 25.12 26.59 29.27 32.00 31.70 31.14 27.50 28.13 27.88 27.29 28.47 25.67 27.35 27.27 23.60 17.34 19.29 25.48 26.92 25.56 25.69 24.25 21.74 19.53 18.79 18.00 16.80 15.80 13.87 13.16 10.89 10.12 7.52 5.21 4.57 1.37 -1.09
29.56 30.47 24.09 21.37 26.34 32.52 32.11 32.88 30.89 31.72 33.80 32.19 28.10 27.82 28.33 28.53 28.09 28.83 27.35 24.98 20.24 19.92 21.93 26.64 26.77 25.22 22.13 20.67 20.50 18.46 16.57 14.65 13.65 11.78 10.04 7.47 7.28 8.85 5.51 4.12 4.05 3.95 0.48 -0.14
29.91 28.94 26.32 29.41 30.70 30.45 32.14 31.28 32.73 34.13 31.40 29.81 30.07 26.44 26.79 26.56 27.57 25.18 24.11 21.58 17.66 22.96 26.33 25.93 25.17 22.86 20.82 19.18 18.72 16.33 15.97 15.06 12.88 11.41 10.72 10.24 7.60 8.30 8.36 5.62 5.49 2.27 2.22 0.49
27.05 26.39 28.37 27.60 27.59 31.39 32.20 32.75 32.75 34.47 30.38 28.11 26.43 20.86 24.20 26.56 22.85 25.07 24.23 18.27 27.06 26.52 26.57 26.79 25.36 20.90 18.17 16.96 16.54 15.29 16.16 14.22 12.95 12.16 11.89 9.25 10.78 11.72 13.09 9.25 6.24 8.37 10.28 4.54

GFSNW_sfc_wetblb_114.txt.gz
Wetbulb
45.20 45.41 45.84 45.64 45.98 45.82 42.84 37.84 30.68 40.81 43.00 29.89 28.60 24.14 31.75 37.49 35.58 37.44 34.90 34.42 32.88 29.40 29.55 28.26 27.86 29.55 34.23 39.54 39.79 35.89 38.05 32.60 27.14 33.51 39.06 41.39 37.58 35.19 35.01 24.82 26.99 32.39 29.94 25.25
44.83 45.52 45.59 45.66 46.30 45.60 39.70 35.74 33.94 39.85 40.61 23.59 22.83 30.73 34.16 35.91 34.27 34.11 33.09 31.62 34.16 32.17 28.86 21.07 25.81 31.57 38.34 39.61 38.25 37.25 38.75 33.61 28.12 30.18 34.06 38.69 35.33 37.35 38.11 36.49 33.67 31.29 26.95 26.22
44.80 45.22 45.26 45.42 46.11 46.30 39.58 33.82 26.89 32.24 34.85 32.05 29.40 28.52 30.22 30.55 35.94 34.40 34.87 33.23 31.92 28.53 22.48 28.35 24.36 30.29 36.68 39.27 38.86 42.85 41.39 34.06 29.85 25.12 30.01 34.28 33.60 35.74 37.39 36.15 30.36 27.88 27.80 27.71
44.19 44.57 44.76 44.99 45.63 46.07 39.13 31.40 28.26 32.35 23.92 28.01 28.67 29.93 31.75 29.30 28.28 34.05 33.89 29.91 30.69 27.15 18.90 24.93 24.20 31.51 34.14 37.74 39.73 38.10 36.57 30.03 32.53 34.50 35.23 34.98 32.48 35.17 35.27 34.29 32.88 27.60 28.07 26.54
43.76 44.07 44.27 44.67 45.36 45.69 37.63 26.56 31.13 31.02 29.00 33.61 28.80 29.92 29.85 29.01 29.91 29.74 28.18 29.00 31.38 29.96 26.96 27.80 26.20 31.12 32.41 32.32 36.37 34.82 37.68 30.95 32.10 30.36 33.76 33.34 30.43 31.96 33.03 34.30 33.13 30.90 29.21 26.58
44.15 43.74 43.87 44.57 45.46 44.09 37.04 36.86 35.88 32.10 31.14 28.33 25.76 26.19 29.05 29.65 32.12 33.68 34.35 32.21 30.38 28.83 30.89 34.48 35.57 35.91 35.93 36.07 34.39 34.07 32.41 31.25 30.45 26.40 32.29 31.63 24.58 29.35 30.25 30.72 31.69 32.51 28.49 30.08
43.68 43.41 43.95 44.62 45.00 44.63 39.94 37.67 35.84 29.60 24.47 27.91 28.24 32.63 32.51 31.73 32.91 31.03 34.27 33.95 30.92 34.79 38.68 38.10 38.01 36.78 36.96 37.56 38.10 38.87 33.73 32.15 31.46 27.13 29.48 18.84 28.65 34.25 32.58 29.63 31.70 31.94 31.90 29.88
43.48 43.41 43.99 44.19 44.74 45.06 40.99 39.08 35.44 30.88 23.96 30.28 32.24 33.10 32.71 32.46 32.78 31.96 33.33 34.41 36.19 37.46 35.48 32.15 29.36 29.09 30.98 34.16 37.53 36.78 37.77 34.16 28.55 26.91 25.97 27.50 27.84 29.10 28.21 28.94 27.12 33.57 30.34 32.68
44.19 44.38 43.94 43.89 44.67 44.55 40.41 39.68 39.30 33.83 28.31 28.25 35.16 31.08 32.08 26.99 27.06 28.85 32.89 36.31 36.85 35.82 32.31 27.82 24.80 24.36 27.80 28.68 31.95 37.08 36.25 35.01 30.99 28.68 22.53 18.39 25.07 29.24 33.08 33.50 22.96 33.61 31.66 29.76
44.26 43.97 43.96 44.21 44.98 45.36 40.81 38.69 39.37 34.75 27.27 33.18 33.98 29.81 29.06 32.67 29.76 27.54 30.09 31.77 32.94 33.70 25.10 25.04 23.88 25.02 32.72 27.09 26.62 28.05 28.10 28.92 24.97 26.85 23.90 24.84 27.78 31.27 34.98 23.68 23.47 33.57 32.11 30.03
43.92 44.23 44.16 44.98 44.91 45.43 41.16 38.54 40.13 36.23 28.81 31.96 37.16 37.87 32.00 32.52 30.84 24.12 29.57 27.22 29.92 28.05 24.38 24.73 24.57 25.67 29.65 29.30 31.20 29.72 27.52 25.55 22.67 25.29 21.13 18.20 30.60 30.24 27.15 30.31 33.07 32.76 33.04 31.84
44.04 44.24 44.34 44.81 44.91 44.77 43.23 37.14 42.12 40.40 32.79 31.40 37.54 37.96 39.13 38.28 36.71 32.13 31.79 33.77 33.04 31.05 25.25 29.11 27.36 26.69 28.42 27.52 22.19 33.64 25.28 27.54 24.80 26.10 23.79 30.67 32.08 31.73 33.40 32.94 31.02 30.12 29.92 32.74
44.20 43.90 43.95 44.00 44.43 45.01 43.21 40.83 38.01 35.27 29.89 30.49 33.04 35.47 40.22 41.62 40.03 39.36 30.79 33.31 36.09 33.12 34.42 32.18 30.85 27.61 29.93 25.52 29.12 28.49 32.77 34.63 26.09 26.31 29.94 30.24 31.46 32.25 32.30 31.36 31.39 29.41 29.05 29.55
43.95 43.91 43.98 44.07 44.45 44.64 42.66 36.40 38.11 35.59 35.31 25.27 34.25 43.24 38.93 42.46 41.60 40.02 38.41 36.87 37.07 34.93 33.02 29.65 31.51 27.43 33.03 29.26 31.69 26.62 30.18 31.58 28.39 27.84 29.55 30.31 31.40 31.92 31.24 29.81 30.01 28.73 28.51 28.09
43.82 43.62 42.89 43.43 43.67 44.07 40.88 38.15 38.47 38.88 34.29 30.05 30.79 36.76 42.93 42.25 40.80 38.90 38.22 37.18 33.88 30.38 28.70 26.12 26.37 30.36 30.74 30.97 31.53 25.95 29.90 28.38 27.99 25.31 31.35 29.93 29.78 31.76 31.34 27.95 26.38 27.05 26.36 25.37
43.39 43.25 42.36 42.21 42.94 42.76 36.75 28.52 36.48 39.65 37.64 33.14 25.10 35.49 38.19 40.72 39.42 37.89 36.51 36.36 33.87 31.71 29.77 28.05 30.39 35.61 29.53 25.00 25.14 30.00 31.59 32.84 33.13 30.37 32.60 31.89 32.00 30.69 29.73 26.84 26.30 26.37 25.31 25.15
43.10 42.98 42.17 41.81 42.74 37.73 33.55 30.60 40.98 43.03 41.04 33.72 27.00 29.99 37.65 40.01 39.29 37.94 33.92 34.29 32.59 31.52 30.24 28.96 28.98 30.79 32.07 19.72 21.00 30.02 31.42 32.36 32.47 33.08 32.04 29.43 31.05 27.07 30.17 27.92 26.92 26.84 24.53 23.70
42.82 42.62 41.94 42.47 43.10 39.73 33.91 41.65 45.10 43.94 37.25 36.24 26.66 24.96 29.69 35.97 29.69 28.58 33.13 30.55 31.17 30.84 29.64 30.16 29.05 30.41 28.78 22.09 29.45 31.03 31.39 32.55 31.42 31.11 32.29 30.54 28.67 27.39 27.29 26.93 25.20 22.25 21.06 20.80
42.50 41.96 42.23 37.53 35.47 31.65 34.79 44.25 44.77 44.06 38.13 30.55 29.85 22.20 18.59 34.63 34.54 31.40 32.67 32.81 26.19 30.68 26.46 28.42 28.73 24.42 24.85 27.86 29.22 28.95 30.54 29.76 29.47 30.74 30.21 26.39 24.35 23.25 23.46 22.81 21.99 19.72 18.66 18.51
42.05 37.15 33.76 30.22 36.13 42.45 43.91 39.61 35.91 34.87 36.36 35.16 30.70 28.34 26.89 31.74 28.37 26.33 29.63 29.64 24.20 21.70 26.28 29.87 23.77 26.20 30.84 33.53 32.11 31.07 30.95 30.59 30.15 26.59 24.35 23.31 22.41 21.75 21.12 19.94 19.70 18.75 17.78 17.44
34.27 32.18 32.01 38.20 42.13 38.86 35.48 30.22 30.22 30.68 28.63 31.36 31.38 28.97 25.06 32.72 23.83 23.96 28.07 23.26 23.75 19.62 24.45 22.93 19.67 24.44 26.08 28.85 27.97 27.76 27.37 28.03 26.54 27.41 27.20 25.34 23.65 21.05 19.59 18.85 18.88 18.18 16.91 15.03
34.51 36.46 40.35 40.22 36.33 32.50 29.65 26.12 29.61 27.16 24.59 27.01 25.33 27.57 31.59 28.38 33.39 27.09 28.10 23.66 22.38 19.89 26.25 22.12 14.00 21.81 26.65 26.96 25.43 25.54 25.67 25.07 23.92 24.81 23.98 23.32 22.59 21.18 19.70 18.60 17.06 16.03 15.08 11.35
37.16 35.18 32.10 31.05 29.80 24.59 23.05 21.63 25.47 18.70 24.09 25.85 26.40 25.25 33.05 31.53 29.11 22.48 26.78 22.72 15.99 24.41 23.22 17.51 20.83 25.67 26.21 25.33 24.88 23.40 23.68 22.45 21.42 20.73 21.71 21.23 20.48 20.63 19.31 16.82 15.69 14.18 10.63 6.18
26.81 27.01 22.70 23.77 23.24 23.80 21.76 24.16 23.63 26.44 25.77 28.60 26.84 24.94 31.15 29.87 24.53 25.18 16.29 20.75 25.98 22.56 17.34 18.18 19.41 25.13 24.98 24.93 23.75 21.83 19.25 18.93 18.47 17.05 15.85 14.35 13.64 10.06 8.70 6.51 4.57 3.52 -0.58 -3.86
26.66 28.52 18.27 23.56 24.78 25.82 29.88 32.00 29.04 27.17 30.04 29.55 27.03 25.74 25.54 22.88 26.97 28.25 23.78 24.88 22.59 19.85 16.93 18.78 23.43 23.75 21.94 20.61 19.72 16.77 14.80 12.89 11.87 10.27 9.00 6.79 6.96 7.47 2.60 -0.23 1.25 1.67 -3.25 -3.75
27.84 26.89 21.78 28.48 29.38 29.91 31.22 30.60 31.86 27.74 28.50 26.47 27.90 24.18 19.91 24.95 24.13 24.82 22.87 22.44 15.76 17.37 19.89 17.22 21.89 21.27 20.08 18.46 17.91 15.75 14.08 12.24 10.22 9.49 9.64 8.69 6.63 7.48 6.76 1.90 1.86 -2.16 -0.41 -1.63
25.59 24.62 28.74 28.77 27.92 29.81 31.32 32.33 32.42 34.10 29.18 20.14 24.65 17.62 19.91 24.93 22.65 23.48 27.12 17.24 17.54 26.80 23.73 18.81 19.99 18.94 16.45 15.54 15.52 14.04 13.24 11.14 10.84 9.61 11.01 9.20 8.99 7.72 10.86 8.10 4.81 6.28 7.79 1.62

GFSNW_sfc_wetblb_117.txt.gz
Wetbulb
45.89 45.78 45.75 46.21 46.49 46.52 41.81 38.01 30.84 39.74 41.84 30.08 27.45 24.89 31.45 37.04 34.79 36.41 34.05 32.91 31.31 26.36 27.26 28.47 27.93 28.36 32.96 38.55 38.33 34.17 38.29 33.58 27.39 31.37 37.35 40.64 37.37 32.90 32.46 24.02 25.32 30.60 25.87 22.84
45.26 45.74 46.08 46.22 46.34 45.95 39.68 34.99 33.46 39.41 39.51 25.04 23.22 30.29 33.45 35.16 33.23 33.04 31.99 29.91 31.86 30.32 22.36 20.97 24.69 29.64 37.13 38.04 36.50 35.10 38.10 33.36 25.88 28.86 34.84 38.34 34.91 36.05 36.06 34.81 33.81 27.45 24.35 23.78
45.10 45.94 45.90 46.46 46.42 45.56 39.86 34.48 27.26 32.19 35.17 31.78 29.14 28.55 29.60 29.56 34.43 32.87 33.34 31.44 30.21 26.52 21.47 28.18 23.99 28.27 35.08 37.56 37.43 42.02 40.30 34.39 30.20 25.03 29.32 33.86 33.03 35.08 36.38 34.10 26.93 25.81 25.34 25.16
45.50 45.66 45.63 45.87 46.06 45.83 39.14 32.71 28.33 32.21 24.46 27.62 28.88 30.17 31.14 27.89 27.05 32.01 32.15 27.97 28.96 25.68 17.43 22.12 23.37 27.90 32.58 35.45 38.63 36.33 37.44 30.56 31.32 30.98 32.71 32.23 32.56 35.74 34.62 31.88 31.50 25.64 25.57 24.05
44.64 45.04 45.23 45.58 45.75 44.99 37.78 30.94 31.01 29.96 29.88 32.21 29.51 29.85 28.83 27.48 28.15 28.42 26.70 27.33 30.32 28.59 26.11 26.17 24.69 28.29 30.95 30.14 34.64 33.71 36.30 31.00 32.03 28.89 31.20 29.35 27.06 29.67 31.65 30.46 29.11 27.79 26.45 23.58
44.56 44.54 44.85 45.28 45.44 43.64 36.88 36.40 35.79 31.85 29.82 27.87 26.29 26.44 28.52 28.28 30.48 32.32 33.22 30.73 28.84 27.90 29.63 32.36 33.75 34.05 33.96 34.49 32.23 31.90 32.21 31.02 30.28 26.77 31.56 30.73 22.61 26.93 28.40 28.79 30.91 31.75 24.53 26.11
44.18 43.85 44.68 45.04 45.34 44.15 39.32 37.24 34.89 29.69 25.16 27.91 27.69 31.77 30.96 30.37 31.49 29.76 32.62 32.02 29.37 34.04 36.51 36.29 35.77 34.48 34.41 35.33 35.74 35.55 32.88 31.93 30.72 27.14 29.72 17.83 26.78 31.75 32.00 28.49 29.62 31.25 28.50 27.87
43.79 43.78 44.56 45.06 45.34 45.01 40.30 38.57 34.90 30.95 25.99 29.65 31.23 31.63 31.05 30.79 31.54 30.27 32.09 32.71 34.54 35.17 33.92 30.75 28.48 28.09 29.78 33.20 35.66 34.36 35.65 32.83 29.89 25.86 23.10 26.47 27.11 27.98 27.71 27.68 26.32 31.10 29.70 29.62
44.32 43.88 44.39 44.91 45.23 45.29 40.80 38.78 38.00 33.88 29.04 28.52 34.31 29.75 30.65 26.94 26.63 27.93 30.83 35.07 35.26 34.10 29.33 26.76 24.23 23.62 27.39 26.93 29.88 35.51 34.16 33.62 31.09 28.61 21.96 18.27 24.85 28.65 33.09 32.38 21.81 31.59 29.72 28.19
44.58 43.98 44.17 44.94 45.41 45.53 40.81 38.22 38.68 34.49 29.02 32.63 33.06 28.71 28.39 30.95 28.60 26.86 28.43 30.45 31.27 31.91 23.76 24.05 23.61 24.69 31.74 24.08 25.45 27.48 27.60 28.26 24.50 25.99 22.80 23.99 27.07 30.56 35.37 23.38 22.70 32.82 29.69 27.97
44.12 43.93 44.51 44.94 45.74 45.58 41.00 38.19 39.89 35.54 29.38 31.49 36.03 36.66 31.34 30.96 29.27 23.44 28.28 25.46 28.55 26.31 22.99 24.22 24.02 24.26 28.28 29.55 29.88 28.78 25.28 24.36 22.84 24.88 20.23 17.98 30.15 30.15 25.90 29.55 31.47 32.54 31.80 29.65
44.37 44.29 45.01 45.67 45.77 45.39 42.97 37.30 40.79 38.77 32.57 31.01 36.12 37.37 37.77 37.14 35.31 30.94 32.25 32.78 30.57 29.57 24.10 28.20 25.86 24.45 26.96 26.94 21.46 32.32 23.87 26.74 24.15 25.03 22.99 29.54 31.36 30.53 32.54 31.79 27.24 26.95 29.74 30.98
44.35 44.51 44.68 44.77 45.44 45.11 42.98 37.58 37.17 35.02 29.96 30.49 32.83 34.64 38.90 39.55 38.47 37.92 30.15 31.58 34.78 31.71 32.68 30.02 28.47 24.88 28.62 24.07 24.95 28.65 30.85 33.01 26.15 25.66 28.88 29.37 30.29 30.35 29.66 28.86 26.82 27.57 28.56 27.31
44.01 44.50 44.66 45.25 44.90 44.34 41.77 36.77 37.19 35.07 31.79 28.80 33.86 40.30 37.35 41.07 39.98 38.30 37.09 35.74 35.45 33.46 31.51 28.16 27.29 26.29 32.18 27.63 29.39 26.27 28.29 30.45 25.33 26.40 29.11 29.91 30.60 29.25 28.60 27.55 27.45 26.77 27.44 25.86
44.18 43.63 44.20 44.41 44.78 43.96 40.31 38.07 37.70 37.48 32.29 25.61 29.46 37.24 40.63 40.79 39.53 38.33 37.35 35.93 32.51 29.42 27.85 25.30 25.63 29.30 29.74 29.64 29.92 26.38 29.73 28.54 25.53 23.07 28.99 28.57 28.96 29.36 28.56 25.68 24.91 25.40 24.42 23.12
43.70 43.59 43.51 43.88 43.98 41.65 35.52 29.52 35.92 39.04 35.77 28.45 24.19 33.48 36.66 40.14 37.88 36.77 35.39 34.85 32.26 30.32 28.73 27.34 28.61 33.20 28.49 23.88 23.24 29.81 31.63 32.87 33.48 30.87 33.25 31.77 31.53 28.16 27.30 24.73 24.60 24.84 23.69 23.42
43.34 43.26 42.88 42.87 42.64 37.77 32.77 30.68 40.60 41.19 36.75 30.04 21.83 29.99 37.69 40.09 38.12 37.24 32.73 33.00 31.21 30.31 28.99 28.34 28.00 29.38 29.38 18.52 22.00 29.71 31.56 32.19 32.18 32.28 31.38 28.78 29.71 24.74 26.20 25.71 24.81 24.33 21.92 22.42
43.16 42.85 42.14 42.63 42.29 39.32 34.95 41.33 44.39 41.85 34.65 33.24 24.40 25.61 29.36 35.05 29.07 27.72 31.64 29.50 29.89 29.53 28.22 28.61 28.70 28.97 27.43 21.94 28.21 30.73 31.86 31.89 31.64 31.56 31.71 27.69 27.42 25.92 24.39 24.28 23.01 21.29 20.19 20.31
42.81 42.56 41.49 37.37 34.79 30.70 36.20 43.10 43.99 41.06 35.40 29.97 22.18 22.27 18.75 33.05 32.38 30.19 29.81 30.44 20.66 28.66 25.30 27.33 27.69 23.74 20.52 28.89 28.53 28.35 30.94 30.73 29.70 29.01 27.33 26.67 24.26 22.61 22.35 21.91 20.89 19.28 18.62 18.53
42.19 36.90 32.14 28.14 32.81 41.38 42.95 37.45 34.64 33.51 35.89 34.90 29.03 26.72 29.34 30.58 26.80 24.65 24.51 25.70 23.13 21.43 25.36 28.37 23.02 24.35 28.34 30.38 32.89 31.80 30.24 29.83 28.85 24.41 22.30 22.81 21.76 21.50 21.23 20.51 20.28 19.09 17.90 17.29
34.23 31.00 31.81 36.79 42.68 38.81 35.16 30.14 29.31 30.27 28.67 31.26 30.31 28.09 24.24 31.31 23.57 23.26 25.78 22.26 22.83 20.97 24.03 22.50 19.01 23.87 23.10 27.95 27.82 28.63 29.92 29.27 28.40 27.00 25.82 25.44 23.80 21.07 19.73 19.08 19.21 18.39 17.11 14.81
34.34 36.63 40.07 39.81 35.88 32.38 27.99 25.19 29.27 27.79 24.54 26.55 26.35 26.99 29.68 27.16 31.30 26.18 26.90 22.63 21.26 18.70 24.60 22.65 15.67 18.47 23.52 24.62 25.50 25.36 25.51 25.81 25.55 25.66 23.81 22.87 22.64 21.44 20.14 18.61 16.99 15.77 14.76 10.00
38.57 36.03 31.76 30.68 29.79 23.37 19.55 16.62 24.03 24.23 23.20 24.16 25.47 23.93 32.51 28.70 27.45 21.53 26.06 16.21 15.28 23.14 24.55 15.24 18.82 21.92 24.09 24.06 24.83 23.90 23.47 23.05 22.52 21.93 22.36 21.63 20.35 20.38 18.81 16.17 14.77 13.29 10.19 5.69
26.86 22.94 22.78 23.81 21.48 20.60 21.36 23.15 23.49 25.57 24.03 25.69 26.13 29.85 27.70 26.88 24.19 21.22 15.46 19.05 24.48 19.09 15.56 16.83 18.26 23.14 23.17 24.26 25.07 22.38 19.80 19.12 19.55 18.60 17.69 16.05 14.87 10.88 8.36 6.65 5.21 4.65 1.87 -5.13
25.61 28.10 21.21 23.31 23.60 24.76 29.94 30.58 31.11 30.67 26.42 26.69 25.56 24.87 25.56 20.13 22.07 26.11 19.24 17.85 18.23 17.96 15.79 17.85 17.43 22.88 22.73 21.44 19.98 16.92 15.53 13.13 12.78 11.10 10.19 7.23 6.16 6.91 0.93 -2.68 -2.15 0.18 -4.27 -5.96
27.68 25.25 21.75 26.76 28.16 28.17 29.42 30.80 31.74 31.68 25.83 25.62 27.21 22.95 18.00 18.05 20.15 22.41 19.79 18.63 13.50 16.18 16.43 16.78 21.01 21.50 20.18 18.59 17.50 15.30 14.34 13.23 10.63 9.07 8.99 7.46 5.67 6.57 5.80 1.39 0.32 -4.61 -2.87 -5.14
25.54 23.19 21.43 19.28 26.89 27.73 29.91 32.01 32.31 31.37 26.17 19.00 23.86 16.86 18.98 24.16 19.92 17.72 22.40 14.95 16.92 17.72 26.37 13.84 16.52 19.92 16.37 14.24 13.62 12.58 12.00 10.29 8.88 7.73 8.69 6.79 8.32 8.58 10.40 7.18 2.10 2.95 4.65 -2.25

GFSNW_sfc_wetblb_120.txt.gz
Wetbulb
45.05 45.23 45.25 46.00 46.65 46.83 42.46 37.83 30.47 39.25 42.45 31.52 28.98 26.19 30.84 36.91 34.11 35.35 33.86 32.26 29.51 24.93 25.89 24.09 22.55 25.98 32.82 37.78 36.69 32.32 36.63 34.16 27.50 30.23 37.24 38.08 37.36 31.92 31.49 23.04 22.44 27.92 21.70 19.96
45.23 45.06 45.86 46.20 46.83 45.43 39.11 33.92 33.86 39.63 39.08 27.39 25.01 30.41 32.84 34.34 32.88 32.36 31.49 29.74 30.55 28.31 22.35 17.17 19.40 27.60 34.86 37.06 35.11 34.66 36.93 32.82 26.39 25.63 33.28 36.38 33.97 35.14 35.52 33.31 31.26 26.77 20.97 20.72
45.34 45.76 45.80 46.25 46.43 46.15 39.64 34.13 26.79 32.73 35.04 32.17 30.04 29.18 29.19 29.52 34.25 32.54 32.81 30.74 29.73 25.93 17.80 23.48 18.14 26.77 33.29 36.18 35.83 39.65 40.27 33.60 26.98 21.66 26.05 32.71 29.76 33.73 35.45 32.68 24.15 23.51 23.15 22.21
45.32 45.42 45.76 46.25 46.31 45.52 37.94 31.30 28.84 33.35 27.12 28.36 29.86 30.80 30.48 28.00 27.56 31.69 31.34 28.12 28.69 24.70 16.85 20.57 22.98 26.84 30.46 34.46 37.44 36.25 36.63 30.25 31.46 30.45 30.13 30.34 29.38 31.02 32.81 29.65 29.31 23.34 23.20 21.74
45.56 45.80 46.05 46.00 46.14 45.03 35.31 31.08 30.55 30.97 30.33 31.30 29.82 30.68 28.47 27.53 27.81 27.95 26.43 27.28 28.51 28.47 25.69 25.10 22.69 26.68 28.16 29.32 34.05 32.64 36.86 29.89 32.26 27.60 33.15 28.71 25.27 27.32 29.61 29.60 28.04 26.02 24.60 21.78
45.34 45.20 45.34 45.36 45.70 43.25 36.46 35.91 35.61 32.64 29.44 28.16 28.12 28.12 29.19 28.34 30.05 31.71 32.01 29.81 28.21 27.45 28.58 30.74 31.42 32.25 32.40 33.88 31.60 30.35 32.07 30.89 28.89 24.19 30.00 28.92 21.80 25.65 26.39 27.37 27.75 28.58 22.34 24.95
44.75 44.63 44.82 45.05 44.94 44.16 38.88 37.24 33.94 30.34 26.07 27.58 28.01 31.38 30.77 29.61 30.47 29.38 31.62 31.02 28.76 31.86 34.33 34.53 33.80 32.50 32.12 32.58 33.38 34.08 31.58 32.15 30.09 26.80 28.79 17.16 26.16 32.17 31.12 26.99 28.25 28.61 26.42 26.15
44.07 44.24 44.48 44.77 45.13 44.72 39.66 37.51 34.80 31.54 27.34 29.80 30.38 31.00 30.33 30.34 30.91 29.64 31.15 31.63 32.85 33.91 32.29 30.01 28.18 27.60 28.67 31.13 34.24 32.59 35.17 32.11 29.83 24.18 22.31 25.39 27.08 27.21 27.66 27.38 25.06 29.06 28.53 27.56
43.50 44.24 44.58 45.10 45.43 45.19 39.88 37.86 37.61 34.69 30.29 28.30 33.39 29.30 30.23 26.95 26.44 27.33 29.89 33.35 34.46 32.80 28.57 26.09 24.18 22.47 26.82 26.85 28.69 33.85 33.39 32.87 31.58 26.57 22.16 17.71 23.67 27.90 31.74 32.26 21.94 29.11 28.24 26.04
43.80 44.02 44.41 44.91 45.46 45.12 40.38 38.19 38.27 35.79 30.29 32.23 32.13 28.48 28.36 30.40 28.33 26.29 27.47 29.48 30.31 30.24 22.72 23.64 23.32 24.29 29.94 24.28 24.27 26.07 26.65 27.56 24.65 25.36 22.25 23.18 26.54 30.47 33.76 23.06 21.71 29.47 27.29 25.05
43.83 43.97 44.65 45.34 45.81 44.58 40.96 37.68 39.39 35.76 30.69 31.15 35.62 35.81 31.12 30.34 28.59 22.94 26.96 24.76 26.86 25.28 22.15 23.79 23.49 23.94 27.26 26.32 28.93 27.07 23.95 23.55 22.67 25.24 20.79 18.16 29.63 30.56 25.61 28.84 31.03 30.56 27.75 27.63
43.86 43.95 44.80 45.67 46.02 44.81 42.54 37.00 39.85 37.96 33.04 31.92 35.86 36.43 36.77 36.00 34.29 30.30 29.74 28.70 29.76 28.88 22.76 23.44 25.20 24.05 25.14 26.57 19.58 30.04 23.33 25.72 23.89 24.12 22.10 28.80 29.39 29.35 30.19 28.41 26.36 28.02 28.03 26.39
44.11 44.58 45.01 45.48 45.45 45.13 41.81 37.18 36.93 34.58 31.69 32.41 33.84 34.22 37.80 38.31 37.28 36.66 29.88 30.38 33.49 30.51 31.33 29.76 24.68 24.60 27.35 23.97 24.94 28.95 30.37 31.69 26.08 25.89 27.35 27.75 27.84 28.15 27.83 27.35 26.62 28.23 27.06 25.45
44.49 44.87 45.16 45.79 44.94 44.08 41.87 37.33 36.59 35.00 32.08 29.36 32.38 39.35 36.77 39.50 38.46 37.16 36.04 34.83 33.84 32.18 30.48 27.65 26.29 25.25 30.29 26.21 28.14 25.88 27.84 29.23 25.05 26.37 29.02 29.01 27.44 27.04 27.12 26.95 27.53 26.19 25.69 24.67
44.31 44.64 45.16 44.77 44.35 43.39 40.29 38.19 37.73 37.76 33.62 27.45 30.46 35.78 39.23 39.30 38.80 37.58 36.43 34.72 31.26 28.84 27.45 24.79 25.29 28.75 28.91 28.97 27.19 25.96 29.26 28.08 25.02 18.21 28.35 27.23 26.91 26.98 27.67 25.66 24.83 24.92 22.83 21.61
44.14 44.40 44.66 44.35 42.95 40.15 35.70 30.65 36.71 39.41 35.97 30.38 25.24 32.92 36.76 39.28 37.05 36.27 34.70 33.73 30.93 29.39 28.16 26.91 28.07 31.14 27.86 20.67 19.65 29.81 31.82 32.87 33.50 29.44 31.55 29.65 28.36 26.54 26.09 24.29 24.04 23.92 22.79 21.56
43.83 43.95 44.05 42.86 42.54 37.99 32.84 31.69 38.68 40.59 36.64 28.21 24.50 31.49 36.82 38.86 37.52 35.35 31.24 31.91 29.88 29.23 28.31 28.16 27.77 28.61 27.97 17.83 20.18 28.51 30.17 32.01 32.00 31.82 30.25 26.53 26.52 23.52 25.10 24.53 23.71 23.71 21.57 21.42
43.20 43.05 42.94 42.58 41.64 39.55 37.56 40.62 43.57 39.80 34.28 31.22 24.12 27.81 32.91 36.62 29.65 27.24 30.15 28.94 29.05 28.79 27.46 27.78 28.48 28.52 26.74 20.80 26.67 29.65 31.65 31.55 31.34 31.20 30.91 28.54 25.83 24.26 22.86 23.02 21.94 20.63 19.92 20.13
42.85 42.84 41.22 37.00 34.22 31.65 36.97 43.91 43.12 39.75 33.66 24.91 20.94 25.84 24.02 32.12 29.21 29.21 28.70 28.94 20.22 27.44 22.45 26.89 27.24 23.59 21.33 26.27 27.99 28.29 30.32 30.60 28.42 27.83 26.54 24.81 23.70 22.09 21.83 21.55 20.76 19.21 18.95 19.06
41.34 36.63 30.59 22.65 31.65 40.42 42.74 36.25 31.04 29.85 34.55 31.83 23.42 25.65 21.95 28.72 25.97 24.38 23.34 23.42 22.70 20.66 24.15 27.56 22.18 21.61 27.67 29.57 30.63 31.74 30.01 30.33 28.24 23.89 22.35 22.74 21.87 21.74 21.12 20.82 20.87 19.78 18.46 17.82
33.92 29.23 31.06 35.68 41.61 38.42 34.59 28.82 25.95 27.08 26.82 29.50 28.31 27.28 23.88 30.03 23.40 22.81 24.68 21.76 22.42 19.69 23.21 23.92 18.34 23.33 23.83 27.22 29.61 32.06 29.48 28.85 27.11 26.69 26.13 25.61 24.15 22.35 20.64 19.60 19.43 18.40 17.09 14.58
34.18 37.43 39.72 39.26 35.58 31.60 25.50 25.65 29.11 27.06 24.35 26.95 26.19 26.25 29.01 26.25 29.73 25.97 26.27 21.49 20.40 17.92 23.37 23.33 18.57 19.65 24.02 25.63 27.90 29.79 28.39 27.92 26.59 25.41 24.28 23.61 23.66 22.15 20.75 18.84 17.10 15.62 14.45 9.53
38.56 36.23 31.97 27.57 29.20 19.67 17.32 19.56 23.61 24.91 24.21 23.37 25.47 23.00 31.04 25.95 26.76 20.89 25.10 14.56 15.18 22.14 22.76 14.86 18.94 20.72 23.85 24.14 24.29 25.27 24.74 25.05 23.99 22.83 22.93 22.18 20.91 20.51 18.98 16.31 14.88 12.73 10.07 5.59
27.28 23.95 18.85 17.26 20.17 20.55 21.30 23.86 22.66 23.99 23.37 25.08 23.32 24.56 25.29 23.40 23.47 17.39 14.89 17.52 20.77 9.03 8.78 15.42 18.19 21.71 23.14 23.91 24.76 24.20 21.35 19.81 20.13 19.34 18.56 17.18 15.91 11.91 9.29 7.59 6.08 5.23 2.27 -6.72
25.10 24.83 20.92 23.08 21.94 25.43 27.70 27.10 30.27 30.45 24.89 25.58 24.24 24.10 24.75 17.76 18.74 19.33 17.62 14.29 11.62 15.16 14.09 16.94 17.46 19.95 22.50 21.05 19.97 17.33 15.92 14.24 14.25 12.89 12.43 9.11 7.39 7.65 1.05 -3.47 -2.48 0.44 -2.99 -6.76
25.17 24.38 20.40 24.49 26.85 27.24 29.00 30.46 31.07 29.44 24.03 25.11 26.32 21.76 17.04 17.19 18.96 18.14 13.80 16.78 12.19 15.12 15.89 16.83 17.35 19.49 19.54 18.04 17.24 15.52 14.15 13.61 11.32 10.01 9.43 7.56 6.37 6.97 5.03 -1.77 -2.69 -6.59 -4.27 -6.41
23.62 18.77 25.75 25.98 23.58 23.86 30.20 31.86 32.23 28.66 28.65 24.78 22.55 15.82 17.83 23.10 16.94 16.00 19.29 13.27 15.76 16.01 18.18 21.34 14.57 16.88 15.95 14.71 14.15 12.45 12.25 10.87 9.64 7.44 8.40 5.11 5.83 7.31 8.24 6.05 0.87 2.03 2.68 -4.31

GFSNW_sfc_wetblb_123.txt.gz
Wetbulb
47.31 47.51 47.01 46.71 45.62 46.25 44.44 39.40 31.62 40.89 43.12 33.56 30.58 27.82 32.36 37.19 34.45 36.96 34.45 33.95 31.24 28.95 28.74 28.24 27.17 27.73 33.19 38.17 36.85 32.46 36.52 33.73 28.32 31.50 37.76 39.24 37.97 34.69 34.24 27.95 26.23 29.55 26.99 21.26
44.38 45.05 45.41 44.76 44.55 45.25 40.97 35.73 35.10 40.62 41.21 28.00 28.80 31.61 33.26 35.12 33.91 33.60 32.96 32.04 32.29 30.42 26.62 23.85 25.09 28.93 35.61 36.81 35.40 34.44 36.64 31.52 25.08 26.76 32.86 35.82 34.17 36.22 37.08 34.84 32.95 26.35 25.06 21.54
44.94 44.69 44.63 44.81 45.74 45.43 40.52 34.85 29.50 34.32 36.78 33.60 31.63 30.84 30.45 30.27 35.23 33.61 33.69 31.68 31.85 28.48 24.02 26.86 23.65 28.31 33.82 36.34 35.81 39.18 39.73 32.15 26.96 22.28 25.90 29.58 28.51 32.43 35.53 34.52 28.31 24.39 22.49 21.32
44.91 44.81 45.57 45.96 46.26 45.77 39.10 34.34 30.86 35.63 29.77 30.52 31.95 32.79 31.72 29.49 28.76 33.11 33.69 31.41 31.02 28.44 21.42 24.36 24.49 28.60 31.37 34.72 37.46 36.92 37.23 31.30 32.13 31.19 30.64 29.18 27.53 29.13 30.53 27.66 29.22 24.88 22.98 21.07
45.26 45.58 45.97 46.30 46.05 44.98 36.61 32.62 31.63 33.54 32.09 33.17 32.42 32.33 29.72 28.90 29.03 30.91 29.22 29.67 30.93 30.54 28.13 27.75 25.69 28.76 30.30 31.19 35.45 34.08 37.14 31.29 32.49 28.43 32.24 29.51 25.18 27.34 28.68 28.82 27.08 25.46 24.53 21.54
45.93 46.07 46.00 46.12 45.84 43.05 37.00 36.48 36.37 35.19 30.47 30.16 31.05 30.47 30.06 29.46 32.39 33.24 33.31 32.49 31.23 29.38 30.85 33.20 34.45 35.09 34.96 34.51 32.01 31.33 32.68 32.75 30.87 25.93 30.83 29.35 22.72 25.43 26.70 27.11 27.87 28.58 22.77 25.10
45.25 45.39 45.32 45.31 45.17 43.99 39.77 37.88 35.89 32.40 27.34 29.82 29.56 31.65 31.85 30.79 32.04 30.96 32.96 33.76 31.73 33.51 36.16 35.97 35.36 33.57 33.03 33.38 33.73 34.24 32.01 31.48 31.93 27.84 29.74 18.54 27.03 32.39 30.42 27.08 28.29 28.15 26.76 26.80
44.69 44.77 44.86 45.26 44.88 44.55 39.87 38.56 36.77 33.21 28.17 30.66 31.48 31.77 30.82 31.77 32.89 31.85 32.64 33.61 34.50 36.11 34.48 33.00 30.39 30.35 31.41 32.71 34.30 34.35 34.73 32.02 29.89 26.18 23.81 26.14 27.96 27.64 27.75 27.69 24.97 28.97 28.80 27.79
44.14 44.26 44.58 45.32 45.55 44.81 40.43 38.94 38.66 36.43 31.72 30.19 33.68 30.96 31.78 28.92 28.88 29.56 31.81 35.00 36.41 35.39 31.77 30.44 26.08 24.10 28.05 27.93 29.80 35.06 33.89 34.02 31.53 27.91 22.72 19.48 24.39 28.43 32.18 32.81 22.35 28.65 27.47 27.33
43.85 44.05 44.48 44.98 45.72 44.89 40.86 39.20 39.39 37.26 32.26 34.03 34.19 30.52 30.33 32.07 30.30 28.43 29.72 31.73 32.78 33.42 29.29 27.93 26.67 26.65 31.00 25.01 24.56 25.88 27.16 28.01 25.38 26.31 23.12 23.61 27.13 29.99 33.52 23.70 24.21 28.42 27.70 26.34
43.85 44.12 44.72 45.73 45.12 44.81 41.00 39.16 39.89 37.72 33.20 33.83 36.98 36.36 32.66 31.93 30.68 26.69 29.62 29.14 30.91 29.38 26.92 27.61 26.69 27.56 29.30 28.48 28.97 27.35 24.89 24.67 23.96 26.23 22.76 19.95 29.53 31.65 26.91 29.38 31.32 29.86 28.47 26.81
43.85 44.47 44.75 45.69 45.57 45.17 42.40 37.75 39.76 38.78 35.42 34.88 37.32 37.80 38.69 38.22 35.76 32.78 32.58 31.18 31.83 31.78 28.64 28.70 29.34 28.48 29.22 28.27 23.09 31.33 24.93 27.20 25.45 25.29 23.88 28.98 29.61 29.01 30.83 32.20 30.72 29.84 28.08 27.67
43.79 44.61 45.38 45.66 45.34 44.58 41.57 38.17 37.45 37.73 35.58 35.34 36.14 35.75 38.33 40.33 39.52 39.51 32.70 33.20 35.42 33.15 34.24 32.22 31.21 28.48 31.04 26.65 26.52 28.64 30.72 32.00 26.51 26.31 27.47 27.64 28.16 28.55 29.42 30.84 30.55 29.72 28.68 27.27
44.55 45.13 45.72 45.67 44.67 43.79 41.65 37.49 38.01 37.38 35.71 31.98 34.44 40.48 38.28 40.43 40.49 39.57 38.32 37.05 35.67 34.91 34.25 32.48 30.87 30.28 32.94 30.31 30.35 29.33 30.55 30.70 27.92 26.76 28.91 28.03 27.77 28.03 28.50 28.26 28.08 26.65 26.69 26.24
44.66 45.28 45.28 44.59 44.04 43.41 40.74 39.40 39.10 38.84 36.14 31.02 33.41 37.45 39.67 40.20 40.44 38.49 38.25 36.61 34.10 33.02 31.85 31.11 30.30 32.43 32.39 32.73 30.52 28.07 31.12 28.46 26.09 25.35 30.41 29.41 27.86 28.55 29.08 27.60 25.87 25.79 24.76 23.24
44.78 45.07 44.69 43.86 42.18 39.98 37.96 32.89 38.95 39.97 37.93 34.35 30.10 35.45 38.51 38.86 38.73 37.28 36.33 35.78 33.68 33.48 32.27 31.29 32.14 33.04 32.53 28.31 27.18 30.25 32.12 33.18 34.22 30.37 32.60 31.15 29.95 28.68 28.23 26.56 25.71 25.49 24.15 23.49
44.63 43.75 43.43 43.30 43.35 40.72 35.20 33.40 37.97 41.50 38.67 33.62 30.60 32.02 36.86 38.85 38.23 35.44 34.03 34.25 33.10 33.31 32.24 31.84 31.65 32.73 32.31 28.05 26.99 30.12 32.30 33.05 32.20 31.17 29.84 26.33 27.30 25.56 27.00 26.43 26.02 24.94 23.57 22.98
43.83 43.62 43.19 42.94 42.51 41.49 38.36 40.94 43.24 40.69 35.14 33.44 28.80 30.03 33.12 37.32 31.41 31.75 32.72 32.54 32.54 32.10 31.49 32.24 32.22 32.24 31.43 28.44 29.09 31.15 32.16 31.76 30.70 31.58 32.12 30.15 28.01 26.23 25.06 24.88 23.94 22.29 21.34 20.95
43.20 42.30 40.92 37.88 35.06 35.12 38.66 43.67 41.09 40.51 35.37 28.29 27.38 27.73 26.51 34.90 31.67 31.89 32.05 31.58 28.63 30.47 29.89 30.79 31.55 29.01 27.52 30.42 29.88 30.58 31.37 31.15 30.08 28.63 27.82 26.98 25.59 24.06 23.52 23.75 23.29 21.96 21.20 20.86
40.70 36.84 31.38 27.48 34.29 41.52 41.27 36.48 31.57 31.96 33.88 32.75 27.30 28.38 29.99 32.04 29.89 28.82 28.91 28.20 27.90 26.76 28.87 31.00 29.14 28.94 29.87 32.10 32.88 33.01 33.01 31.54 29.72 26.07 24.27 24.57 23.85 23.57 23.24 23.28 23.65 23.28 21.71 20.75
34.07 31.63 30.30 35.36 39.98 38.45 34.05 27.18 26.05 29.05 26.62 29.73 28.53 29.59 29.28 32.57 28.90 27.97 28.53 27.45 27.09 23.31 27.27 28.08 25.69 25.52 28.54 30.92 32.05 33.08 32.60 31.15 30.81 31.17 30.10 28.78 27.38 25.33 23.84 22.86 22.44 21.67 20.71 19.13
34.33 36.10 39.79 39.69 34.87 31.67 26.92 26.19 28.42 26.99 25.00 28.91 28.31 29.20 31.62 31.26 32.49 30.33 28.37 25.96 25.63 22.22 27.73 26.94 22.91 27.02 27.85 30.44 31.47 32.44 31.60 30.02 29.34 29.69 28.13 27.48 26.84 26.32 24.64 22.76 20.75 19.90 18.26 14.70
38.68 34.83 32.25 29.01 29.15 22.94 19.71 20.25 23.69 24.82 27.35 27.76 29.02 28.12 31.52 30.37 30.65 26.16 27.31 22.91 22.27 26.58 25.83 21.82 25.18 25.80 27.20 28.48 29.90 30.27 30.58 29.73 27.57 26.31 26.64 25.76 24.42 24.05 22.66 19.91 18.89 16.34 13.80 11.24
27.90 23.90 23.28 21.46 20.55 22.32 22.46 25.40 25.97 26.99 27.30 27.75 28.39 29.00 29.81 27.78 26.62 22.56 22.55 22.82 24.18 18.91 17.86 20.47 26.83 26.10 26.45 27.04 27.46 27.35 26.52 25.14 24.68 23.73 22.90 21.13 20.00 17.05 15.88 14.74 13.71 11.27 8.53 4.16
26.42 25.14 18.63 22.89 23.93 25.45 28.28 28.79 30.36 30.02 28.65 29.62 28.42 27.83 28.42 23.65 22.51 22.79 22.10 20.68 18.32 20.15 21.07 24.99 26.86 24.04 25.05 24.57 24.15 22.81 21.57 19.38 19.81 19.80 18.09 15.36 13.27 12.98 9.20 9.30 10.52 9.91 5.65 4.26
26.19 24.82 23.77 26.61 27.47 27.81 29.98 31.28 31.15 30.16 29.25 28.88 29.40 24.50 22.15 22.10 22.86 21.44 19.55 19.80 17.62 22.69 24.59 25.74 24.06 22.59 23.29 22.58 22.15 21.21 19.30 19.21 17.40 17.05 16.40 13.86 12.24 12.34 11.64 6.57 8.15 6.15 6.99 4.30
24.08 23.98 27.42 26.61 25.67 27.54 31.16 32.31 31.92 29.57 30.15 25.21 25.44 19.46 20.75 25.03 21.13 19.87 22.69 20.40 24.27 25.62 25.74 29.01 24.22 22.22 21.43 20.04 18.73 16.90 16.86 16.33 15.91 14.45 14.70 13.27 11.57 10.20 10.64 10.13 8.45 7.73 8.74 6.67

GFSNW_sfc_wetblb_126.txt.gz
Wetbulb
49.20 48.63 48.09 47.57 46.73 46.56 44.31 39.20 31.12 42.89 46.61 36.49 37.07 33.76 35.62 38.61 36.96 39.31 36.83 37.12 35.13 33.93 33.14 32.68 32.83 33.08 36.25 41.11 39.64 36.00 38.39 35.38 30.81 33.83 40.38 42.14 40.09 36.65 36.53 30.29 28.34 32.87 32.08 26.52
48.25 48.11 47.49 46.37 46.77 46.50 42.62 34.68 34.68 43.13 43.21 30.40 32.39 35.39 36.54 38.04 36.66 36.92 36.07 34.84 35.91 35.67 33.14 31.58 32.96 33.68 38.78 39.46 38.72 37.45 39.14 33.73 30.35 32.00 37.07 38.44 34.83 36.52 38.46 37.60 36.98 31.88 28.97 25.69
44.29 46.03 46.72 46.49 46.17 45.44 43.84 36.31 30.66 35.46 38.61 38.13 34.71 33.69 33.88 32.49 38.53 36.53 37.04 35.86 36.03 33.78 30.70 31.26 30.37 32.29 36.35 38.77 39.10 39.09 40.48 35.21 30.54 27.71 26.91 31.44 28.78 32.29 36.86 35.04 33.59 30.64 26.62 24.72
45.12 45.47 45.32 45.79 46.40 45.31 43.89 37.16 33.53 35.72 30.36 33.53 35.20 36.42 35.10 32.30 31.69 36.66 37.88 34.10 34.40 32.92 28.14 29.89 29.58 32.63 35.48 37.86 39.31 40.48 39.11 31.91 32.32 32.50 33.17 31.79 30.03 29.65 31.39 30.03 31.19 28.83 25.57 24.04
45.45 45.45 45.68 46.26 46.31 44.57 41.65 34.50 34.92 38.58 36.45 36.47 35.96 35.53 34.57 34.01 33.21 34.50 32.88 33.38 34.91 34.79 31.31 32.24 29.20 32.99 35.43 36.61 39.49 38.84 38.69 32.49 34.13 31.14 33.68 31.81 27.89 29.70 31.29 29.93 28.69 27.22 26.53 23.91
44.50 44.14 44.66 46.19 45.87 43.95 40.53 39.78 40.28 39.55 35.61 35.93 35.42 35.11 35.36 34.14 35.37 35.62 37.53 36.98 34.75 33.23 35.17 37.15 37.80 38.43 37.97 38.92 37.33 35.43 35.76 33.64 32.67 30.01 31.79 31.35 25.70 27.43 29.59 29.44 30.98 30.50 26.88 26.93
45.61 45.82 46.16 45.84 45.73 44.40 42.72 41.09 42.03 37.84 33.11 36.25 35.38 35.50 35.87 34.86 35.54 34.47 36.85 37.58 35.05 37.01 40.43 40.15 39.82 38.49 37.73 38.40 38.65 39.04 34.86 33.63 33.11 31.39 31.85 23.13 28.39 33.56 31.64 29.24 29.69 30.86 28.91 28.60
45.53 45.09 45.06 45.40 45.30 44.66 43.91 43.48 42.87 40.02 35.07 37.13 35.67 35.97 35.70 37.07 37.88 36.26 35.21 35.82 38.44 40.75 38.57 36.75 33.69 34.86 35.42 36.57 38.37 38.31 38.35 34.86 32.29 29.50 28.50 27.98 28.98 30.93 30.33 29.58 26.46 30.71 30.30 30.00
44.82 44.94 45.40 45.65 45.33 44.23 45.29 43.50 44.67 43.90 37.78 35.98 38.46 35.64 36.78 34.23 34.63 34.47 34.90 38.46 41.09 39.91 37.07 35.46 29.31 27.42 31.57 30.83 33.26 38.35 36.64 37.92 32.51 31.31 25.77 23.10 28.62 31.10 33.64 34.29 26.33 30.73 31.45 31.27
44.47 44.88 45.27 45.77 45.37 44.42 46.47 43.30 44.88 44.61 37.99 38.37 39.39 35.64 34.55 37.43 35.83 33.71 35.03 35.77 36.51 38.51 34.88 32.69 30.78 30.44 34.94 29.86 28.41 29.74 32.06 32.93 30.29 30.47 27.84 27.17 30.16 32.08 35.12 26.06 26.12 31.34 31.36 32.16
44.28 44.97 45.61 45.60 45.53 44.68 45.39 42.86 45.00 45.23 39.57 38.81 40.29 39.52 37.14 36.59 37.04 32.51 35.30 34.77 35.28 35.61 32.55 32.98 33.13 32.96 33.69 32.25 32.16 30.74 29.73 29.44 30.04 30.21 27.15 24.07 31.75 32.75 29.85 31.44 33.84 33.55 32.74 32.30
44.40 44.88 45.93 45.70 45.89 45.45 45.22 42.46 45.10 47.09 41.73 38.94 42.30 41.98 42.05 41.12 40.48 37.99 36.58 35.99 36.05 37.84 35.65 36.10 36.40 33.05 34.61 32.78 27.89 34.71 29.70 32.38 31.71 28.48 27.71 31.61 32.88 33.26 36.05 36.52 33.83 33.06 32.44 32.60
44.64 45.18 45.86 45.66 44.76 44.08 45.51 43.86 45.18 45.52 41.90 40.37 40.38 38.52 42.52 44.86 44.05 44.56 37.16 38.99 38.92 38.20 40.93 39.78 38.47 32.36 37.53 31.04 32.77 31.90 32.69 34.96 31.83 29.79 28.85 30.44 31.95 33.29 34.77 35.46 34.11 33.78 33.01 31.83
45.33 45.80 45.79 45.14 44.38 43.99 44.86 43.86 44.18 46.30 42.18 36.16 36.71 43.51 40.89 43.28 45.22 44.00 44.41 41.33 41.17 41.20 42.25 39.43 38.50 35.61 38.26 34.99 35.21 35.38 35.67 35.42 30.85 28.14 29.75 31.19 31.50 33.18 33.42 32.79 32.95 31.58 31.58 31.03
45.48 45.73 45.30 44.62 44.35 44.35 45.21 45.02 44.02 44.06 42.21 35.19 36.50 42.01 42.29 43.76 44.41 42.69 43.09 41.83 40.43 40.13 37.83 38.01 36.49 39.30 37.78 38.32 37.54 35.01 36.90 33.71 32.38 32.83 33.14 33.15 32.05 33.20 33.26 31.15 29.78 30.05 28.97 28.23
45.57 45.28 44.55 42.93 42.24 40.99 45.25 37.09 44.78 44.73 46.90 39.13 33.23 40.36 40.07 41.67 42.56 41.55 40.84 41.06 40.33 40.96 39.21 37.87 39.20 39.05 38.60 34.66 33.64 34.19 36.23 36.59 36.94 34.76 36.53 35.02 33.83 33.53 33.85 31.12 30.44 30.30 29.22 28.53
44.81 43.92 44.16 44.03 44.24 44.99 40.06 38.54 42.54 43.47 45.67 39.85 33.76 34.10 39.85 41.54 40.92 40.64 40.22 40.72 40.04 39.97 38.99 37.99 38.76 38.97 39.28 36.73 32.83 34.46 36.04 36.66 37.18 36.93 34.38 30.45 31.50 29.89 32.07 31.05 30.02 29.54 28.80 28.30
44.78 44.73 44.35 44.34 44.62 44.27 40.88 44.05 43.66 44.06 41.86 41.27 33.13 32.77 35.87 40.07 36.86 36.15 39.90 38.37 39.71 38.63 38.28 39.19 37.74 38.07 38.75 32.03 34.79 36.02 36.07 35.88 35.52 35.78 36.22 35.17 33.97 31.79 30.52 30.31 28.99 27.24 26.08 25.84
43.37 42.46 41.87 43.02 41.59 39.60 40.81 43.27 43.53 45.95 41.91 35.16 35.24 31.12 29.68 39.21 37.23 38.28 38.19 39.15 34.73 38.90 36.82 37.19 37.16 35.52 30.78 34.34 35.32 35.28 35.70 34.78 34.63 35.18 34.58 32.96 31.30 29.93 28.80 28.74 28.13 26.83 25.39 25.32
40.97 41.05 37.96 33.50 39.53 42.46 42.50 42.08 39.18 38.82 38.15 38.12 33.47 36.64 31.96 37.37 36.63 34.71 34.75 37.17 34.13 31.31 35.00 38.61 34.50 33.56 35.87 36.54 38.80 38.36 37.22 37.35 35.83 32.36 30.68 31.57 30.13 29.39 29.07 28.87 29.34 28.66 26.82 25.50
39.18 35.71 33.41 38.09 41.48 41.27 37.73 32.44 33.43 33.59 31.23 35.50 34.92 35.85 32.95 38.16 33.74 32.49 36.15 33.44 34.40 28.56 32.32 32.03 31.99 31.68 34.62 37.24 37.86 38.69 38.54 37.78 36.85 37.33 35.98 34.85 33.38 30.96 29.71 28.87 28.15 27.56 26.12 24.78
39.07 38.24 40.65 41.28 37.55 33.82 30.70 29.33 31.01 30.48 28.53 32.70 33.73 34.79 36.87 36.31 39.22 35.14 34.93 30.75 32.51 24.73 35.99 30.26 27.73 34.66 34.36 36.63 36.96 37.35 37.73 37.11 36.16 36.32 34.71 33.93 32.88 32.25 30.91 29.36 27.81 26.63 25.51 22.96
40.90 37.55 33.60 33.65 31.56 25.84 25.46 22.91 26.47 27.66 31.08 32.43 34.30 32.99 36.56 36.49 38.59 34.33 33.44 28.83 28.53 34.74 29.66 28.23 32.51 33.56 33.71 36.45 37.45 37.08 37.06 36.11 35.21 34.32 34.09 33.08 31.77 31.55 29.75 27.10 26.15 23.03 21.38 19.32
34.24 31.27 25.20 27.90 25.07 27.97 28.92 30.21 30.46 31.69 33.41 33.45 36.02 33.13 36.05 35.83 32.31 32.41 29.00 29.49 31.40 25.90 23.43 25.66 35.36 32.85 32.96 35.17 36.35 35.70 33.58 32.91 32.66 31.47 30.86 29.39 27.36 25.64 25.36 23.89 21.70 19.61 15.83 14.71
30.67 30.54 23.92 26.29 29.87 31.85 32.20 32.73 32.50 32.76 35.65 35.70 34.05 34.30 35.86 31.77 29.35 31.09 28.81 26.00 24.45 26.66 28.16 34.14 36.01 31.74 31.22 31.43 32.13 32.39 31.35 29.72 29.23 28.40 25.94 23.99 21.72 21.26 20.32 19.77 20.23 19.08 14.58 12.97
31.03 29.41 28.02 30.45 30.98 30.48 32.05 32.96 31.87 34.25 36.01 35.95 36.45 31.06 30.19 28.30 29.82 27.13 25.78 24.86 24.07 30.35 34.76 36.31 34.54 30.48 30.25 30.91 30.66 30.76 29.98 29.12 28.02 27.14 24.79 22.42 20.51 19.85 20.84 18.64 18.15 15.97 15.50 13.83
28.10 28.47 31.06 31.02 32.10 31.48 32.41 33.14 32.64 36.26 35.26 32.64 32.11 27.61 24.83 30.19 27.21 25.44 30.13 29.00 33.33 36.11 36.38 35.73 31.31 30.05 30.24 29.61 28.33 25.73 25.89 26.12 26.31 24.93 23.80 22.59 22.01 18.71 17.39 16.97 16.66 16.89 16.60 15.31

GFSNW_sfc_wetblb_129.txt.gz
Wetbulb
52.03 52.89 51.92 50.68 48.14 48.06 46.59 41.44 30.85 43.54 45.43 34.00 35.28 34.23 40.68 41.01 39.39 40.77 38.64 39.94 37.94 37.02 36.40 34.85 36.88 36.85 39.33 43.94 43.65 38.26 40.34 37.31 33.05 36.94 42.52 43.68 41.06 37.84 37.53 32.37 31.44 34.68 33.88 28.91
49.78 48.78 48.11 47.87 48.00 48.02 41.93 34.33 34.80 43.29 43.39 32.03 32.92 39.17 38.51 39.81 38.31 38.72 38.35 35.87 37.38 39.69 36.44 33.23 35.55 39.16 42.84 43.06 42.13 39.47 41.46 35.86 32.51 34.05 39.12 41.03 36.88 37.98 38.12 36.75 37.73 32.98 30.49 27.78
48.18 48.17 48.04 48.13 47.44 47.04 44.15 36.93 29.64 35.19 36.23 38.48 36.81 36.87 36.15 36.18 40.91 39.69 40.49 38.87 37.51 35.52 34.07 34.22 33.41 36.76 39.59 41.85 42.20 40.48 41.38 37.76 34.35 31.82 31.47 34.63 30.87 33.65 35.82 36.16 31.85 32.99 29.66 25.93
45.91 46.32 45.87 46.07 46.05 45.86 43.88 39.57 35.47 38.11 31.57 34.79 37.33 37.35 36.54 34.51 35.05 39.19 40.47 36.40 37.03 34.82 31.18 33.01 32.47 37.70 38.22 40.09 40.52 41.41 40.44 33.22 34.25 34.98 34.98 33.45 30.83 31.12 31.90 32.36 33.13 30.52 27.80 26.03
45.10 45.79 45.96 46.00 45.66 45.68 42.12 33.95 37.16 38.76 37.21 37.75 35.58 35.65 34.34 33.69 35.48 36.63 35.26 35.63 38.23 37.73 33.30 34.95 31.46 35.81 38.54 38.20 41.72 39.18 41.16 32.89 34.31 31.60 34.57 33.09 29.14 31.75 32.72 31.64 30.95 29.68 29.00 25.86
45.86 45.61 45.29 46.33 45.67 45.48 41.16 42.90 44.47 40.51 36.23 35.43 33.78 34.07 34.20 34.71 36.78 37.86 38.78 38.62 37.45 36.22 36.76 40.52 42.13 42.65 42.71 42.33 39.91 38.94 37.35 36.18 33.06 30.30 33.89 33.05 28.63 28.93 30.98 31.20 33.33 32.51 29.48 29.54
45.61 45.42 45.57 45.43 45.23 44.99 46.52 44.71 43.95 38.60 32.73 34.03 34.52 35.80 37.23 36.63 36.97 36.21 39.66 40.91 38.20 40.02 43.18 43.44 42.47 40.90 40.56 41.00 41.05 42.13 37.98 36.68 35.86 32.43 32.60 24.37 29.21 35.16 34.43 31.41 31.79 32.98 30.38 30.37
44.70 44.73 44.49 45.36 45.41 45.33 45.73 45.36 43.37 39.95 34.27 36.30 36.32 37.05 37.91 39.28 39.82 38.82 39.29 40.12 42.04 43.47 41.48 38.93 35.66 35.78 36.40 37.90 40.72 39.96 41.22 38.09 33.46 30.63 30.39 28.48 29.73 32.53 32.26 31.55 28.43 33.11 32.15 31.78
45.17 44.64 44.54 45.60 45.65 45.70 46.45 45.59 46.06 45.36 38.37 35.58 40.02 38.27 38.57 35.83 36.94 36.56 36.90 41.29 43.77 42.49 38.55 36.85 30.53 28.79 33.15 32.18 33.91 40.32 40.08 39.76 35.54 34.11 27.81 25.04 32.79 36.46 38.07 36.92 27.99 35.19 34.77 32.65
44.61 45.33 45.46 45.42 45.33 45.14 46.42 47.83 49.79 47.41 42.02 43.28 42.75 38.86 37.96 40.83 38.40 35.90 37.97 38.80 38.77 41.46 35.88 33.34 31.88 31.77 36.83 31.33 31.32 31.99 33.76 35.35 31.39 32.23 30.42 30.02 35.42 36.78 37.86 27.02 28.89 34.60 36.23 35.27
44.21 44.75 45.60 45.18 45.47 44.74 47.08 47.09 50.42 48.52 42.40 42.45 43.69 43.32 39.86 40.24 40.16 35.95 38.97 37.24 37.77 36.23 33.64 33.73 34.28 34.29 35.46 34.54 36.05 34.16 33.09 31.84 30.49 32.44 29.39 25.85 36.64 35.51 30.55 33.98 36.46 35.74 35.23 35.06
44.47 44.92 45.30 45.13 45.52 44.93 45.61 45.26 50.47 51.24 44.67 42.00 45.73 45.00 45.56 44.59 43.75 41.72 40.67 38.66 38.27 39.28 36.88 37.94 38.21 35.61 36.99 35.92 30.25 37.41 31.97 36.01 34.09 31.83 29.21 32.69 35.67 36.46 38.36 38.59 36.14 36.14 35.55 35.16
45.11 45.79 45.49 44.61 44.65 46.46 48.10 47.55 49.05 48.45 43.68 42.30 42.39 40.60 45.18 47.36 46.95 47.80 38.83 42.27 42.11 41.09 44.66 41.82 40.59 34.86 38.99 33.25 35.23 35.56 36.13 37.91 34.58 32.28 30.77 31.91 33.90 36.62 37.60 37.81 36.75 36.61 36.19 34.98
45.70 45.74 45.15 44.51 45.32 46.73 48.26 46.83 50.23 47.69 43.71 37.20 37.59 45.99 43.15 46.89 47.52 46.49 47.08 44.37 45.25 44.76 44.55 41.06 39.80 37.19 40.86 37.95 38.60 37.54 38.68 38.28 32.88 30.01 31.44 33.05 34.54 35.59 35.70 35.41 35.67 34.48 34.44 34.24
45.82 45.60 45.08 45.42 46.03 46.99 48.24 48.55 48.63 49.53 44.95 36.43 37.74 43.35 45.02 46.13 45.89 44.63 45.39 44.46 43.49 42.09 39.66 39.99 38.45 41.06 39.98 41.04 40.42 37.22 39.60 36.35 33.43 34.52 35.16 35.92 35.06 36.32 36.72 34.27 33.12 33.54 32.50 31.75
45.63 45.14 43.68 42.87 42.33 44.14 47.73 39.03 47.91 49.45 49.08 40.40 33.94 42.44 41.81 44.26 44.46 43.12 42.65 43.12 43.14 43.59 41.55 40.13 41.55 41.90 40.69 35.96 34.69 38.76 40.21 40.26 40.40 36.53 39.10 39.05 37.90 37.03 36.91 34.26 33.52 33.25 32.52 32.17
44.92 44.33 44.57 44.95 45.86 46.66 42.95 41.16 44.73 45.09 49.45 40.78 34.94 34.77 40.94 43.02 42.77 43.02 42.15 43.10 42.75 42.30 40.39 39.82 40.30 40.05 40.25 38.51 34.19 38.03 39.49 40.04 39.73 40.41 38.70 35.17 35.95 34.06 35.75 35.00 34.16 32.97 32.30 31.82
44.96 45.07 44.93 45.04 45.20 45.12 42.79 44.64 45.46 46.24 45.71 43.62 34.70 33.84 37.00 42.53 39.14 37.94 43.59 40.59 42.09 40.62 40.18 40.14 38.85 39.55 39.91 34.01 38.14 39.23 39.54 39.51 38.57 38.08 39.48 37.88 37.90 36.62 34.81 34.30 32.91 30.59 29.66 29.60
44.46 43.99 43.84 45.44 44.36 42.79 42.40 43.09 44.97 49.05 45.86 38.09 37.87 32.65 30.70 41.55 39.14 40.40 40.37 41.71 36.55 40.94 38.43 38.90 38.80 37.35 32.39 36.03 38.01 38.42 38.87 38.06 37.48 38.58 38.98 37.72 34.95 34.18 33.12 32.32 31.20 30.10 28.83 28.72
42.31 43.52 40.02 34.50 41.18 42.74 44.29 45.62 43.12 42.66 42.44 42.29 37.07 39.91 33.64 39.10 38.21 37.43 36.62 39.03 35.53 32.26 36.87 40.19 36.27 36.60 38.95 38.92 40.27 40.99 40.28 40.16 39.94 35.93 33.99 34.40 33.24 32.86 32.23 31.50 32.06 31.39 29.85 28.83
42.26 38.43 35.64 41.87 42.99 44.12 40.46 35.05 36.59 38.01 34.28 39.29 38.14 37.58 34.82 41.39 35.34 34.43 38.90 35.34 36.02 30.08 33.59 33.79 34.11 33.91 37.17 39.26 40.54 41.95 41.43 41.12 39.96 39.89 38.86 38.11 36.33 34.28 33.06 32.47 32.39 31.62 30.12 28.27
40.99 40.96 43.48 44.15 40.05 37.36 33.96 31.91 34.28 33.74 31.75 36.42 36.04 36.22 37.98 38.85 41.82 36.76 37.22 32.34 34.05 26.75 37.56 32.74 29.89 36.10 37.88 39.53 39.99 40.77 41.03 40.24 39.49 39.93 38.21 37.88 36.63 35.98 34.59 33.29 31.81 30.73 29.74 27.84
42.94 39.46 35.55 36.44 34.11 28.85 28.91 24.89 29.48 30.89 34.25 35.89 36.81 35.01 37.97 39.20 40.67 36.04 34.95 30.58 30.27 37.06 30.25 30.00 34.59 36.67 37.81 39.46 40.32 39.99 40.35 39.63 38.66 37.87 37.88 37.04 35.89 35.92 34.38 32.10 31.36 29.05 26.80 25.05
36.19 33.97 27.58 30.73 27.80 30.50 32.60 33.13 34.06 34.64 35.96 37.14 38.78 36.75 36.88 38.01 34.04 34.28 30.74 31.87 33.41 27.67 26.29 27.46 36.75 35.87 36.25 39.17 40.14 39.19 37.68 37.27 37.00 36.09 35.88 34.62 33.44 31.93 31.22 30.19 27.60 26.18 22.55 21.47
33.54 33.26 26.37 28.26 32.58 33.34 33.77 34.93 34.64 36.09 39.57 38.59 37.39 37.17 37.58 34.43 30.98 33.54 30.57 27.78 26.14 28.73 30.03 36.18 38.61 34.96 35.13 36.49 37.52 36.28 33.95 33.03 32.93 33.11 30.95 29.25 27.73 26.42 26.16 25.62 25.51 23.70 20.72 18.65
33.72 31.99 29.53 32.81 32.41 31.04 33.23 34.68 32.70 37.55 39.30 40.37 39.37 34.10 32.67 30.62 32.36 28.87 28.23 26.83 26.13 31.99 37.15 39.03 38.86 33.55 33.90 34.91 35.42 34.50 33.59 33.41 32.76 31.76 29.81 27.48 25.53 25.35 25.89 24.45 23.91 20.63 19.47 17.83
30.63 30.02 33.62 33.41 34.50 32.14 32.32 34.80 34.97 39.42 38.04 33.48 34.98 30.49 26.74 33.35 29.76 28.39 32.93 31.12 35.01 37.92 38.98 39.20 33.30 31.89 32.78 33.23 32.68 31.60 31.78 31.93 31.98 29.63 28.64 27.22 26.93 25.91 23.10 21.67 21.30 21.19 20.54 19.70

GFSNW_sfc_wetblb_132.txt.gz
Wetbulb
49.22 50.20 50.66 51.28 52.07 51.65 47.48 41.55 31.89 44.81 46.56 34.67 35.74 33.09 37.11 41.22 43.37 44.32 42.15 41.56 39.54 37.97 37.49 35.15 35.26 34.64 38.72 44.14 43.05 37.81 41.52 37.28 32.49 36.31 42.90 44.65 42.42 38.97 38.51 31.31 30.31 34.12 32.77 26.80
49.40 49.19 51.19 52.43 51.90 49.26 44.04 35.48 36.63 44.94 43.18 31.64 31.20 37.08 38.06 42.03 41.78 40.74 39.90 38.68 41.14 40.98 38.53 33.40 35.96 38.38 43.66 44.52 42.65 39.68 41.07 35.56 29.41 33.42 38.73 41.09 38.14 39.37 38.91 37.70 35.32 30.80 28.08 25.80
47.20 47.42 47.83 49.63 49.06 48.19 44.23 36.51 29.51 35.26 38.53 36.94 35.88 34.60 36.00 36.97 43.09 40.70 40.28 39.20 39.16 37.51 36.62 36.55 34.01 35.82 41.20 43.43 42.40 41.95 42.28 37.45 34.18 29.67 32.04 36.34 32.39 33.97 35.26 34.48 30.32 32.46 29.42 25.12
45.98 46.33 46.58 46.81 46.99 47.08 45.24 40.97 33.65 35.96 28.92 31.82 36.51 38.20 38.82 36.36 35.67 40.48 40.94 37.88 36.69 35.06 31.19 32.35 32.88 38.25 38.46 40.43 40.88 41.05 40.23 33.57 35.41 35.88 35.13 34.31 31.49 30.98 31.64 31.89 33.56 31.40 28.74 26.93
45.38 45.42 45.77 46.33 46.72 47.10 42.51 36.09 35.56 38.01 35.59 37.03 36.98 37.65 37.09 36.31 36.86 38.13 37.17 36.13 37.73 37.12 33.10 34.56 31.45 36.24 37.36 36.26 40.10 38.69 40.92 33.64 33.72 30.55 34.53 33.51 28.63 31.11 30.43 31.98 32.12 30.93 28.87 24.88
45.17 44.13 45.17 45.75 46.10 46.47 41.18 44.53 46.05 41.90 36.39 36.93 36.54 36.14 36.61 36.76 38.73 39.37 40.34 38.30 37.79 36.69 38.52 40.81 41.74 43.10 42.59 42.26 39.43 38.11 37.93 35.83 32.56 28.49 33.25 33.35 28.21 28.70 31.94 32.48 33.94 32.93 28.29 29.06
46.16 45.31 45.28 45.37 45.71 45.71 45.40 46.10 45.96 40.03 33.96 36.46 36.24 37.09 38.48 36.86 36.76 35.37 38.75 40.41 38.57 39.49 43.53 43.51 43.09 41.90 41.74 42.37 41.73 42.55 37.80 36.70 35.65 31.21 32.04 24.03 29.72 36.35 35.85 32.44 32.62 32.75 30.54 30.67
44.80 45.18 44.99 45.19 45.70 45.61 45.65 46.27 44.29 38.83 34.56 37.22 36.04 36.39 36.14 36.75 37.73 36.93 37.85 41.12 43.21 43.64 41.81 36.64 33.73 34.17 35.31 37.35 40.25 40.28 41.47 37.49 32.83 29.08 29.25 28.16 29.39 33.54 32.80 31.83 29.87 34.55 31.70 31.73
44.93 44.90 44.30 45.02 45.61 46.12 45.53 47.05 47.36 43.32 36.80 35.35 38.97 36.62 37.10 34.59 35.26 37.19 37.40 42.24 45.15 42.79 39.09 36.48 29.50 27.44 31.88 31.41 34.80 40.94 39.59 39.90 34.37 32.86 27.21 24.53 32.44 36.71 39.77 38.61 27.79 35.73 34.67 32.44
44.84 44.39 44.35 45.18 45.98 45.98 45.15 46.86 49.49 45.49 39.95 40.95 41.70 38.04 37.23 40.26 38.55 35.35 36.86 37.77 37.84 42.53 36.11 33.36 31.34 31.04 36.73 30.70 30.57 31.72 33.30 34.27 30.77 31.30 29.02 29.60 36.52 38.05 39.16 26.86 29.37 36.66 36.77 34.87
44.34 44.88 45.47 45.49 45.51 45.96 44.77 48.53 51.69 47.35 42.73 42.37 44.76 44.72 40.86 41.34 40.42 34.34 38.40 37.62 37.88 36.70 33.53 33.43 33.67 34.41 35.51 34.45 36.47 34.35 32.38 31.44 31.20 32.36 28.59 24.97 38.08 36.08 31.15 34.52 37.42 37.39 37.79 37.40
44.03 44.50 45.33 45.27 45.89 46.27 45.88 46.10 50.96 50.78 44.04 41.00 46.14 45.46 45.94 45.29 44.86 42.60 41.39 38.94 38.72 38.46 36.45 37.19 38.37 35.28 37.11 34.63 30.39 38.06 31.58 35.43 33.13 30.70 29.11 34.54 36.75 37.21 39.31 39.00 36.30 36.24 35.53 34.80
44.07 44.67 45.66 45.70 45.62 46.05 46.53 49.16 49.73 47.21 42.93 42.49 42.02 40.44 45.22 47.86 47.61 49.80 39.34 42.27 43.04 41.66 44.89 42.48 40.29 34.81 37.58 33.07 34.49 35.36 37.30 39.02 34.18 31.94 31.44 32.74 35.45 37.91 39.06 38.85 37.17 37.06 36.05 34.25
44.69 45.67 45.32 44.94 45.85 47.36 48.38 48.70 50.49 48.04 43.13 36.77 37.48 46.30 43.54 47.72 47.49 47.52 48.07 45.43 45.99 45.89 45.47 41.07 38.76 36.56 40.92 36.81 38.04 36.96 38.28 38.48 33.42 30.33 32.35 33.40 34.59 36.82 37.29 37.08 36.89 35.77 35.78 35.04
45.77 45.21 44.89 44.36 44.64 46.05 50.14 50.40 50.39 51.07 43.79 36.28 36.99 43.38 44.77 46.24 46.16 44.85 45.88 45.17 43.94 42.45 39.62 39.94 37.23 40.24 38.93 39.62 39.33 36.37 40.25 36.12 32.75 33.15 34.75 35.11 34.49 36.58 37.11 34.10 33.51 34.23 33.43 32.46
45.52 44.73 43.09 44.27 44.86 45.86 47.44 37.63 48.91 49.63 48.57 40.33 33.38 42.47 41.98 43.93 44.58 43.83 43.72 44.43 43.94 42.81 40.05 39.82 40.98 42.89 40.17 36.67 33.62 39.65 40.62 41.91 41.39 37.70 38.83 39.13 37.61 37.32 37.01 34.59 34.24 34.07 33.31 33.29
44.79 44.14 44.77 45.52 45.83 45.96 43.13 40.95 43.83 44.88 49.59 40.89 35.53 34.11 41.02 43.15 43.01 42.15 41.56 43.39 42.25 41.79 40.02 38.69 39.12 39.09 39.04 38.71 32.94 38.55 40.03 40.26 40.39 40.70 39.11 35.56 36.34 34.61 36.88 35.73 34.90 34.63 33.58 32.98
44.78 45.34 45.42 45.35 45.55 45.09 43.13 45.01 45.86 45.49 45.79 42.84 34.75 33.73 36.53 42.78 38.26 36.88 42.81 39.23 41.10 40.61 38.88 39.15 37.80 38.63 38.41 33.70 38.32 39.70 40.12 39.88 39.28 39.42 40.02 38.13 38.29 37.25 35.85 35.45 33.39 31.30 30.09 29.93
45.19 44.87 45.04 46.24 44.06 42.18 42.22 43.18 44.30 51.21 45.34 37.65 37.45 31.84 30.48 41.71 39.34 39.37 39.51 40.77 37.01 40.15 37.61 37.51 37.55 36.15 32.16 36.04 38.17 38.55 39.33 38.36 37.79 39.21 39.11 38.20 36.26 35.26 34.39 33.24 31.97 30.11 29.00 28.71
43.81 43.02 39.54 34.37 41.50 43.64 45.09 45.57 42.32 42.50 42.05 42.31 37.03 39.32 33.39 39.60 38.17 36.78 36.56 38.85 35.10 31.77 35.83 39.01 35.39 35.88 39.34 39.25 40.28 41.04 40.65 40.63 39.88 36.78 34.87 35.71 34.20 34.10 33.09 32.20 32.10 31.29 29.60 29.07
42.10 38.88 36.55 42.26 43.81 44.25 41.17 34.53 36.33 37.70 34.51 38.75 38.64 37.71 35.63 41.76 35.74 34.76 38.69 35.95 35.83 29.72 33.04 33.10 32.82 32.58 36.80 40.00 40.56 42.02 41.63 41.32 40.71 40.25 39.19 38.37 36.73 34.78 33.40 32.61 32.67 31.69 30.03 28.18
41.62 41.56 44.28 43.76 40.40 37.46 33.60 31.97 33.96 33.69 31.73 36.52 36.61 37.09 38.36 39.36 41.92 36.05 37.11 32.10 34.11 28.27 37.45 32.37 29.17 34.96 38.38 39.74 40.31 40.94 41.37 40.98 40.07 40.51 38.79 38.55 37.32 36.19 34.68 33.80 32.64 31.56 30.25 27.30
43.74 39.19 36.12 36.85 34.48 28.72 28.09 24.58 28.96 32.09 35.82 37.84 38.10 35.21 37.55 39.11 40.33 36.74 34.52 30.58 30.51 37.07 30.41 28.67 33.99 36.77 38.60 39.98 40.57 40.23 40.97 40.32 40.01 39.20 38.96 38.70 37.00 36.71 35.17 33.01 32.43 29.92 26.76 24.41
36.92 33.22 27.18 31.37 28.36 30.56 32.09 32.94 34.77 36.01 37.79 38.43 38.95 37.18 36.72 38.49 33.60 35.46 30.11 32.24 33.39 27.56 26.00 27.99 35.53 36.19 37.85 40.53 40.75 39.26 37.69 36.44 36.96 36.28 35.81 33.55 32.16 30.25 29.82 29.44 28.12 26.25 23.55 22.61
33.82 34.43 26.09 28.91 33.23 34.00 34.79 36.18 36.17 37.68 40.89 39.82 38.16 38.15 36.64 34.65 30.82 33.78 30.36 27.44 25.71 28.02 29.02 35.61 36.66 35.68 36.91 38.03 37.83 35.22 33.42 31.87 32.40 32.60 30.33 27.96 27.19 26.80 26.19 26.29 27.10 24.82 22.13 20.10
33.68 32.55 29.83 32.99 32.31 30.86 32.19 34.37 34.99 38.77 40.25 41.02 39.97 34.80 33.04 30.57 31.70 28.89 28.14 26.81 26.24 32.26 36.49 38.83 37.10 34.69 36.21 36.41 34.91 33.24 33.10 33.10 32.44 31.36 30.20 28.19 26.13 26.07 26.79 25.77 24.58 21.56 20.11 17.93
31.52 30.49 35.04 32.74 34.19 32.18 32.56 35.91 35.71 40.38 38.64 34.41 35.91 31.00 28.85 34.18 29.49 28.49 32.82 32.02 35.13 37.79 38.29 36.60 32.80 33.39 32.95 33.42 33.09 32.38 32.01 32.39 32.41 30.88 29.32 28.03 28.16 26.86 24.59 23.37 22.26 21.32 20.57 18.72

GFSNW_sfc_wetblb_135.txt.gz
Wetbulb
47.67 49.21 48.55 48.64 49.92 50.43 48.85 44.26 35.55 47.02 47.09 34.33 34.93 31.97 34.09 38.64 38.94 39.93 39.79 41.86 39.55 34.99 35.56 32.46 31.70 33.10 37.00 42.96 42.42 37.26 40.26 34.58 29.71 34.56 41.92 43.14 40.98 37.68 36.92 26.66 27.67 30.39 25.22 21.93
47.77 47.82 47.43 48.01 50.84 50.70 46.54 39.95 37.10 46.57 44.95 31.24 31.05 34.83 35.31 37.98 37.76 38.00 38.84 38.06 38.75 38.47 31.39 26.19 30.90 36.32 42.41 43.13 41.06 38.48 39.86 33.22 27.53 30.51 35.96 40.84 37.60 38.72 37.46 36.56 33.28 26.94 21.81 19.12
46.47 47.07 47.21 47.65 48.74 51.35 42.34 36.14 29.99 36.63 40.50 40.41 34.03 32.46 34.37 34.38 39.83 39.76 41.06 38.62 38.02 34.83 30.67 33.39 28.21 34.71 41.52 43.55 41.66 43.40 42.41 36.39 31.76 27.03 29.85 34.33 31.59 33.55 33.60 31.93 21.93 21.50 23.19 24.12
45.61 46.04 46.66 47.05 47.67 47.36 41.94 37.25 32.75 35.54 29.76 33.50 34.20 35.58 35.08 33.91 34.57 39.63 39.71 35.38 35.67 33.45 30.38 31.06 31.32 36.84 38.72 41.22 42.00 40.88 38.76 31.82 31.42 35.39 35.35 33.56 30.98 30.52 30.71 29.70 30.78 27.05 21.02 23.27
45.52 45.51 45.73 46.65 47.39 47.18 41.07 32.65 33.69 36.48 33.68 35.68 34.55 35.07 34.63 33.62 35.29 37.48 34.36 33.64 35.94 35.08 31.98 33.59 30.95 35.57 36.56 35.22 38.07 37.19 39.04 30.66 28.95 24.94 33.18 33.02 22.32 25.34 26.67 30.16 32.39 30.68 27.86 24.96
44.97 45.16 45.14 45.75 46.70 46.68 40.29 42.31 42.67 37.81 34.14 33.11 33.41 33.34 34.01 35.51 38.29 38.28 39.20 37.89 36.05 35.25 36.05 38.74 39.58 40.95 40.35 39.51 37.20 35.26 36.07 33.58 29.51 25.44 30.46 31.72 27.58 23.82 27.96 31.28 32.30 32.50 24.69 26.69
46.33 45.54 45.05 45.73 45.99 45.65 43.12 43.87 42.26 36.54 30.17 32.20 33.88 36.39 36.94 37.39 38.21 34.89 39.02 38.91 37.08 39.77 42.19 42.28 40.80 39.77 40.80 41.50 40.02 40.71 36.57 34.53 33.32 26.55 29.43 21.92 26.46 34.74 33.71 31.87 31.46 29.92 27.97 27.65
45.94 45.89 45.03 44.72 45.62 46.08 44.00 44.99 42.61 37.50 28.19 33.78 36.75 37.96 37.79 38.61 38.41 35.99 37.15 39.23 40.93 41.89 39.99 34.39 32.16 32.88 34.38 36.00 39.60 39.82 40.45 36.21 28.75 25.58 26.10 26.93 29.42 32.61 31.65 28.42 27.73 30.88 28.94 29.17
45.37 45.42 44.93 44.69 45.18 46.22 44.69 45.02 45.78 42.14 35.71 34.47 39.77 37.04 37.04 33.08 32.69 33.85 36.89 41.68 42.25 40.37 36.47 32.76 27.63 25.96 30.54 29.59 33.47 40.30 39.00 37.80 32.33 27.44 25.45 21.41 28.38 34.70 37.57 36.19 24.35 32.59 31.83 28.65
45.16 45.33 44.22 44.39 45.04 45.96 44.62 43.61 46.58 43.32 36.41 39.56 40.28 35.50 34.59 37.83 36.55 33.70 35.58 36.35 36.39 39.16 30.58 29.88 27.54 27.40 34.67 28.17 28.72 30.26 31.00 30.87 26.61 25.02 24.78 28.96 35.33 36.42 39.07 24.80 23.29 33.79 33.03 30.79
44.66 44.17 44.11 44.62 45.80 45.91 44.14 43.19 46.79 44.55 39.09 40.12 42.20 41.98 38.22 38.07 37.63 32.24 35.39 34.39 34.47 31.27 28.60 29.82 28.25 27.33 32.84 31.90 35.18 32.73 29.64 26.76 25.31 26.65 24.90 23.85 36.47 34.99 28.97 30.63 33.64 35.22 34.33 33.24
44.52 44.71 45.11 45.57 45.54 46.26 45.70 41.61 49.17 49.68 41.10 39.86 44.12 44.00 44.62 44.15 42.91 38.13 37.25 35.42 34.53 34.33 30.94 31.06 30.42 30.13 32.03 30.98 25.26 36.85 29.84 32.43 28.28 27.86 27.26 32.43 34.80 33.74 36.02 35.01 32.67 32.67 31.66 31.46
44.32 44.49 44.80 45.89 46.38 46.32 45.54 44.55 46.88 44.38 39.17 38.57 39.10 38.72 43.30 45.52 45.19 44.89 34.71 37.61 39.41 38.46 40.99 35.80 34.93 30.89 32.81 26.97 28.34 31.34 35.29 37.81 27.62 27.90 30.23 31.75 33.52 37.07 37.77 36.24 33.01 33.51 32.88 31.66
44.30 44.37 45.45 46.00 46.12 46.97 47.58 43.99 46.21 43.90 39.77 33.47 36.32 44.91 41.81 45.61 45.74 44.87 44.14 41.72 42.54 41.41 40.14 35.45 33.68 31.13 37.02 32.17 34.36 31.96 34.04 34.25 29.44 27.41 30.67 33.65 35.05 36.97 35.94 34.38 34.40 33.91 33.66 32.56
43.68 45.48 45.44 45.06 45.58 47.12 47.85 46.40 45.14 45.90 39.18 32.85 34.21 40.72 43.19 44.45 43.59 43.27 43.30 41.34 39.34 36.97 34.35 33.56 31.25 34.68 34.98 34.58 34.65 31.50 36.47 31.83 26.17 22.53 30.39 30.03 31.15 36.22 35.09 32.29 32.48 33.64 33.27 31.80
45.10 45.00 43.78 45.23 46.08 47.39 43.47 35.05 45.09 43.12 43.25 35.81 29.07 38.74 39.57 41.69 42.27 41.72 40.33 40.15 39.12 37.24 34.68 33.59 36.82 39.55 35.41 28.42 25.94 36.00 37.78 38.42 38.40 33.69 35.04 34.56 35.35 36.47 35.09 32.05 31.97 32.88 32.35 32.64
45.01 43.77 44.10 44.97 45.49 42.74 40.24 37.33 41.02 44.46 44.41 35.64 29.55 31.16 38.64 40.92 39.76 37.85 37.29 38.94 36.96 36.52 33.75 33.08 33.73 33.92 35.38 27.77 26.19 35.61 37.27 38.07 37.36 37.44 35.82 33.13 34.32 33.28 34.73 33.67 33.03 33.90 32.04 32.06
43.97 44.78 45.40 45.52 45.44 44.56 40.21 42.27 43.95 43.90 41.94 38.78 29.02 28.33 31.80 40.25 33.17 32.37 37.77 33.82 35.88 35.16 33.16 33.31 33.53 33.22 32.42 26.86 34.80 36.86 37.54 37.86 36.64 36.60 37.13 34.69 36.07 36.52 33.71 32.29 31.07 28.61 26.76 26.67
45.11 44.90 44.83 43.63 41.83 38.25 38.69 44.73 44.96 44.64 41.03 32.32 29.42 26.10 22.12 38.11 35.27 34.60 34.69 36.12 28.00 34.80 31.13 31.84 32.23 29.43 25.60 32.52 35.54 35.94 36.58 35.67 35.59 36.93 35.92 34.77 33.09 32.02 30.90 29.98 28.49 26.32 24.83 24.97
43.96 42.27 37.29 32.65 38.37 43.82 44.05 40.88 37.13 36.90 37.70 37.69 30.40 33.28 26.51 34.67 32.31 30.79 30.74 31.96 28.83 26.79 30.37 33.60 28.24 28.13 35.65 36.75 37.97 38.24 37.57 37.82 36.99 32.60 31.25 31.95 30.85 29.84 29.34 28.61 27.59 26.23 24.86 24.83
39.62 34.08 33.60 39.68 44.40 40.31 36.62 27.86 28.55 32.14 29.58 34.84 34.44 32.44 29.60 37.01 29.31 28.28 32.73 28.35 28.92 24.70 28.12 27.48 26.13 27.17 31.27 36.77 37.54 38.32 38.20 37.98 37.15 36.57 35.03 33.77 32.29 29.72 28.20 27.78 27.57 26.61 25.78 24.99
39.70 39.24 41.94 41.34 38.66 33.03 27.87 26.05 29.01 29.92 28.24 31.85 30.46 32.70 34.88 33.48 37.30 30.52 31.52 27.70 28.03 26.36 30.96 24.69 21.63 28.03 34.99 36.56 37.22 37.34 37.41 37.10 36.53 36.55 34.86 33.77 33.20 30.96 29.06 28.13 27.12 26.66 25.97 23.45
41.51 37.87 33.44 33.32 28.73 20.30 19.33 17.88 24.77 25.99 30.00 32.52 32.40 29.97 33.07 33.21 34.72 28.72 28.90 23.56 22.39 29.65 21.44 21.68 26.12 30.39 34.97 36.26 36.78 36.26 36.48 35.89 35.37 35.69 34.57 33.38 31.61 31.33 29.64 28.58 27.60 25.38 22.45 19.53
31.74 28.48 19.40 24.09 19.03 24.23 28.75 29.23 29.13 31.02 31.66 32.91 31.03 29.94 30.57 30.15 28.12 29.44 22.09 26.91 27.89 19.09 17.20 23.20 25.52 30.63 32.16 34.11 34.74 33.70 31.03 30.11 30.54 30.22 29.62 27.96 26.97 21.99 22.14 24.24 23.47 21.08 18.91 14.05
29.91 29.52 19.40 22.14 30.85 31.10 31.80 31.20 30.70 31.60 35.11 33.46 30.95 31.15 31.28 26.50 26.79 27.49 25.66 22.19 19.82 22.52 22.59 29.19 27.39 30.60 31.98 32.06 31.53 29.47 27.93 26.47 26.25 25.24 23.10 21.22 21.03 21.31 18.84 16.85 19.90 20.37 18.44 15.33
30.62 29.32 24.83 26.32 25.68 24.91 31.03 30.93 30.75 34.10 32.14 33.60 32.37 29.25 25.51 25.52 26.02 25.58 23.04 24.17 20.74 24.63 27.39 27.90 28.51 28.86 29.80 31.16 31.23 31.04 29.23 26.84 25.66 23.92 22.16 21.03 20.04 20.39 18.94 16.63 15.36 13.93 15.49 13.50
28.26 25.29 32.07 31.69 31.05 29.98 31.33 31.32 31.56 35.26 31.78 28.57 28.76 24.18 26.72 29.40 25.10 24.90 27.56 26.33 28.29 30.03 30.69 29.15 31.53 31.40 31.97 32.49 32.12 30.27 30.48 24.67 24.18 22.52 21.44 19.13 20.42 20.95 21.33 17.26 14.15 15.38 13.17 10.61